Date StartTime U_cm/s V_cm/s W_cm/s Ustd_cm/s Vstd_cm/s Wstd_cm/s Uvar_(cm/s)^2 Vvar_(cm/s)^2 Wvar_(cm/s)^2 KE_(m/s)^2 TurbulentKE_(m/s)^2 HorizWindSpeed_cm/s FrictionSpeec_cm/s DragCoef SpeedOfSound_m/s SonicTemperature_C Pressure_mb 
06/25/2014  00:00:00     -179.072      -48.661      -17.964       59.172       38.846       30.937     3501.373     1509.005      957.118        2.036        0.298      185.566       26.356        0.020      343.982       20.476      860.856
06/25/2014  00:01:00     -197.508      -18.851      -10.708      110.201       68.109       45.495    12144.220     4638.891     2069.802        2.916        0.943      198.405       50.607        0.065      343.914       20.360      860.852
06/25/2014  00:02:00     -224.177      -36.480       -8.507      152.169      106.564       50.443    23155.343    11355.927     2544.503        4.435        1.853      227.126       69.935        0.095      343.938       20.402      860.825
06/25/2014  00:03:00     -244.881       20.576      -18.706      113.990       78.390       38.629    12993.686     6145.034     1492.206        4.068        1.032      245.744       39.943        0.026      343.936       20.395      860.832
06/25/2014  00:04:00     -212.002      -11.335      -12.225       98.394       87.261       46.372     9681.419     7614.479     2150.391        3.233        0.972      212.305       45.568        0.046      343.929       20.384      860.838
06/25/2014  00:05:00     -224.963       -3.860      -18.652       64.453       67.600       36.729     4154.235     4569.813     1349.015        3.052        0.504      224.996       33.644        0.022      343.961       20.440      860.849
06/25/2014  00:06:00     -125.437       35.551      -28.354       45.675       56.067       28.821     2086.229     3143.556      830.626        1.193        0.303      130.377       22.509        0.030      343.927       20.383      860.862
06/25/2014  00:07:00      -66.406       28.642       -6.466       43.212       65.380       25.058     1867.241     4274.513      627.888        0.602        0.338       72.320       24.947        0.119      343.862       20.273      860.867
06/25/2014  00:08:00      -97.592      115.785      -16.676       52.265       61.085       33.726     2731.639     3731.358     1137.446        1.540        0.380      151.428       33.123        0.048      343.831       20.220      860.863
06/25/2014  00:09:00     -112.390       43.237       -4.186       59.490       74.772       36.031     3539.038     5590.787     1298.240        1.247        0.521      120.420       36.185        0.090      343.847       20.247      860.869
06/25/2014  00:10:00     -127.419       11.334       -8.822      115.893       40.815       32.138    13431.218     1665.848     1032.875        1.628        0.806      127.922       45.298        0.125      343.841       20.236      860.869
06/25/2014  00:11:00     -128.339       22.819      -13.735       75.698       54.519       39.849     5730.138     2972.312     1587.963        1.373        0.515      130.352       32.719        0.063      343.831       20.217      860.871
06/25/2014  00:12:00      -93.163       22.087      -12.597       73.250       91.686       36.979     5365.601     8406.332     1367.410        1.223        0.757       95.745       35.164        0.135      343.789       20.147      860.878
06/25/2014  00:13:00      -95.783       26.644       -1.703       73.819       49.244       35.058     5449.276     2424.983     1229.078        0.949        0.455       99.420       40.462        0.166      343.778       20.130      860.884
06/25/2014  00:14:00     -133.190       59.959      -14.745       91.243       58.032       33.837     8325.367     3367.721     1144.943        1.719        0.642      146.064       32.065        0.048      343.854       20.257      860.883
06/25/2014  00:15:00     -161.311       26.610       -7.856       76.317       71.654       39.164     5824.269     5134.328     1533.788        1.964        0.625      163.491       33.788        0.043      343.877       20.297      860.882
06/25/2014  00:16:00     -112.964       32.113      -10.804       64.783       64.746       43.020     4196.802     4192.093     1850.685        1.207        0.512      117.439       36.017        0.094      343.872       20.290      860.874
06/25/2014  00:17:00      -85.964      139.623       -7.707       76.836       81.298       61.772     5903.835     6609.296     3815.736        2.163        0.816      163.964       52.025        0.101      343.916       20.362      860.881
06/25/2014  00:18:00     -123.105       58.819      -15.339       75.157      100.756       50.517     5648.640    10151.822     2551.955        1.860        0.918      136.435       48.512        0.126      344.005       20.516      860.884
06/25/2014  00:19:00     -176.120       87.934      -25.167       76.026      108.063       43.775     5779.911    11677.645     1916.234        2.938        0.969      196.852       45.161        0.053      344.022       20.542      860.884
06/25/2014  00:20:00     -152.247       79.104      -28.861       52.118       60.318       28.627     2716.242     3638.303      819.521        1.872        0.359      171.571       21.241        0.015      344.025       20.550      860.890
06/25/2014  00:21:00      -59.851       26.878       -8.370       63.656       80.676       32.921     4052.146     6508.669     1083.812        0.801        0.582       65.610       17.202        0.069      343.981       20.476      860.876
06/25/2014  00:22:00     -184.900      -70.691      -24.735      104.753       67.238       36.289    10973.132     4520.939     1316.871        2.830        0.841      197.953       37.319        0.036      343.978       20.469      860.881
06/25/2014  00:23:00     -247.234      -47.385      -29.377      121.055       69.325       45.188    14654.261     4805.952     2041.955        4.286        1.075      251.734       55.836        0.049      343.877       20.296      860.891
06/25/2014  00:24:00     -139.640      -52.589       -5.567       69.500       60.742       35.931     4830.303     3689.646     1291.011        1.605        0.491      149.214       36.642        0.060      343.834       20.224      860.901
06/25/2014  00:25:00     -160.139      -83.779      -21.016      110.567       67.469       45.938    12224.976     4552.132     2110.318        2.599        0.944      180.730       46.786        0.067      343.854       20.258      860.893
06/25/2014  00:26:00     -157.298      -21.961      -18.132       73.447       93.336       40.581     5394.476     8711.551     1646.799        2.065        0.788      158.823       20.212        0.016      343.881       20.304      860.883
06/25/2014  00:27:00     -174.818       10.638      -33.542       97.977       78.448       35.515     9599.447     6154.074     1261.287        2.440        0.851      175.141       34.218        0.038      343.895       20.326      860.870
06/25/2014  00:28:00     -149.162       57.269      -14.719       48.140       52.112       40.920     2317.451     2715.617     1674.439        1.623        0.335      159.778       30.703        0.037      343.894       20.326      860.873
06/25/2014  00:29:00     -162.877        4.190      -22.920       68.287       57.485       41.286     4663.146     3304.500     1704.532        1.837        0.484      162.931       32.809        0.041      343.897       20.332      860.868
06/25/2014  00:30:00     -170.067      -40.779      -22.771       97.414       65.191       41.741     9489.512     4249.886     1742.301        2.329        0.774      174.887       31.192        0.032      343.890       20.320      860.865
06/25/2014  00:31:00     -253.592      -30.444      -13.313       96.518       74.139       50.219     9315.795     5496.654     2521.921        4.137        0.867      255.413       48.774        0.036      343.938       20.400      860.855
06/25/2014  00:32:00     -276.133      -94.050      -13.701      101.037       63.367       42.523    10208.416     4015.397     1808.206        5.065        0.802      291.710       32.876        0.013      343.894       20.324      860.848
06/25/2014  00:33:00     -237.598      -10.254      -17.543       64.667       90.648       43.522     4181.856     8217.056     1894.196        3.558        0.715      237.820       29.633        0.016      343.900       20.334      860.849
06/25/2014  00:34:00     -222.464     -114.220       -9.090       85.699       68.059       45.020     7344.245     4632.019     2026.828        3.831        0.700      250.073       30.310        0.015      343.871       20.285      860.852
06/25/2014  00:35:00     -234.772      -36.137      -18.806       76.033       81.403       39.118     5780.944     6626.463     1530.250        3.536        0.697      237.537       34.265        0.021      343.824       20.206      860.846
06/25/2014  00:36:00     -272.416      -36.080      -16.266       90.575       69.147       43.540     8203.878     4781.339     1895.761        4.533        0.744      274.795       31.656        0.013      343.829       20.213      860.842
06/25/2014  00:37:00     -206.086      -48.817      -25.964       90.564       95.729       41.838     8201.817     9164.045     1750.417        3.232        0.956      211.789       28.762        0.018      343.852       20.254      860.826
06/25/2014  00:38:00     -315.819      -60.815       -8.551      135.162       88.479       59.079    18268.695     7828.569     3490.339        6.655        1.479      321.621       62.072        0.037      343.918       20.365      860.819
06/25/2014  00:39:00     -188.686      -75.441       -5.255      103.334       84.198       44.078    10677.834     7089.352     1942.855        3.051        0.986      203.209       44.971        0.049      343.863       20.272      860.819
06/25/2014  00:40:00     -263.517      -45.765      -26.665       95.109       93.237       46.509     9045.654     8693.217     2163.059        4.607        0.995      267.461       39.047        0.021      343.882       20.305      860.816
06/25/2014  00:41:00     -229.289      -51.362      -15.860       77.971       66.962       34.705     6079.524     4483.891     1204.455        3.361        0.588      234.971       39.542        0.028      343.949       20.418      860.808
06/25/2014  00:42:00     -192.234      -28.167      -18.195       59.779       56.410       39.712     3573.553     3182.108     1577.031        2.320        0.417      194.287       26.647        0.019      343.892       20.322      860.801
06/25/2014  00:43:00     -184.291      -77.380      -14.776       64.660       69.901       37.019     4180.943     4886.082     1370.377        2.530        0.522      199.877       26.465        0.018      343.905       20.344      860.795
06/25/2014  00:44:00     -219.711      -59.647      -15.302      100.784       68.893       41.220    10157.362     4746.295     1699.119        3.433        0.830      227.664       40.031        0.031      343.914       20.360      860.792
06/25/2014  00:45:00     -195.699      -48.917       -5.865       66.616       63.195       31.583     4437.669     3993.601      997.482        2.508        0.471      201.720       31.076        0.024      343.855       20.258      860.794
06/25/2014  00:46:00     -241.328      -26.982      -14.187       79.263       78.203       48.241     6282.676     6115.764     2327.202        3.694        0.736      242.832       48.311        0.040      343.881       20.302      860.806
06/25/2014  00:47:00     -224.978      -45.675      -23.420       56.293       53.206       36.875     3168.918     2830.830     1359.773        3.030        0.368      229.568       27.240        0.014      343.836       20.224      860.804
06/25/2014  00:48:00     -204.738      -79.066       -2.833       79.149       71.312       45.275     6264.631     5085.421     2049.818        3.079        0.670      219.475       35.011        0.025      343.852       20.253      860.802
06/25/2014  00:49:00     -186.790      -30.492      -10.510       77.299       79.225       44.344     5975.073     6276.607     1966.413        2.507        0.711      189.263       33.665        0.032      343.934       20.393      860.801
06/25/2014  00:50:00     -179.599      -53.610       -8.460       79.445       78.211       41.495     6311.473     6116.994     1721.867        2.467        0.708      187.430       40.621        0.047      343.865       20.275      860.807
06/25/2014  00:51:00     -300.237       58.716      -27.418      108.692       59.386       40.570    11813.993     3526.653     1645.952        5.566        0.849      305.924       33.036        0.012      343.978       20.468      860.830
06/25/2014  00:52:00     -136.816      -31.632       -6.810       92.734       57.854       41.201     8599.593     3347.058     1697.483        1.670        0.682      140.425       45.228        0.104      343.927       20.383      860.835
06/25/2014  00:53:00     -212.797      -45.293      -21.319       67.160       65.882       38.182     4510.497     4340.415     1457.858        2.905        0.515      217.564       38.098        0.031      343.943       20.408      860.829
06/25/2014  00:54:00     -215.025      -61.570       -6.923       86.498       58.255       37.476     7481.955     3393.697     1404.467        3.118        0.614      223.666       35.743        0.026      343.962       20.442      860.826
06/25/2014  00:55:00     -238.323      -54.124       -7.942       86.443       77.811       44.716     7472.399     6054.621     1999.495        3.766        0.776      244.392       45.928        0.035      343.957       20.431      860.825
06/25/2014  00:56:00     -235.861      -30.890      -16.626       80.373       88.142       40.003     6459.861     7769.043     1600.248        3.634        0.791      237.875       32.729        0.019      343.976       20.463      860.821
06/25/2014  00:57:00     -197.543      -20.417       -6.639      103.855       92.389       54.808    10785.788     8535.662     3003.884        3.090        1.116      198.595       55.966        0.079      344.001       20.506      860.818
06/25/2014  00:58:00     -256.900      -38.496      -21.920       86.875       80.529       42.249     7547.304     6484.896     1784.951        4.189        0.791      259.768       40.917        0.025      344.035       20.565      860.817
06/25/2014  00:59:00     -230.519      -16.113      -13.933       76.083       63.506       45.413     5788.599     4033.061     2062.316        3.274        0.594      231.082       44.627        0.037      344.029       20.554      860.801
06/25/2014  01:00:00     -210.750      -82.639       -4.977       74.781       62.454       40.868     5592.193     3900.558     1670.155        3.121        0.558      226.373       34.161        0.023      344.021       20.540      860.783
06/25/2014  01:01:00     -129.506       -9.839        8.302      100.342       52.218       39.697    10068.547     2726.669     1575.861        1.565        0.719      129.879       40.295        0.096      343.957       20.433      860.768
06/25/2014  01:02:00     -103.787      -24.572        4.578       89.805       88.656       39.191     8065.002     7859.965     1535.943        1.443        0.873      106.656       39.685        0.138      343.965       20.447      860.745
06/25/2014  01:03:00     -166.404      -49.478        1.023       85.685       50.425       35.310     7341.890     2542.672     1246.790        2.063        0.557      173.604       36.116        0.043      343.976       20.466      860.745
06/25/2014  01:04:00     -164.952      -63.395       -1.210       74.972       76.492       34.547     5620.844     5851.041     1193.474        2.195        0.633      176.714       29.060        0.027      343.970       20.455      860.740
06/25/2014  01:05:00     -138.509      -72.319      -12.117       73.718       75.680       41.077     5434.305     5727.471     1687.331        1.870        0.642      156.252       39.503        0.064      343.949       20.419      860.741
06/25/2014  01:06:00      -32.765      -36.929       19.275       61.793       54.457       41.751     3818.385     2965.568     1743.131        0.567        0.426       49.369       42.818        0.752      343.895       20.330      860.730
06/25/2014  01:07:00      -94.163        4.429       17.450      108.473       68.137       49.763    11766.343     4642.685     2476.343        1.403        0.944       94.267       51.935        0.304      343.900       20.337      860.729
06/25/2014  01:08:00     -150.435      -57.712       -0.281       65.617       49.680       35.799     4305.565     2468.142     1281.598        1.701        0.403      161.125       33.321        0.043      343.871       20.286      860.735
06/25/2014  01:09:00     -140.846      -24.443        6.915       59.956       60.257       37.310     3594.744     3630.886     1392.034        1.455        0.431      142.952       35.444        0.061      343.871       20.288      860.740
06/25/2014  01:10:00      -80.682      -10.659       14.556       59.917       41.589       32.154     3590.009     1729.614     1033.887        0.659        0.318       81.383       25.473        0.098      343.833       20.223      860.739
06/25/2014  01:11:00     -195.039      -98.410       -6.458       59.023       64.771       38.097     3483.754     4195.321     1451.393        2.845        0.457      218.460       32.488        0.022      343.912       20.354      860.752
06/25/2014  01:12:00     -116.898      -49.017        6.069       65.026       66.813       33.417     4228.366     4463.920     1116.663        1.296        0.490      126.759       35.511        0.078      343.859       20.268      860.759
06/25/2014  01:13:00      -33.144       -9.572       12.499       56.948       37.059       33.268     3243.040     1373.398     1106.736        0.353        0.286       34.499       30.760        0.795      343.786       20.143      860.764
06/25/2014  01:14:00     -112.726      -67.286       -1.621       96.256       51.921       37.888     9265.312     2695.797     1435.509        1.531        0.670      131.281       41.972        0.102      343.793       20.154      860.767
06/25/2014  01:15:00      -50.223      -63.884       15.205       56.322       54.781       31.008     3172.209     3000.995      961.527        0.698        0.357       81.262       26.534        0.107      343.777       20.128      860.763
06/25/2014  01:16:00      -52.256      -66.440        6.257       95.781       64.621       47.122     9173.949     4175.936     2220.438        1.137        0.779       84.528       50.974        0.364      343.754       20.089      860.747
06/25/2014  01:17:00     -136.395      -78.845        3.197       70.207       53.852       33.840     4929.062     2900.019     1145.157        1.690        0.449      157.544       38.164        0.059      343.762       20.099      860.752
06/25/2014  01:18:00     -184.715      -68.808       -2.626       76.206       60.605       36.955     5807.361     3672.953     1365.699        2.485        0.542      197.115       40.826        0.043      343.733       20.051      860.753
06/25/2014  01:19:00      -82.766      -50.389        6.951       61.229       60.527       30.724     3749.042     3663.574      943.966        0.890        0.418       96.898       27.806        0.082      343.721       20.033      860.740
06/25/2014  01:20:00      -91.977      -60.739        6.637       55.128       46.542       35.974     3039.126     2166.130     1294.102        0.935        0.325      110.223       32.332        0.086      343.710       20.014      860.737
06/25/2014  01:21:00     -156.839      -85.506       -2.175       76.282       44.542       41.099     5818.998     1984.000     1689.139        2.070        0.475      178.632       41.726        0.055      343.747       20.075      860.718
06/25/2014  01:22:00     -137.282     -120.760       -2.582       65.414       66.987       33.838     4278.965     4487.325     1145.040        2.167        0.496      182.837       31.619        0.030      343.750       20.080      860.709
06/25/2014  01:23:00     -160.731      -80.347       -2.896       95.534       66.116       35.791     9126.680     4371.295     1281.018        2.354        0.739      179.695       39.873        0.049      343.694       19.982      860.696
06/25/2014  01:24:00     -112.191      -34.968        0.518       73.554       60.215       35.355     5410.188     3625.845     1249.966        1.205        0.514      117.514       33.833        0.083      343.748       20.078      860.686
06/25/2014  01:25:00     -317.188      -53.631      -16.244      118.853       83.762       49.189    14126.052     7016.103     2419.583        6.365        1.178      321.690       51.671        0.026      343.801       20.167      860.667
06/25/2014  01:26:00     -194.051      -87.880        7.246       95.350       60.296       49.278     9091.549     3635.651     2428.287        3.029        0.758      213.023       52.934        0.062      343.739       20.060      860.655
06/25/2014  01:27:00     -205.302      -58.418      -10.078       81.708       84.791       37.314     6676.217     7189.542     1392.316        3.046        0.763      213.451       30.816        0.021      343.800       20.162      860.653
06/25/2014  01:28:00     -122.161     -105.743       16.771      139.718       94.356       48.354    19521.186     8903.045     2338.063        2.857        1.538      161.570       63.711        0.155      343.832       20.220      860.637
06/25/2014  01:29:00     -145.365      -70.020       -3.740       61.553       45.451       31.996     3788.740     2065.787     1023.738        1.646        0.344      161.350       31.299        0.038      343.820       20.199      860.626
06/25/2014  01:30:00     -209.719     -104.870       -9.075       57.601       50.774       35.129     3317.896     2577.960     1234.080        3.109        0.356      234.478       32.145        0.019      343.806       20.176      860.628
06/25/2014  01:31:00     -154.818      -66.995       -5.177       54.388       47.084       35.976     2958.090     2216.892     1294.282        1.748        0.323      168.691       31.549        0.035      343.757       20.094      860.622
06/25/2014  01:32:00     -145.494      -28.186       -6.003       56.920       52.010       26.194     3239.872     2705.085      686.151        1.431        0.332      148.199       29.086        0.039      343.730       20.046      860.616
06/25/2014  01:33:00     -179.101      -79.508      -17.932       88.581       69.461       39.715     7846.548     4824.856     1577.291        2.648        0.712      195.956       50.246        0.066      343.752       20.083      860.630
06/25/2014  01:34:00     -117.644      -28.493        5.001       64.173       66.103       30.825     4118.183     4369.666      950.180        1.206        0.472      121.045       24.605        0.041      343.777       20.127      860.628
06/25/2014  01:35:00     -125.005      -51.590        6.364       74.814       57.314       34.101     5597.159     3284.888     1162.862        1.418        0.502      135.232       34.623        0.066      343.708       20.009      860.633
06/25/2014  01:36:00     -164.324      -37.224      -10.782       63.154       58.340       35.922     3988.454     3403.589     1290.390        1.859        0.434      168.487       30.256        0.032      343.774       20.121      860.623
06/25/2014  01:37:00     -135.244      -37.492        3.759       67.181       61.817       35.136     4513.256     3821.394     1234.564        1.464        0.478      140.344       33.077        0.056      343.745       20.072      860.621
06/25/2014  01:38:00     -160.295      -37.116       -1.698       83.964       54.052       39.107     7049.953     2921.612     1529.393        1.929        0.575      164.536       29.293        0.032      343.731       20.047      860.618
06/25/2014  01:39:00     -252.136      -31.360       -9.782       95.450       77.738       43.827     9110.793     6043.227     1920.810        4.086        0.854      254.079       43.064        0.029      343.810       20.179      860.608
06/25/2014  01:40:00     -356.296      -95.760      -19.495      116.284      108.975       57.573    13521.995    11875.468     3314.613        8.260        1.436      368.941       54.339        0.022      343.880       20.300      860.588
06/25/2014  01:41:00     -195.206      -33.141        0.676       88.911       92.984       45.505     7905.100     8645.962     2070.666        2.891        0.931      198.000       45.874        0.054      343.819       20.196      860.576
06/25/2014  01:42:00     -350.167      -67.187      -25.031       93.458       80.532       54.762     8734.396     6485.325     2998.921        7.299        0.911      356.554       48.503        0.019      343.878       20.297      860.562
06/25/2014  01:43:00     -278.369      -46.634       -6.801      124.925       72.421       54.153    15606.361     5244.735     2932.563        5.174        1.189      282.248       62.442        0.049      343.823       20.203      860.549
06/25/2014  01:44:00     -236.341      -58.038      -15.067      106.877       78.331       48.508    11422.790     6135.765     2353.013        3.968        0.996      243.363       30.016        0.015      343.835       20.224      860.533
06/25/2014  01:45:00     -271.431      -69.669      -12.001       97.276       84.244       44.949     9462.671     7097.096     2020.434        4.862        0.929      280.229       35.034        0.016      343.822       20.200      860.524
06/25/2014  01:46:00     -207.286      -25.625      -17.063       91.540       92.777       47.556     8379.638     8607.544     2261.562        3.158        0.962      208.864       35.480        0.029      343.802       20.168      860.514
06/25/2014  01:47:00     -285.812      -57.380      -24.389       94.201       83.894       56.448     8873.821     7038.278     3186.397        5.233        0.955      291.515       56.766        0.038      343.820       20.195      860.520
06/25/2014  01:48:00     -279.303      -45.962       -7.072       92.012       72.997       48.911     8466.199     5328.563     2392.240        4.818        0.809      283.060       50.090        0.031      343.813       20.184      860.513
06/25/2014  01:49:00     -257.278      -59.116       -9.709       79.387       73.045       45.818     6302.314     5335.634     2099.329        4.176        0.687      263.983       44.203        0.028      343.776       20.123      860.513
06/25/2014  01:50:00     -184.171      -40.128        1.132       97.078       76.177       52.405     9424.188     5802.997     2746.319        2.675        0.899      188.492       47.108        0.062      343.753       20.084      860.522
06/25/2014  01:51:00     -182.633      -33.288       -0.556       88.033       64.494       46.976     7749.836     4159.432     2206.775        2.429        0.706      185.642       45.504        0.060      343.723       20.033      860.527
06/25/2014  01:52:00     -194.820      -40.818      -19.726       78.421       70.019       41.039     6149.874     4902.608     1684.210        2.637        0.637      199.050       32.254        0.026      343.751       20.081      860.534
06/25/2014  01:53:00     -148.780      -24.049       -3.437       78.126       60.548       40.780     6103.648     3666.009     1663.003        1.708        0.572      150.711       42.045        0.078      343.676       19.954      860.530
06/25/2014  01:54:00     -196.960      -19.002      -17.428       92.450       66.055       42.197     8546.976     4363.284     1780.608        2.707        0.735      197.874       46.855        0.056      343.763       20.101      860.523
06/25/2014  01:55:00     -203.553      -18.198       -8.815       77.388       60.317       34.319     5988.871     3638.189     1177.797        2.632        0.540      204.365       29.912        0.021      343.737       20.056      860.530
06/25/2014  01:56:00     -170.887      -63.008        4.157       65.851       62.418       37.238     4336.404     3896.020     1386.639        2.140        0.481      182.133       34.811        0.037      343.659       19.924      860.534
06/25/2014  01:57:00     -149.996      -48.888       -2.684       60.031       54.517       25.826     3603.773     2972.135      666.962        1.607        0.362      157.762       26.536        0.028      343.664       19.932      860.552
06/25/2014  01:58:00     -147.594      -50.810        2.348       49.925       55.653       26.442     2492.491     3097.213      699.181        1.533        0.314      156.095       26.022        0.028      343.640       19.892      860.566
06/25/2014  01:59:00     -123.989      -39.136        0.174       65.031       61.809       40.990     4228.978     3820.316     1680.199        1.332        0.486      130.019       36.959        0.081      343.586       19.801      860.578
06/25/2014  02:00:00     -127.805      -47.840       -5.628       63.413       66.027       35.263     4021.247     4359.557     1243.474        1.414        0.481      136.466       36.745        0.073      343.619       19.856      860.576
06/25/2014  02:01:00     -157.251      -48.547       -1.853       89.328       70.391       49.973     7979.500     4954.858     2497.292        2.126        0.772      164.575       44.414        0.073      343.664       19.931      860.564
06/25/2014  02:02:00     -149.747      -40.025        0.217       71.894       48.653       32.862     5168.679     2367.076     1079.923        1.632        0.431      155.004       34.147        0.049      343.622       19.860      860.557
06/25/2014  02:03:00      -93.328       -2.024       -5.976       61.111       39.935       32.478     3734.593     1594.785     1054.823        0.757        0.319       93.350       23.001        0.061      343.693       19.983      860.540
06/25/2014  02:04:00     -146.326      -50.908      -16.695       59.873       53.787       36.172     3584.772     2893.073     1308.391        1.603        0.389      154.929       29.820        0.037      343.728       20.040      860.533
06/25/2014  02:05:00     -143.011      -40.515       -7.119       57.191       45.778       31.335     3270.831     2095.602      981.862        1.425        0.317      148.639       27.816        0.035      343.683       19.966      860.538
06/25/2014  02:06:00      -99.260      -60.748        7.465       89.799       56.236       29.443     8063.851     3162.451      866.881        1.284        0.605      116.374       31.157        0.072      343.577       19.786      860.537
06/25/2014  02:07:00     -110.955      -33.792       -0.152       51.178       45.308       24.425     2619.198     2052.813      596.590        0.936        0.263      115.986       25.494        0.048      343.524       19.695      860.551
06/25/2014  02:08:00      -84.186      -31.640       -2.597       48.959       38.393       25.246     2396.962     1474.023      637.346        0.630        0.225       89.936       27.641        0.094      343.498       19.652      860.553
06/25/2014  02:09:00     -123.083     -102.788        0.631       87.812       57.100       39.533     7710.951     3260.461     1562.846        1.912        0.627      160.358       43.719        0.074      343.455       19.576      860.557
06/25/2014  02:10:00     -114.287      -72.574      -12.642       64.113       52.398       26.389     4110.532     2745.538      696.378        1.302        0.378      135.383       30.564        0.051      343.439       19.550      860.568
06/25/2014  02:11:00     -163.977      -77.789       -8.379       50.905       80.667       30.002     2591.352     6507.095      900.149        2.150        0.500      181.493       25.721        0.020      343.429       19.533      860.569
06/25/2014  02:12:00     -134.587      -25.245       -4.442       46.918       86.407       33.946     2201.282     7466.149     1152.310        1.479        0.541      136.934       32.595        0.057      343.366       19.427      860.555
06/25/2014  02:13:00      -64.415       -4.827      -11.083       48.190       36.850       30.092     2322.276     1357.925      905.538        0.444        0.229       64.595       30.114        0.217      343.355       19.409      860.532
06/25/2014  02:14:00      -55.623      -23.822        8.075       63.117       34.003       23.323     3983.797     1156.221      543.951        0.470        0.284       60.510       33.214        0.301      343.327       19.360      860.516
06/25/2014  02:15:00      -79.340      -37.442        1.923       47.661       49.601       22.718     2271.548     2460.292      516.086        0.647        0.262       87.731       21.044        0.058      343.299       19.313      860.518
06/25/2014  02:16:00      -99.102      -37.512       -0.100       44.059       54.434       27.620     1941.157     2963.113      762.871        0.845        0.283      105.963       23.385        0.049      343.246       19.223      860.520
06/25/2014  02:17:00     -191.650      -68.523      -10.365      102.815       46.378       38.276    10570.976     2150.886     1465.023        2.786        0.709      203.532       40.344        0.039      343.250       19.227      860.512
06/25/2014  02:18:00     -156.729      -21.024      -12.415       86.588       51.995       36.804     7497.519     2703.478     1354.542        1.836        0.578      158.133       43.204        0.075      343.247       19.222      860.502
06/25/2014  02:19:00     -200.954      -85.542      -14.567       77.312       69.581       40.978     5977.123     4841.452     1679.189        3.020        0.625      218.403       41.401        0.036      343.295       19.302      860.488
06/25/2014  02:20:00     -123.940      -31.155      -11.961       57.135       67.142       30.576     3264.416     4508.068      934.885        1.259        0.435      127.795       12.116        0.009      343.310       19.331      860.462
06/25/2014  02:21:00      -69.294      -48.653        5.637       77.307       49.752       36.893     5976.312     2475.293     1361.071        0.850        0.491       84.668       34.853        0.169      343.234       19.201      860.448
06/25/2014  02:22:00     -168.052      -37.074       -2.185       91.686       70.392       46.113     8406.276     4955.016     2126.413        2.255        0.774      172.093       47.756        0.077      343.272       19.265      860.438
06/25/2014  02:23:00     -125.136      -24.708        2.807       91.536       56.234       38.027     8378.782     3162.209     1446.022        1.463        0.649      127.552       43.735        0.118      343.232       19.197      860.424
06/25/2014  02:24:00      -99.922      -41.754        6.400       64.037       50.343       32.893     4100.755     2534.370     1081.954        0.974        0.386      108.295       28.747        0.070      343.211       19.163      860.406
06/25/2014  02:25:00     -160.622      -22.109       -5.385       79.491       82.574       40.530     6318.848     6818.546     1642.721        2.055        0.739      162.137       31.926        0.039      343.268       19.259      860.394
06/25/2014  02:26:00     -155.499      -24.339       -6.016       97.920       64.497       41.771     9588.259     4159.853     1744.839        2.015        0.775      157.392       48.764        0.096      343.221       19.178      860.384
06/25/2014  02:27:00      -81.486      -41.363        9.488       65.443       65.589       44.831     4282.762     4301.863     2009.776        0.952        0.530       91.383       36.165        0.157      343.225       19.186      860.366
06/25/2014  02:28:00     -187.131      -41.756      -21.892       69.498       72.111       37.173     4829.954     5200.023     1381.854        2.432        0.571      191.733       35.012        0.033      343.279       19.276      860.342
06/25/2014  02:29:00     -213.216      -69.601       -0.596       81.570       83.878       48.448     6653.729     7035.574     2347.216        3.317        0.802      224.289       47.859        0.046      343.250       19.225      860.327
06/25/2014  02:30:00     -211.463      -69.360       -9.176      119.550       65.956       46.676    14292.091     4350.195     2178.653        3.521        1.041      222.547       53.768        0.058      343.278       19.273      860.311
06/25/2014  02:31:00     -175.547       -0.164       -3.664      100.759       67.223       41.020    10152.383     4518.946     1682.628        2.359        0.818      175.547       34.204        0.038      343.234       19.201      860.307
06/25/2014  02:32:00     -234.886     -109.836       -8.940      106.520       92.590       50.633    11346.595     8572.849     2563.680        4.490        1.124      259.298       51.947        0.040      343.291       19.295      860.307
06/25/2014  02:33:00     -146.606      -32.828        2.512       81.022       57.562       39.993     6564.531     3313.376     1599.463        1.703        0.574      150.237       44.623        0.088      343.191       19.127      860.300
06/25/2014  02:34:00     -251.745      -75.252       -8.170       67.348       64.675       40.904     4535.755     4182.853     1673.149        3.975        0.520      262.752       33.437        0.016      343.221       19.176      860.299
06/25/2014  02:35:00     -199.951      -49.407      -16.747       61.439       60.695       30.640     3774.778     3683.882      938.808        2.555        0.420      205.965       22.222        0.012      343.219       19.176      860.289
06/25/2014  02:36:00     -229.164      -34.284       -0.896       77.416       64.442       46.999     5993.232     4152.746     2208.891        3.302        0.618      231.714       43.500        0.035      343.217       19.169      860.281
06/25/2014  02:37:00     -235.734      -19.195       -5.655       80.215       71.208       45.953     6434.388     5070.599     2111.673        3.479        0.681      236.514       43.708        0.034      343.250       19.225      860.283
06/25/2014  02:38:00     -171.852      -18.894        3.839       56.568       72.349       32.450     3199.944     5234.365     1052.986        1.969        0.474      172.887       25.880        0.022      343.236       19.203      860.293
06/25/2014  02:39:00     -246.180      -42.930      -17.952       70.830       72.667       41.598     5016.921     5280.548     1730.404        3.740        0.601      249.895       38.542        0.024      343.343       19.384      860.300
06/25/2014  02:40:00     -186.258      -46.509        1.168      116.159       59.031       40.318    13492.908     3484.697     1625.504        2.773        0.930      191.977       38.684        0.041      343.278       19.274      860.306
06/25/2014  02:41:00      -71.487      -39.465        7.518       65.322       31.026       25.418     4267.009      962.622      646.049        0.630        0.294       81.658       30.354        0.138      343.220       19.179      860.313
06/25/2014  02:42:00     -114.592      -22.318       -0.272       52.105       39.863       28.369     2714.941     1589.050      804.788        0.937        0.255      116.745       30.948        0.070      343.214       19.168      860.324
06/25/2014  02:43:00      -53.055      -70.334        5.145       58.060       45.474       28.495     3370.994     2067.925      811.955        0.702        0.313       88.100       31.541        0.128      343.253       19.235      860.349
06/25/2014  02:44:00     -145.316      -13.790      -18.721       62.915       73.635       32.340     3958.248     5422.144     1045.844        1.604        0.521      145.969       29.765        0.042      343.229       19.192      860.361
06/25/2014  02:45:00     -119.440      -43.192       -2.627       58.614       67.434       30.967     3435.652     4547.306      958.980        1.254        0.447      127.010       28.179        0.049      343.175       19.100      860.367
06/25/2014  02:46:00     -105.223      -30.085       -6.617       50.522       41.788       24.377     2552.498     1746.226      594.262        0.846        0.245      109.440       21.082        0.037      343.198       19.140      860.367
06/25/2014  02:47:00      -53.471      -42.628       -3.135      129.113       59.085       46.976    16670.212     3491.074     2206.783        1.352        1.118       68.384       39.365        0.331      343.194       19.133      860.379
06/25/2014  02:48:00      -26.989        6.080       17.413       26.432       25.896       25.723      698.671      670.621      661.657        0.155        0.102       27.666       21.337        0.595      343.118       19.005      860.383
06/25/2014  02:49:00      -33.866        2.741       -4.540       32.483       50.202       27.807     1055.150     2520.248      773.203        0.276        0.217       33.977       14.323        0.178      343.181       19.112      860.383
06/25/2014  02:50:00      -33.586       24.661        4.446       34.926       37.843       18.687     1219.823     1432.115      349.209        0.238        0.150       41.668        9.130        0.048      343.178       19.106      860.391
06/25/2014  02:51:00      -44.245       19.761       -1.828       27.534       18.591       21.184      758.106      345.616      448.770        0.195        0.078       48.458       11.857        0.060      343.214       19.168      860.398
06/25/2014  02:52:00      -66.707       22.145      -10.912       33.349       35.187       17.957     1112.171     1238.151      322.453        0.387        0.134       70.286       19.700        0.079      343.207       19.158      860.413
06/25/2014  02:53:00      -21.185       45.428       -3.966       30.543       22.384       10.783      932.856      501.051      116.281        0.204        0.078       50.125       10.042        0.040      343.046       18.882      860.434
06/25/2014  02:54:00       24.074       15.109       -3.384       21.867       23.107       15.692      478.149      533.912      246.251        0.104        0.063       28.423       12.345        0.189      342.958       18.732      860.451
06/25/2014  02:55:00       46.410       23.266       26.561       45.640       33.450       31.344     2083.029     1118.934      982.471        0.379        0.209       51.915       26.804        0.267      342.887       18.610      860.455
06/25/2014  02:56:00       18.925       30.277       40.059       33.057       30.068       22.309     1092.797      904.101      497.700        0.269        0.125       35.705       14.526        0.166      342.899       18.630      860.445
06/25/2014  02:57:00       73.008       45.231       35.075       27.183       21.740       29.576      738.909      472.629      874.738        0.535        0.104       85.884       19.794        0.053      342.872       18.585      860.443
06/25/2014  02:58:00       47.513       36.046       36.526       38.178       32.830       25.452     1457.537     1077.810      647.800        0.404        0.159       59.639       21.730        0.133      342.719       18.325      860.437
06/25/2014  02:59:00       58.104       30.466       22.184       31.110       23.043       19.098      967.832      530.979      364.748        0.333        0.093       65.607       16.862        0.066      342.717       18.321      860.435
06/25/2014  03:00:00       93.010       48.418       15.080       20.153       16.958       14.183      406.149      287.586      201.151        0.606        0.045      104.858        9.146        0.008      342.923       18.673      860.428
06/25/2014  03:01:00       19.098       22.233       41.034       28.760       44.609       18.023      827.119     1989.995      324.823        0.284        0.157       29.309       19.186        0.429      342.892       18.619      860.410
06/25/2014  03:02:00        2.303      -58.740       -5.721       44.698       29.693       20.827     1997.956      881.653      433.775        0.340        0.166       58.785       10.889        0.034      342.978       18.766      860.408
06/25/2014  03:03:00       10.489      -21.629       -5.675       25.477       24.163       17.722      649.101      583.853      314.072        0.108        0.077       24.038       11.558        0.231      342.963       18.741      860.414
06/25/2014  03:04:00       -3.399      -44.100        4.407       21.672       12.221       12.422      469.673      149.348      154.299        0.137        0.039       44.230        8.807        0.040      343.011       18.822      860.405
06/25/2014  03:05:00       17.057      -20.885       13.448       27.619       36.525       17.390      762.811     1334.092      302.397        0.165        0.120       26.965       15.697        0.339      342.965       18.745      860.393
06/25/2014  03:06:00       77.293       63.566       30.054       20.459       17.821       22.382      418.585      317.596      500.948        0.608        0.062      100.074       12.082        0.015      342.818       18.496      860.386
06/25/2014  03:07:00       58.127       39.051        4.858       18.552       17.131       15.330      344.184      293.460      234.997        0.290        0.044       70.026        7.583        0.012      342.709       18.309      860.387
06/25/2014  03:08:00       18.375      -20.484       12.607       16.928       21.859       14.859      286.546      477.800      220.801        0.095        0.049       27.518       11.881        0.186      342.809       18.478      860.398
06/25/2014  03:09:00       -3.991      -12.474        8.999       17.257       16.439       13.194      297.820      270.231      174.089        0.050        0.037       13.097        9.698        0.548      342.914       18.656      860.405
06/25/2014  03:10:00        8.175        4.966       17.996       30.910       25.537       32.015      955.444      652.143     1024.987        0.152        0.132        9.565       25.737        7.240      342.863       18.570      860.408
06/25/2014  03:11:00       17.895       36.776       35.289       19.182       22.888       14.044      367.960      523.865      197.224        0.200        0.054       40.899        8.439        0.043      342.791       18.448      860.408
06/25/2014  03:12:00       27.114       38.778      -11.296       13.805       20.125       10.239      190.575      405.012      104.840        0.153        0.035       47.317        4.798        0.010      342.758       18.390      860.413
06/25/2014  03:13:00       35.150       14.244        1.214       15.931       10.890       12.482      253.784      118.600      155.811        0.098        0.026       37.926        7.759        0.042      342.633       18.179      860.408
06/25/2014  03:14:00       26.895       16.688       -1.208       24.393        8.468        6.518      595.032       71.713       42.483        0.086        0.035       31.652        8.774        0.077      342.637       18.186      860.411
06/25/2014  03:15:00      -52.258       22.011       -8.868       22.473        9.236        8.485      505.040       85.299       72.002        0.198        0.033       56.705        8.250        0.021      342.587       18.103      860.446
06/25/2014  03:16:00      -28.723       34.675       -9.544       16.018       12.432        4.735      256.586      154.548       22.421        0.128        0.022       45.026        5.469        0.015      342.623       18.162      860.455
06/25/2014  03:17:00      -10.917       46.383       -4.024       12.310       10.171        8.578      151.526      103.444       73.589        0.131        0.016       47.650        3.222        0.005      342.735       18.351      860.461
06/25/2014  03:18:00        2.528       68.635      -14.189       17.538       21.672       11.559      307.575      469.673      133.611        0.291        0.046       68.681       10.754        0.025      342.758       18.391      860.467
06/25/2014  03:19:00      -45.167       32.314       -8.407       22.946       10.430        9.511      526.532      108.791       90.453        0.194        0.036       55.536        8.030        0.021      342.823       18.504      860.475
06/25/2014  03:20:00      -61.382       50.611      -12.861       10.566       18.629       10.112      111.647      347.051      102.246        0.353        0.028       79.556       10.676        0.018      342.790       18.447      860.481
06/25/2014  03:21:00      -54.684       70.097      -15.694       18.600       18.003       10.471      345.975      324.108      109.636        0.446        0.039       88.904        9.752        0.012      342.746       18.371      860.484
06/25/2014  03:22:00        4.423       48.973        0.843       21.667       33.242       14.109      469.457     1105.005      199.076        0.210        0.089       49.172        6.197        0.016      342.872       18.583      860.461
06/25/2014  03:23:00        1.041       76.190      -14.419       12.076       29.931        7.767      145.818      895.839       60.322        0.356        0.055       76.197        5.334        0.005      342.843       18.536      860.461
06/25/2014  03:24:00       -3.685       17.450       -6.271       11.996       21.249        9.682      143.907      451.526       93.734        0.052        0.034       17.835        7.613        0.182      342.786       18.437      860.469
06/25/2014  03:25:00      -82.611      -30.807      -15.333       41.349       22.407       14.432     1709.743      502.092      208.294        0.521        0.121       88.168       13.039        0.022      342.759       18.395      860.498
06/25/2014  03:26:00      -44.824      -12.987       -3.369       43.588       18.356       12.767     1899.915      336.951      162.988        0.229        0.120       46.668       17.158        0.135      342.637       18.186      860.512
06/25/2014  03:27:00       15.745       17.323       10.290       14.421       14.955        8.788      207.973      223.641       77.233        0.058        0.025       23.410        7.970        0.116      342.567       18.064      860.499
06/25/2014  03:28:00       21.473       27.554        3.962       22.302        8.561        8.166      497.374       73.295       66.678        0.094        0.032       34.933        9.078        0.068      342.628       18.170      860.505
06/25/2014  03:29:00        5.292       46.042       -9.016       14.585       15.861       11.899      212.727      251.586      141.578        0.142        0.030       46.346       10.215        0.049      342.642       18.195      860.510
06/25/2014  03:30:00       21.915       62.778       -6.762       17.437       27.222       14.179      304.052      741.040      201.051        0.286        0.062       66.493       12.472        0.035      342.619       18.157      860.493
06/25/2014  03:31:00       -7.568       48.418       -9.885       29.472       25.299       13.924      868.584      640.056      193.881        0.210        0.085       49.006       12.595        0.066      342.600       18.123      860.477
06/25/2014  03:32:00      -76.532       58.600      -14.843       20.513       32.041       15.268      420.777     1026.645      233.116        0.560        0.084       96.390       14.769        0.023      342.588       18.103      860.482
06/25/2014  03:33:00      -38.085      -25.465       -4.367       16.251       22.411       11.103      264.101      502.254      123.273        0.150        0.044       45.814        9.463        0.043      342.612       18.142      860.474
06/25/2014  03:34:00      -19.565      -30.851       -2.318       18.418       13.571        9.815      339.225      184.184       96.344        0.098        0.031       36.532        7.086        0.038      342.732       18.345      860.477
06/25/2014  03:35:00      -93.104      -39.139       -0.165       55.032       20.482       19.597     3028.518      419.517      384.038        0.702        0.192      100.996       23.748        0.055      342.689       18.273      860.507
06/25/2014  03:36:00     -137.189      -57.743      -10.960       42.751       50.419       25.148     1827.682     2542.050      632.445        1.364        0.250      148.846       29.331        0.039      342.739       18.360      860.536
06/25/2014  03:37:00      -14.257      -91.732        3.406       28.973       19.858       17.684      839.452      394.328      312.740        0.509        0.077       92.834        9.827        0.011      342.709       18.308      860.540
06/25/2014  03:38:00       -3.215      -60.654        5.238       46.276       32.958       21.958     2141.436     1086.244      482.138        0.371        0.185       60.740       12.746        0.044      342.860       18.566      860.546
06/25/2014  03:39:00       37.581      -81.852       12.542       34.146       40.464       31.771     1165.956     1637.340     1009.428        0.604        0.191       90.066       17.250        0.037      342.894       18.623      860.540
06/25/2014  03:40:00      -93.429      -51.096        5.226       75.042       55.441       34.620     5631.360     3073.718     1198.520        1.063        0.495      106.488       32.087        0.091      342.830       18.515      860.580
06/25/2014  03:41:00     -115.637      -84.344        3.731       89.771       50.388       29.600     8058.899     2538.927      876.140        1.598        0.574      143.129       31.388        0.048      342.817       18.491      860.592
06/25/2014  03:42:00     -189.418     -116.646       -9.882       76.003       63.672       35.210     5776.470     4054.074     1239.729        3.032        0.554      222.453       35.089        0.025      343.104       18.978      860.591
06/25/2014  03:43:00     -209.845      -25.634      -11.325      141.815      107.762       49.074    20111.616    11612.622     2408.276        3.947        1.707      211.404       61.697        0.085      343.051       18.887      860.590
06/25/2014  03:44:00      -47.411       14.987       10.329       52.088       34.943       20.654     2713.119     1220.998      426.570        0.347        0.218       49.724       21.550        0.188      342.885       18.608      860.579
06/25/2014  03:45:00     -192.373      -88.429        0.482       72.969       82.072       45.764     5324.447     6735.752     2094.378        2.949        0.708      211.724       37.457        0.031      343.163       19.079      860.574
06/25/2014  03:46:00     -167.351      -75.313       -4.551       85.683       73.253       44.709     7341.640     5366.060     1998.879        2.420        0.735      183.517       47.622        0.067      343.056       18.897      860.575
06/25/2014  03:47:00     -181.143      -66.163       -1.205      134.508       77.575       39.460    18092.321     6017.806     1557.091        3.143        1.283      192.848       37.882        0.039      343.066       18.916      860.576
06/25/2014  03:48:00     -240.562      -31.612       -4.677       94.388       75.284       54.339     8909.086     5667.691     2952.717        3.821        0.876      242.630       53.541        0.049      343.135       19.029      860.565
06/25/2014  03:49:00      -95.155      -68.237       11.608       88.426       70.324       44.425     7819.097     4945.427     1973.548        1.429        0.737      117.093       43.021        0.135      343.136       19.035      860.546
06/25/2014  03:50:00      -49.303      -39.273       22.867      111.535       81.941       55.297    12440.117     6714.269     3057.805        1.335        1.111       63.032       62.135        0.972      343.042       18.875      860.542
06/25/2014  03:51:00     -124.854      -98.597       22.021      122.376      110.413       65.636    14975.941    12190.929     4308.074        2.863        1.574      159.091       65.565        0.170      343.126       19.015      860.551
06/25/2014  03:52:00     -205.654      -83.790      -19.342       73.029       90.118       44.383     5333.286     8121.193     1969.872        3.255        0.771      222.068       29.728        0.018      343.216       19.168      860.545
06/25/2014  03:53:00     -145.197      -85.634       -7.938       94.785       64.818       46.106     8984.106     4201.355     2125.769        2.189        0.766      168.569       31.146        0.034      343.217       19.171      860.544
06/25/2014  03:54:00      -73.916      -38.685        6.527       58.001       74.533       42.827     3364.167     5555.179     1834.156        0.888        0.538       83.427       35.556        0.182      343.156       19.069      860.542
06/25/2014  03:55:00     -101.328      -49.028        0.995      116.042       62.466       48.941    13465.837     3902.014     2395.212        1.621        0.988      112.566       55.691        0.245      343.225       19.185      860.543
06/25/2014  03:56:00      -50.131      -39.346       23.594      108.288       78.823       56.203    11726.278     6213.126     3158.831        1.285        1.055       63.728       45.662        0.513      343.191       19.127      860.540
06/25/2014  03:57:00     -152.205     -154.234        1.224      142.561       92.785       69.392    20323.564     8609.095     4815.199        4.035        1.687      216.689       68.232        0.099      343.269       19.259      860.537
06/25/2014  03:58:00     -299.861      -81.487       -8.433      109.673      108.130       61.635    12028.156    11692.095     3798.873        6.207        1.376      310.736       66.259        0.045      343.248       19.222      860.534
06/25/2014  03:59:00     -149.665      -48.076        5.154       99.932       73.153       48.665     9986.494     5351.360     2368.263        2.122        0.885      157.198       53.693        0.117      343.259       19.244      860.527
06/25/2014  04:00:00     -110.321      -51.470       10.180       96.060       66.070       47.284     9227.446     4365.256     2235.754        1.537        0.791      121.737       45.811        0.142      343.264       19.252      860.518
06/25/2014  04:01:00     -132.960     -101.534        3.154       62.289       84.562       34.304     3879.945     7150.685     1176.777        2.010        0.610      167.295       32.268        0.037      343.267       19.256      860.512
06/25/2014  04:02:00     -192.437      -39.002       -5.261       99.511       72.792       48.661     9902.412     5298.613     2367.893        2.807        0.878      196.349       49.718        0.064      343.246       19.219      860.499
06/25/2014  04:03:00     -105.327      -61.002        5.836      100.433       75.978       42.635    10086.775     5772.725     1817.727        1.626        0.884      121.717       43.268        0.126      343.204       19.149      860.494
06/25/2014  04:04:00     -123.848      -71.284       12.528      107.021       85.663       52.750    11453.435     7338.139     2782.591        2.107        1.079      142.898       59.544        0.174      343.199       19.141      860.487
06/25/2014  04:05:00     -136.405      -83.583      -11.600       85.713       79.748       48.114     7346.764     6359.675     2314.995        2.087        0.801      159.976       40.529        0.064      343.204       19.148      860.503
06/25/2014  04:06:00     -113.429      -67.038       -1.023       81.298       53.697       40.146     6609.439     2883.416     1611.690        1.423        0.555      131.758       34.658        0.069      343.231       19.197      860.511
06/25/2014  04:07:00      -76.031      -66.931       -0.899       75.054       49.158       31.587     5633.166     2416.555      997.729        0.965        0.452      101.294       33.361        0.108      343.223       19.182      860.522
06/25/2014  04:08:00     -104.201      -52.951       -2.689       52.972       49.137       26.515     2806.038     2414.442      703.020        0.980        0.296      116.883       27.528        0.055      343.229       19.194      860.525
06/25/2014  04:09:00      -48.298       -4.422       -5.710       42.545       40.681       18.196     1810.074     1654.940      331.112        0.309        0.190       48.500        9.772        0.041      343.170       19.093      860.524
06/25/2014  04:10:00      -54.116      -14.886       25.324       84.598       32.967       26.077     7156.863     1086.829      680.036        0.636        0.446       56.126       28.934        0.266      343.079       18.938      860.515
06/25/2014  04:11:00       42.836      -14.311       19.514       42.227       36.750       29.973     1783.134     1350.587      898.360        0.323        0.202       45.164       27.092        0.360      342.429       17.832      860.516
06/25/2014  04:12:00      -34.948      -26.883       -5.115       36.676       37.413       23.710     1345.107     1399.742      562.166        0.264        0.165       44.091       16.236        0.136      342.976       18.763      860.531
06/25/2014  04:13:00     -107.289      -33.355      -15.514       43.717       27.598       18.045     1911.139      761.675      325.605        0.793        0.150      112.354       19.687        0.031      343.171       19.095      860.544
06/25/2014  04:14:00      -28.492      -59.054        1.572       39.966       39.593       16.494     1597.276     1567.617      272.064        0.387        0.172       65.568       15.691        0.057      343.019       18.836      860.556
06/25/2014  04:15:00       49.958       33.927      -18.789       43.593       47.339       27.977     1900.327     2241.003      782.712        0.446        0.246       60.390       25.379        0.177      342.844       18.539      860.573
06/25/2014  04:16:00      130.390       36.957       25.205       36.076       62.562       41.085     1301.482     3913.946     1687.945        1.295        0.345      135.526        8.619        0.004      342.758       18.392      860.571
06/25/2014  04:17:00       39.470       56.925       -5.755       64.858       37.047       29.635     4206.614     1372.461      878.262        0.564        0.323       69.270       16.601        0.057      342.637       18.187      860.572
06/25/2014  04:18:00      104.656       71.221       25.635       34.716       26.273       30.600     1205.212      690.275      936.369        0.976        0.142      126.591       17.065        0.018      342.275       17.571      860.579
06/25/2014  04:19:00       97.964       58.983       29.172       55.694       36.129       25.031     3101.805     1305.319      626.526        0.948        0.252      114.350        4.729        0.002      342.247       17.523      860.593
06/25/2014  04:20:00       54.425       47.526        9.905       38.331       23.846       25.312     1469.292      568.655      640.687        0.400        0.134       72.255        7.218        0.010      342.132       17.328      860.612
06/25/2014  04:21:00       43.730       52.993       18.221       41.064       29.042       22.663     1686.217      843.423      513.627        0.405        0.152       68.707       14.757        0.046      342.156       17.368      860.612
06/25/2014  04:22:00       65.821       64.322       11.894       36.048       38.572       31.015     1299.447     1487.781      961.927        0.618        0.187       92.031       25.128        0.075      342.171       17.394      860.607
06/25/2014  04:23:00       60.535       38.307        3.038       38.013       33.726       18.566     1444.954     1137.425      344.680        0.403        0.146       71.637       13.542        0.036      342.141       17.343      860.616
06/25/2014  04:24:00       22.030       22.233        5.150       26.130       17.568       19.361      682.752      308.625      374.864        0.119        0.068       31.299       12.283        0.154      342.088       17.251      860.633
06/25/2014  04:25:00       53.350       66.543        6.510       49.810       32.224       24.391     2481.002     1038.372      594.945        0.571        0.206       85.288       26.339        0.095      342.059       17.204      860.660
06/25/2014  04:26:00      120.544       74.090       24.529       47.956       39.667       21.726     2299.815     1573.432      472.014        1.248        0.217      141.492       18.351        0.017      342.028       17.150      860.660
06/25/2014  04:27:00       92.802       42.156        2.389       33.295       30.161       23.482     1108.568      909.715      551.396        0.648        0.128      101.928       22.155        0.047      342.012       17.124      860.660
06/25/2014  04:28:00       88.100       58.239       11.163       29.046       23.324       16.686      843.686      544.008      278.427        0.647        0.083      105.609       14.494        0.019      341.976       17.062      860.667
06/25/2014  04:29:00       87.313       56.281       14.213       40.822       26.742       28.604     1666.418      715.160      818.180        0.710        0.160      103.880        9.282        0.008      341.950       17.019      860.674
06/25/2014  04:30:00       99.380       59.962       12.613       40.854       30.967       27.291     1669.019      958.938      744.821        0.850        0.169      116.068       16.133        0.019      341.957       17.030      860.676
06/25/2014  04:31:00      125.627       70.295        8.134       42.330       30.857       28.176     1791.860      952.148      793.863        1.216        0.177      143.957       21.171        0.022      341.936       16.996      860.671
06/25/2014  04:32:00      138.228       63.938       17.074       44.741       36.198       28.556     2001.735     1310.289      815.434        1.381        0.206      152.299       13.327        0.008      341.880       16.900      860.659
06/25/2014  04:33:00      101.900       68.146       13.899       42.797       26.993       26.117     1831.598      728.637      682.103        0.923        0.162      122.587       21.149        0.030      341.812       16.785      860.677
06/25/2014  04:34:00      116.331       65.549       34.900       19.804       17.671       17.945      392.198      312.281      322.016        1.004        0.051      133.527        9.517        0.005      341.845       16.842      860.698
06/25/2014  04:35:00      126.374       75.966       33.088       29.962       24.672       26.920      897.724      608.696      724.670        1.253        0.112      147.449       15.462        0.011      341.786       16.741      860.702
06/25/2014  04:36:00      136.017       63.870       31.650       46.278       38.558       34.895     2141.649     1486.721     1217.683        1.421        0.242      150.267       22.591        0.023      341.799       16.763      860.699
06/25/2014  04:37:00       69.827       59.121       47.210       59.852       44.528       26.971     3582.299     1982.763      727.442        0.845        0.315       91.494       17.312        0.036      341.738       16.659      860.691
06/25/2014  04:38:00      -19.974       19.832       41.213       44.822       37.150       31.682     2009.004     1380.123     1003.747        0.344        0.220       28.147       34.373        1.491      341.689       16.575      860.707
06/25/2014  04:39:00      -23.702      -48.247       -5.672       37.367       37.791       26.354     1396.329     1428.152      694.534        0.322        0.176       53.755       14.989        0.078      341.647       16.505      860.720
06/25/2014  04:40:00       58.439       58.438       41.756       40.700       35.588       31.230     1656.508     1266.521      975.300        0.624        0.195       82.644       27.579        0.111      341.611       16.442      860.727
06/25/2014  04:41:00      155.448       70.181       28.374       41.561       35.500       28.174     1727.276     1260.269      793.802        1.684        0.189      170.557       16.225        0.009      341.780       16.731      860.706
06/25/2014  04:42:00      153.719       79.165       18.825       42.708       37.018       29.117     1823.973     1370.310      847.816        1.715        0.202      172.907       13.338        0.006      341.729       16.644      860.685
06/25/2014  04:43:00      132.310       74.190        6.779       32.159       31.832       28.750     1034.179     1013.257      826.562        1.296        0.144      151.691       21.171        0.019      341.710       16.612      860.675
06/25/2014  04:44:00       51.201       16.397       10.489       42.467       35.553       26.370     1803.487     1263.989      695.387        0.338        0.188       53.763       26.857        0.250      341.638       16.490      860.689
06/25/2014  04:45:00       34.697       49.968        5.596       31.968       25.104       23.496     1021.935      630.190      552.056        0.297        0.110       60.833       18.364        0.091      341.616       16.453      860.719
06/25/2014  04:46:00       59.726       65.546       15.752       40.409       18.963       19.799     1632.905      359.609      391.987        0.525        0.119       88.676       16.125        0.033      341.721       16.630      860.736
06/25/2014  04:47:00      138.501       96.612       21.297       46.078       34.658       36.555     2123.150     1201.200     1336.292        1.681        0.233      168.868       22.648        0.018      341.900       16.932      860.701
06/25/2014  04:48:00      155.207      115.456       49.972       84.093       54.932       57.393     7071.576     3017.569     3294.011        2.665        0.669      193.441       44.422        0.053      341.835       16.819      860.651
06/25/2014  04:49:00      -30.915       -6.539       32.944       39.598       67.410       47.205     1567.976     4544.088     2228.345        0.521        0.417       31.599       47.702        2.279      341.720       16.628      860.647
06/25/2014  04:50:00      -34.908      -40.351       -9.819       43.160       29.993       23.494     1862.744      899.608      551.955        0.313        0.166       53.355       12.229        0.053      341.858       16.863      860.672
06/25/2014  04:51:00       41.308       -4.179        5.826       25.541       43.340       19.353      652.340     1878.334      374.550        0.233        0.145       41.519       16.450        0.157      341.810       16.781      860.694
06/25/2014  04:52:00       24.782        7.761       12.036       23.395       18.250       16.794      547.316      333.078      282.042        0.099        0.058       25.969       12.731        0.240      341.692       16.580      860.704
06/25/2014  04:53:00        5.304      -27.947      -13.014       23.135       18.247       17.156      535.225      332.961      294.339        0.107        0.058       28.446       13.512        0.226      341.658       16.524      860.721
06/25/2014  04:54:00       -0.196        3.030        6.228       15.099       13.175       13.739      227.966      173.578      188.757        0.032        0.030        3.036       11.624       14.656      341.717       16.624      860.759
06/25/2014  04:55:00       -4.466       -8.687       -1.598        9.661       14.891        9.918       93.329      221.729       98.370        0.026        0.021        9.768        8.377        0.736      341.926       16.979      860.800
06/25/2014  04:56:00        6.794      -10.955        6.736       27.463       23.925       19.600      754.202      572.401      384.164        0.096        0.086       12.891       14.298        1.230      341.956       17.028      860.813
06/25/2014  04:57:00       40.795       24.579       56.237       48.903       51.536       42.545     2391.545     2656.008     1810.036        0.614        0.343       47.628       37.612        0.624      341.780       16.731      860.784
06/25/2014  04:58:00       36.511      119.813      137.259       68.407       60.534       39.930     4679.487     3664.341     1594.375        2.223        0.497      125.252       31.327        0.063      341.835       16.822      860.699
06/25/2014  04:59:00       24.425       45.275       55.495       54.108       66.830       67.219     2927.686     4466.232     4518.397        0.882        0.596       51.443       58.588        1.297      341.817       16.793      860.692
06/25/2014  05:00:00       72.019       10.677       17.081       47.844       32.307       34.299     2289.093     1043.766     1176.394        0.505        0.225       72.806       14.545        0.040      341.790       16.748      860.727
06/25/2014  05:01:00       21.660       15.657       41.770       38.549       50.155       43.147     1486.030     2515.543     1861.666        0.416        0.293       26.726       32.331        1.463      341.637       16.487      860.708
06/25/2014  05:02:00       -5.988       -7.398       29.174       21.648       34.388       29.541      468.621     1182.567      872.672        0.173        0.126        9.518       16.601        3.042      341.681       16.563      860.711
06/25/2014  05:03:00      -10.161      -67.080       -7.795       22.431       29.185       23.010      503.154      851.756      529.476        0.327        0.094       67.845       11.864        0.031      342.055       17.197      860.731
06/25/2014  05:04:00      -72.655       -6.775      -12.265       38.337       17.642       19.249     1469.746      311.231      370.527        0.381        0.108       72.970       16.246        0.050      342.046       17.183      860.744
06/25/2014  05:05:00      -44.674       -1.644       -7.078       18.255       12.613        7.179      333.262      159.098       51.535        0.130        0.027       44.705        7.902        0.031      342.057       17.200      860.718
06/25/2014  05:06:00      -47.158      -18.428      -13.060       20.053       11.359        8.750      402.134      129.020       76.557        0.167        0.030       50.631        7.577        0.022      342.153       17.363      860.693
06/25/2014  05:07:00      -78.616      -35.953        1.857       18.265       20.445       12.909      333.596      417.988      166.640        0.420        0.046       86.447        9.683        0.013      342.141       17.343      860.715
06/25/2014  05:08:00       -0.168      -15.220        2.591       31.198       20.620       11.282      973.313      425.178      127.285        0.088        0.076       15.221        7.653        0.253      342.060       17.205      860.722
06/25/2014  05:09:00       35.486        6.528       19.370       18.298       25.046       17.278      334.832      627.318      298.514        0.147        0.063       36.081       12.372        0.118      341.890       16.916      860.707
06/25/2014  05:10:00       44.161       25.987        2.849       30.683       22.999       16.056      941.425      528.950      257.799        0.218        0.086       51.239       11.655        0.052      341.811       16.784      860.693
06/25/2014  05:11:00       44.808        5.775       18.157       48.924       53.972       34.769     2393.527     2913.027     1208.861        0.444        0.326       45.178       33.300        0.543      341.657       16.521      860.696
06/25/2014  05:12:00      142.193      131.047       81.310       56.679       51.991       43.734     3212.487     2703.072     1912.679        2.591        0.391      193.371       32.200        0.028      341.976       17.060      860.663
06/25/2014  05:13:00       80.483       78.227       69.406       65.768       35.351       40.374     4325.407     1249.661     1630.069        1.231        0.360      112.236       38.728        0.119      341.819       16.797      860.690
06/25/2014  05:14:00       80.392       53.833       39.420       37.856       34.211       28.209     1433.071     1170.359      795.767        0.716        0.170       96.752       17.296        0.032      341.684       16.567      860.741
06/25/2014  05:15:00       21.951       -2.516       22.720       27.965       27.765       23.130      782.062      770.915      534.998        0.155        0.104       22.095       18.519        0.703      341.628       16.474      860.773
06/25/2014  05:16:00        4.504      -45.766       -3.470       28.104       15.900       14.881      789.842      252.814      221.450        0.170        0.063       45.987        9.301        0.041      341.526       16.300      860.804
06/25/2014  05:17:00       30.219      -49.917       16.327       30.817       50.225       21.837      949.673     2522.507      476.845        0.381        0.197       58.352       26.168        0.201      341.807       16.779      860.834
06/25/2014  05:18:00      -33.120        2.638        0.136       26.072       15.542       20.275      679.746      241.558      411.072        0.122        0.067       33.225       16.673        0.252      341.783       16.735      860.840
06/25/2014  05:19:00       16.244        8.432       23.919       24.966       35.134       28.876      623.307     1234.401      833.850        0.180        0.135       18.303       25.060        1.875      341.563       16.360      860.816
06/25/2014  05:20:00        1.285       11.294       19.563       27.290       23.218       18.461      744.750      539.062      340.804        0.107        0.081       11.367       12.057        1.125      341.398       16.083      860.789
06/25/2014  05:21:00      -26.370       -9.522       17.965       24.080       52.873       26.140      579.831     2795.506      683.286        0.258        0.203       28.036       16.325        0.339      341.334       15.975      860.798
06/25/2014  05:22:00       -2.784      -11.794        5.423       12.726       21.992       12.527      161.962      483.668      156.932        0.049        0.040       12.118        5.009        0.171      341.458       16.183      860.832
06/25/2014  05:23:00       11.127       33.721       -8.093       18.423       16.800        9.812      339.424      282.230       96.269        0.102        0.036       35.509        6.581        0.034      341.656       16.520      860.845
06/25/2014  05:24:00      -18.659       27.293       -8.034       15.927       13.078        6.308      253.669      171.028       39.785        0.081        0.023       33.062        6.805        0.042      341.690       16.577      860.841
06/25/2014  05:25:00       38.591       22.037        6.254       12.353        6.932        7.940      152.607       48.057       63.041        0.114        0.013       44.440        5.499        0.015      341.848       16.845      860.821
06/25/2014  05:26:00       36.791       13.429        5.495       18.820       17.073       11.382      354.181      291.497      129.545        0.117        0.039       39.166        6.792        0.030      341.734       16.652      860.812
06/25/2014  05:27:00      -22.072       19.396       -6.075       17.393       16.094        8.393      302.515      259.031       70.442        0.077        0.032       29.383        8.642        0.087      341.826       16.807      860.825
06/25/2014  05:28:00      -56.761        3.999       -8.194       11.429       14.613        8.925      130.630      213.541       79.655        0.186        0.021       56.901        5.020        0.008      341.689       16.576      860.835
06/25/2014  05:29:00       -7.100        0.052       -0.987       31.997        4.903        8.950     1023.816       24.038       80.102        0.059        0.056        7.100       14.805        4.348      341.673       16.549      860.834
06/25/2014  05:30:00       56.629       11.155        8.776       31.054       28.909       20.129      964.322      835.750      405.181        0.281        0.110       57.717       17.316        0.090      341.704       16.603      860.811
06/25/2014  05:31:00       89.111       52.673       19.525       27.730       23.746       28.679      768.929      563.852      822.497        0.663        0.108      103.514       10.589        0.010      341.692       16.580      860.773
06/25/2014  05:32:00       87.966       88.243       60.221       46.185       29.887       29.067     2133.013      893.234      844.878        1.151        0.194      124.598       24.723        0.039      341.765       16.706      860.744
06/25/2014  05:33:00      132.593       70.801       25.995       32.043       24.486       25.048     1026.764      599.551      627.402        1.276        0.113      150.312        9.568        0.004      341.715       16.621      860.732
06/25/2014  05:34:00       32.211       42.960        3.179       48.145       29.391       17.563     2317.908      863.805      308.445        0.319        0.175       53.695       14.462        0.073      341.477       16.218      860.741
06/25/2014  05:35:00       18.450       36.274        3.164       20.445       31.400       20.162      417.988      985.936      406.516        0.174        0.091       40.696       19.736        0.235      341.359       16.016      860.753
06/25/2014  05:36:00       45.553       30.686       13.278       17.143       20.223       17.454      293.892      408.985      304.656        0.210        0.050       54.925       12.199        0.049      341.436       16.146      860.766
06/25/2014  05:37:00       32.378       28.060       17.471       25.149       23.569       16.351      632.463      555.496      267.354        0.180        0.073       42.845       11.464        0.072      341.440       16.155      860.761
06/25/2014  05:38:00       53.737       36.270       18.633       22.840       17.594       16.015      521.644      309.545      256.496        0.282        0.054       64.832        8.685        0.018      341.383       16.059      860.758
06/25/2014  05:39:00       18.288       21.172       36.405       29.635       24.517       17.710      878.245      601.106      313.632        0.195        0.090       27.977       15.670        0.314      341.319       15.950      860.766
06/25/2014  05:40:00       15.606       -2.502       22.164       24.832       25.659       17.977      616.615      658.362      323.186        0.117        0.080       15.805       12.389        0.614      341.260       15.849      860.764
06/25/2014  05:41:00        2.735      -14.013       13.734        7.936       21.623       10.023       62.986      467.550      100.455        0.051        0.032       14.277        9.910        0.482      341.070       15.528      860.763
06/25/2014  05:42:00       35.409       37.263        9.967       25.143       21.951       19.415      632.184      481.859      376.934        0.212        0.075       51.404       11.447        0.050      341.293       15.904      860.761
06/25/2014  05:43:00       59.522       56.404        2.115       18.299       17.860       25.987      334.869      318.974      675.305        0.403        0.066       82.002       14.023        0.029      341.450       16.172      860.753
06/25/2014  05:44:00       62.183       49.912        2.703       22.237       20.039       20.091      494.495      401.567      403.653        0.383        0.065       79.736       10.474        0.017      341.431       16.139      860.759
06/25/2014  05:45:00       39.019       23.384        1.673       23.415       14.716       10.135      548.253      216.572      102.712        0.147        0.043       45.489        8.394        0.034      341.485       16.228      860.780
06/25/2014  05:46:00       16.284       11.094        5.684       13.257       13.713        8.423      175.753      188.052       70.952        0.043        0.022       19.704        9.178        0.217      341.463       16.191      860.799
06/25/2014  05:47:00        0.003       23.457       -5.589        5.072        7.511        5.177       25.722       56.409       26.803        0.035        0.005       23.457        4.458        0.036      341.549       16.340      860.807
06/25/2014  05:48:00      -15.573        6.727       -3.560       12.880        9.570        8.275      165.904       91.591       68.472        0.031        0.016       16.964        8.398        0.245      341.536       16.314      860.802
06/25/2014  05:49:00      -21.583       -4.357       -3.355        5.390        3.978        5.412       29.048       15.828       29.292        0.029        0.004       22.018        2.449        0.012      341.481       16.221      860.791
06/25/2014  05:50:00       -7.865       -2.156       -5.149        7.047        4.123        3.880       49.666       17.000       15.056        0.009        0.004        8.155        1.593        0.038      341.465       16.196      860.791
06/25/2014  05:51:00       -9.872       18.165       -1.988       11.964       17.901        5.279      143.135      320.458       27.864        0.046        0.025       20.674        4.922        0.057      341.577       16.387      860.781
06/25/2014  05:52:00      -24.476       18.954       -5.755       15.525       14.133       10.369      241.032      199.753      107.519        0.077        0.027       30.957        7.203        0.054      341.509       16.269      860.789
06/25/2014  05:53:00      -27.315       14.442       -0.592       13.006       11.470        7.625      169.157      131.566       58.135        0.066        0.018       30.898        5.659        0.034      341.566       16.366      860.794
06/25/2014  05:54:00        0.756       37.616       -6.514       16.696       15.042       10.510      278.748      226.270      110.469        0.104        0.031       37.624        7.433        0.039      341.661       16.527      860.794
06/25/2014  05:55:00        6.922       71.975      -12.182       20.544       21.389       12.041      422.041      457.482      144.981        0.320        0.051       72.307       11.286        0.024      341.721       16.629      860.794
06/25/2014  05:56:00        3.062       52.399       -6.808       13.058       15.217       10.652      170.504      231.569      113.464        0.166        0.026       52.489        6.481        0.015      341.760       16.696      860.788
06/25/2014  05:57:00        9.505       48.866       -3.067       19.733       21.296       12.062      389.389      453.523      145.495        0.174        0.049       49.782       11.779        0.056      341.761       16.697      860.799
06/25/2014  05:58:00        4.701       22.040        0.930        7.184       11.687        6.277       51.611      136.576       39.399        0.037        0.011       22.535        5.816        0.067      341.812       16.787      860.816
06/25/2014  05:59:00        5.135       -4.428        7.266        7.659       11.391        8.427       58.658      129.754       71.009        0.018        0.013        6.780        7.419        1.197      341.698       16.592      860.831
06/25/2014  06:00:00      -56.468      -20.473       -0.695       22.947       16.890       10.125      526.550      285.280      102.513        0.226        0.046       60.064       10.738        0.032      341.762       16.699      860.843
06/25/2014  06:01:00      -97.549        0.728      -12.809       16.599       16.598       12.209      275.523      275.508      149.057        0.519        0.035       97.551        7.263        0.006      341.573       16.380      860.863
06/25/2014  06:02:00      -67.600        2.468       -2.788       31.464       21.965       21.078      989.996      482.483      444.299        0.325        0.096       67.645       22.142        0.107      341.634       16.483      860.866
06/25/2014  06:03:00      -48.602      -10.092       -5.242       33.233       21.262       15.814     1104.431      452.063      250.081        0.215        0.090       49.639       15.227        0.094      341.727       16.641      860.868
06/25/2014  06:04:00      -11.159       -3.400       -3.774       14.744       29.584       14.074      217.389      875.236      198.071        0.072        0.065       11.666       11.548        0.980      341.786       16.740      860.860
06/25/2014  06:05:00       -7.972      -22.080       11.961       17.411       21.670       14.216      303.137      469.593      202.098        0.083        0.049       23.475       10.179        0.188      341.774       16.720      860.858
06/25/2014  06:06:00      -29.980      -25.496        3.372       36.104       15.239       14.706     1303.482      232.229      216.268        0.166        0.088       39.355       16.113        0.168      341.709       16.610      860.864
06/25/2014  06:07:00      -67.942      -40.261       -3.206       28.493       14.149       12.102      811.834      200.195      146.451        0.370        0.058       78.975       11.215        0.020      341.706       16.605      860.886
06/25/2014  06:08:00      -60.702      -46.461        1.923       31.033       18.982       15.668      963.026      360.317      245.479        0.371        0.078       76.441       15.153        0.039      341.659       16.526      860.913
06/25/2014  06:09:00      -60.804      -47.197        2.013       38.323       18.344       18.643     1468.655      336.511      347.563        0.404        0.108       76.972       21.089        0.075      341.667       16.538      860.922
06/25/2014  06:10:00      -81.335      -58.983       -8.274       25.803       24.222       12.036      665.780      586.718      144.858        0.578        0.070      100.471       10.268        0.010      341.662       16.529      860.914
06/25/2014  06:11:00      -30.096      -16.658        6.351       29.045       43.465       20.292      843.635     1889.207      411.761        0.218        0.157       34.399       15.234        0.196      341.713       16.617      860.914
06/25/2014  06:12:00      -60.918       25.754       -6.551       21.335       29.393       22.691      455.173      863.935      514.872        0.313        0.092       66.139       11.779        0.032      341.795       16.756      860.912
06/25/2014  06:13:00      -27.520       -4.845       -0.569       26.221       33.837       16.725      687.545     1144.965      279.732        0.145        0.106       27.943       16.034        0.329      341.845       16.840      860.895
06/25/2014  06:14:00      -37.928      -40.790        7.406       32.459       22.591       15.474     1053.589      510.365      239.443        0.248        0.090       55.699       14.676        0.069      341.668       16.539      860.889
06/25/2014  06:15:00       17.733       -4.407        5.329       12.387       17.211       12.339      153.444      296.207      152.258        0.048        0.030       18.272        6.210        0.116      341.677       16.556      860.887
06/25/2014  06:16:00      -49.065      -15.135       -5.337       30.138       28.442       13.309      908.312      808.959      177.128        0.228        0.095       51.346       10.063        0.038      341.682       16.565      860.884
06/25/2014  06:17:00       -8.377      -12.107       15.639       21.856       15.743       16.582      477.670      247.851      274.957        0.073        0.050       14.723       15.742        1.143      341.825       16.806      860.887
06/25/2014  06:18:00      -37.855      -23.995        1.828       28.135       17.669       16.487      791.554      312.199      271.817        0.169        0.069       44.820       19.338        0.186      341.773       16.720      860.905
06/25/2014  06:19:00      -75.236      -39.037       -5.575       25.275       14.817       15.376      638.806      219.542      236.407        0.415        0.055       84.761        8.811        0.011      341.715       16.621      860.918
06/25/2014  06:20:00      -85.818      -37.138       -0.758       22.120       32.733       18.668      489.273     1071.424      348.493        0.533        0.095       93.509       12.194        0.017      341.728       16.642      860.920
06/25/2014  06:21:00     -104.434      -39.933       -7.799       25.648       18.383       14.158      657.829      337.931      200.446        0.688        0.060      111.808        7.434        0.004      341.746       16.673      860.926
06/25/2014  06:22:00     -125.460      -35.145      -16.065       28.099       25.842       17.178      789.550      667.791      295.068        0.949        0.088      130.290       13.121        0.010      341.740       16.663      860.926
06/25/2014  06:23:00      -99.183        5.167       -1.783       63.310       34.797       29.482     4008.149     1210.823      869.201        0.798        0.304       99.318       35.048        0.125      341.765       16.703      860.910
06/25/2014  06:24:00      -63.978        4.582       -7.080       26.097       34.626       19.581      681.052     1198.942      383.397        0.321        0.113       64.142       12.791        0.040      341.825       16.805      860.892
06/25/2014  06:25:00      -51.762       15.345        2.654       23.293       32.327       25.739      542.557     1045.055      662.487        0.259        0.113       53.988       15.403        0.081      341.961       17.037      860.878
06/25/2014  06:26:00      -38.064        2.109       -3.270       31.504       41.252       21.694      992.506     1701.700      470.649        0.231        0.158       38.123       21.257        0.311      341.951       17.021      860.865
06/25/2014  06:27:00      -50.237      -38.633        6.976       72.170       19.428       23.908     5208.480      377.448      571.610        0.511        0.308       63.374       34.438        0.295      341.740       16.663      860.867
06/25/2014  06:28:00      -95.821      -11.384      -13.114       34.566       20.559       18.780     1194.820      422.675      352.687        0.573        0.099       96.495       15.248        0.025      341.864       16.872      860.846
06/25/2014  06:29:00       12.551       12.860       20.391       16.761       19.503       16.491      280.925      380.351      271.945        0.084        0.047       17.970        8.926        0.247      341.951       17.020      860.833
06/25/2014  06:30:00      -23.568      -24.092       -2.248       24.302       27.622       19.913      590.567      763.001      396.530        0.145        0.088       33.703       16.416        0.237      341.900       16.935      860.811
06/25/2014  06:31:00      -73.232      -31.709      -10.506       20.932       16.009        9.031      438.137      256.302       81.550        0.363        0.039       79.803        5.841        0.005      341.809       16.781      860.812
06/25/2014  06:32:00      -66.141       -9.586       -6.370       22.384       25.636       18.226      501.028      657.191      332.200        0.300        0.075       66.832       13.638        0.042      341.962       17.039      860.811
06/25/2014  06:33:00      -22.942       -1.147       13.451       26.965       27.556       17.209      727.137      759.346      296.141        0.125        0.089       22.970       18.018        0.615      342.056       17.199      860.806
06/25/2014  06:34:00       -5.264        0.803       12.576       16.499       11.451       14.071      272.209      131.115      198.002        0.039        0.030        5.325        7.891        2.196      342.254       17.534      860.805
06/25/2014  06:35:00      -42.159      -28.026        1.905       26.995       30.250       17.572      728.705      915.072      308.789        0.226        0.098       50.624       15.349        0.092      342.069       17.219      860.805
06/25/2014  06:36:00      -74.048      -13.982       -3.935       36.080       27.146       20.908     1301.769      736.930      437.164        0.408        0.124       75.357       17.251        0.052      342.166       17.385      860.815
06/25/2014  06:37:00      -86.429      -23.065       -6.475       21.637       22.063       15.784      468.168      486.757      249.143        0.462        0.060       89.454       11.370        0.016      341.934       16.992      860.813
06/25/2014  06:38:00      -47.290      -50.740       -6.764       34.586       20.995       15.710     1196.182      440.809      246.816        0.337        0.094       69.361       17.216        0.062      341.932       16.989      860.821
06/25/2014  06:39:00      -17.806      -21.260       18.718       42.584       28.387       23.731     1813.386      805.836      563.158        0.215        0.159       27.732       25.616        0.853      342.061       17.206      860.819
06/25/2014  06:40:00      -87.397      -19.036       -0.525       32.191       14.574       14.508     1036.268      212.398      210.471        0.473        0.073       89.446       18.513        0.043      342.017       17.132      860.831
06/25/2014  06:41:00      -72.839      -20.121       -2.432       22.415       13.362        9.707      502.450      178.538       94.229        0.325        0.039       75.567        5.571        0.005      341.945       17.009      860.828
06/25/2014  06:42:00      -12.374      -12.595        3.898        9.370       14.113       10.825       87.798      199.176      117.181        0.037        0.020       17.657        8.400        0.226      342.224       17.484      860.834
06/25/2014  06:43:00       14.073      -15.419       -7.815       20.317       21.038       14.381      412.801      442.591      206.808        0.078        0.053       20.875       10.760        0.266      341.949       17.019      860.825
06/25/2014  06:44:00        1.919      -50.851       -8.951       21.373       25.637       20.256      456.786      657.249      410.299        0.210        0.076       50.888       14.157        0.077      341.953       17.024      860.839
06/25/2014  06:45:00      -24.658      -30.093        9.659       20.521       23.153       14.932      421.120      536.039      222.952        0.139        0.059       38.905       12.740        0.107      342.269       17.561      860.837
06/25/2014  06:46:00      -74.109      -52.384       -1.640       31.713       22.650       16.686     1005.710      513.036      278.438        0.502        0.090       90.754       11.750        0.017      342.099       17.272      860.846
06/25/2014  06:47:00      -65.169      -32.060        0.613       23.325       25.315       15.108      544.037      640.826      228.262        0.334        0.071       72.628       13.681        0.035      342.096       17.268      860.834
06/25/2014  06:48:00      -70.462      -59.222       -0.554       36.345       31.050       17.547     1320.987      964.088      307.913        0.553        0.130       92.044       20.513        0.050      342.118       17.305      860.832
06/25/2014  06:49:00     -116.913      -41.615       -3.992       22.953       30.519       14.683      526.860      931.411      215.593        0.854        0.084      124.099        8.780        0.005      342.032       17.158      860.817
06/25/2014  06:50:00      -80.729      -59.852        6.608       31.703       25.758       18.824     1005.063      663.497      354.329        0.608        0.101      100.496       16.267        0.026      342.105       17.281      860.815
06/25/2014  06:51:00      -63.783      -59.475        0.107       35.465       28.406       17.655     1257.795      806.916      311.683        0.499        0.119       87.210       15.945        0.033      342.134       17.331      860.803
06/25/2014  06:52:00      -50.685      -52.051        4.771       37.188       30.406       20.861     1382.927      924.514      435.174        0.402        0.137       72.652       23.012        0.100      342.136       17.333      860.809
06/25/2014  06:53:00      -51.099      -74.319        2.744       25.254       29.986       15.769      637.746      899.157      248.647        0.496        0.089       90.191       16.292        0.033      342.186       17.418      860.815
06/25/2014  06:54:00      -35.123      -59.732       -0.883       30.996       36.707       16.537      960.757     1347.377      273.471        0.369        0.129       69.293       18.845        0.074      342.205       17.452      860.829
06/25/2014  06:55:00      -71.174      -68.380       -1.708       35.247       25.832       23.446     1242.385      667.300      549.710        0.610        0.123       98.699       25.161        0.065      342.253       17.533      860.847
06/25/2014  06:56:00      -40.373      -70.778       -0.544       13.429       28.906       10.105      180.326      835.577      102.118        0.388        0.056       81.484        7.112        0.008      342.134       17.332      860.856
06/25/2014  06:57:00      -14.255      -56.507       12.321       22.452       28.008       16.902      504.098      784.447      285.689        0.256        0.079       58.277       12.473        0.046      342.291       17.598      860.870
06/25/2014  06:58:00      -57.539      -72.367        0.749       29.776       22.401       16.554      886.598      501.796      274.026        0.511        0.083       92.454       15.023        0.026      342.230       17.495      860.864
06/25/2014  06:59:00      -62.412      -50.997       -1.385       18.878       25.075       15.687      356.395      628.777      246.076        0.386        0.062       80.598       12.066        0.022      342.243       17.515      860.857
06/25/2014  07:00:00      -50.705      -62.670       -7.415       26.064       32.194       20.584      679.348     1036.434      423.690        0.435        0.107       80.614       13.728        0.029      342.278       17.577      860.830
06/25/2014  07:01:00      -12.499      -20.555       -3.125       10.403       15.093       10.340      108.227      227.814      106.917        0.052        0.022       24.057        9.493        0.156      342.384       17.755      860.811
06/25/2014  07:02:00      -20.297       -4.585       14.483       33.759       12.155       21.342     1139.669      147.750      455.481        0.119        0.087       20.808       23.293        1.253      342.659       18.224      860.798
06/25/2014  07:03:00      -40.364       10.577        4.346       15.833        8.933       12.266      250.671       79.804      150.453        0.112        0.024       41.727        7.893        0.036      342.288       17.594      860.796
06/25/2014  07:04:00      -47.923       -5.535       -2.153       15.926       14.742       12.152      253.625      217.337      147.679        0.148        0.031       48.242        9.600        0.040      342.309       17.628      860.783
06/25/2014  07:05:00        0.116      -31.979       13.478       16.457       24.123       18.967      270.837      581.937      359.731        0.121        0.061       31.979       18.652        0.340      342.682       18.264      860.764
06/25/2014  07:06:00      -15.716      -55.249        2.602       15.257       20.627       13.120      232.785      425.460      172.145        0.207        0.042       57.441        8.549        0.022      342.325       17.655      860.744
06/25/2014  07:07:00      -42.473      -12.474       11.556       35.114       19.492       16.021     1232.989      379.933      256.683        0.198        0.093       44.267       18.943        0.183      342.714       18.317      860.730
06/25/2014  07:08:00      -21.593      -18.719        6.615       19.154       17.226        9.036      366.881      296.723       81.654        0.080        0.037       28.577        6.272        0.048      342.430       17.835      860.715
06/25/2014  07:09:00      -23.121      -18.756        5.315       20.435       22.233       10.714      417.595      494.306      114.784        0.097        0.051       29.772       10.628        0.127      342.590       18.105      860.701
06/25/2014  07:10:00      -32.137      -67.882       -2.225       13.847       17.403        7.084      191.748      302.849       50.186        0.310        0.027       75.105        6.600        0.008      342.297       17.608      860.697
06/25/2014  07:11:00       -9.611      -29.265       -0.507       11.072       13.510        5.929      122.599      182.512       35.153        0.064        0.017       30.803        5.131        0.028      342.369       17.733      860.687
06/25/2014  07:12:00      -10.516      -18.586        5.551       11.850       11.430        9.023      140.428      130.638       81.415        0.042        0.018       21.355        4.772        0.050      342.676       18.252      860.689
06/25/2014  07:13:00       -8.942       -7.725       22.223        8.654       12.022       12.985       74.896      144.530      168.609        0.051        0.019       11.816        8.758        0.549      343.290       19.300      860.698
06/25/2014  07:14:00      -10.760      -36.453        2.797       17.631       16.698       11.983      310.840      278.820      143.599        0.109        0.037       38.008        9.243        0.059      342.588       18.103      860.694
06/25/2014  07:15:00      -32.559      -40.050       -7.393       16.083       15.605       13.956      258.664      243.504      194.764        0.171        0.035       51.615        3.622        0.005      342.516       17.981      860.702
06/25/2014  07:16:00      -15.284       -3.282        7.815       10.735       17.431       16.259      115.243      303.840      264.347        0.049        0.034       15.632        8.218        0.276      343.021       18.841      860.703
06/25/2014  07:17:00      -56.230      -48.520        0.923       23.262       19.330       13.047      541.140      373.631      170.215        0.330        0.054       74.270        8.676        0.014      342.528       18.000      860.718
06/25/2014  07:18:00      -15.936      -28.621        2.668       32.277       26.605       24.484     1041.829      707.833      599.473        0.171        0.117       32.758       12.360        0.142      342.684       18.268      860.716
06/25/2014  07:19:00      -20.759      -80.612        6.015       31.259       26.852       20.607      977.149      721.043      424.648        0.454        0.106       83.242       14.856        0.032      342.517       17.982      860.739
06/25/2014  07:20:00      -42.124      -32.714        9.170       27.080       30.183       18.621      733.301      911.035      346.756        0.246        0.100       53.335       12.625        0.056      342.622       18.161      860.745
06/25/2014  07:21:00      -65.330      -47.833        5.932       27.291       28.848       13.955      744.774      832.203      194.749        0.418        0.089       80.969        5.146        0.004      342.556       18.048      860.756
06/25/2014  07:22:00      -52.095      -57.661        2.032       27.523       31.143       15.917      757.518      969.864      253.353        0.401        0.099       77.709       12.816        0.027      342.617       18.152      860.759
06/25/2014  07:23:00      -31.907      -47.416        4.706       19.722       25.272       21.748      388.960      638.678      472.981        0.239        0.075       57.152       13.449        0.055      342.762       18.398      860.752
06/25/2014  07:24:00      -15.275       -1.416        6.382       13.127       20.177       18.543      172.307      407.112      343.856        0.060        0.046       15.341       15.113        0.971      343.026       18.849      860.752
06/25/2014  07:25:00      -57.532       11.154       -5.912       41.852       20.077       22.958     1751.615      403.099      527.065        0.308        0.134       58.603       23.972        0.167      342.766       18.405      860.739
06/25/2014  07:26:00      -44.982      -11.119       -6.959       24.114       22.731       22.951      581.485      516.721      526.755        0.191        0.081       46.336       11.711        0.064      342.792       18.451      860.724
06/25/2014  07:27:00      -27.197      -29.326       -0.218       22.454       29.139       16.495      504.162      849.100      272.100        0.161        0.081       39.996       14.082        0.124      343.082       18.944      860.723
06/25/2014  07:28:00      -40.653       -7.652        0.588       33.264       13.886       12.162     1106.462      192.824      147.910        0.158        0.072       41.367        5.218        0.016      342.862       18.568      860.713
06/25/2014  07:29:00      -46.926      -27.512       -7.748       33.771       29.465       20.344     1140.493      868.194      413.894        0.272        0.121       54.396       13.366        0.060      342.798       18.458      860.709
06/25/2014  07:30:00      -49.133      -34.481       -1.860       32.774       29.308       21.929     1074.141      858.969      480.878        0.301        0.121       60.025       18.616        0.096      342.923       18.674      860.710
06/25/2014  07:31:00      -43.379      -51.231        1.344       31.005       35.557       24.322      961.288     1264.305      591.563        0.366        0.141       67.129       18.783        0.078      342.769       18.410      860.697
06/25/2014  07:32:00      -27.313      -68.977        1.807       24.844       29.086       19.847      617.214      845.974      393.893        0.368        0.093       74.188       12.657        0.029      342.879       18.597      860.686
06/25/2014  07:33:00      -32.470      -53.108        1.192       23.230       22.194       16.283      539.641      492.582      265.134        0.259        0.065       62.247        7.881        0.016      342.816       18.491      860.684
06/25/2014  07:34:00      -24.273      -16.514       -4.384       18.269       10.594       11.377      333.766      112.239      129.440        0.073        0.029       29.358        7.887        0.072      342.869       18.581      860.676
06/25/2014  07:35:00      -10.010      -15.560       11.792       24.264       23.918       20.402      588.754      572.063      416.226        0.103        0.079       18.502       18.835        1.036      343.435       19.546      860.687
06/25/2014  07:36:00      -24.263        4.481       10.319       28.878       25.293       19.301      833.921      639.712      372.517        0.128        0.092       24.674       14.552        0.348      343.283       19.287      860.690
06/25/2014  07:37:00      -16.059      -14.506       -2.403       17.625       18.108       19.504      310.653      327.900      380.417        0.075        0.051       21.640       11.284        0.272      343.175       19.103      860.699
06/25/2014  07:38:00       -0.429      -31.998        9.673       30.124       28.216       30.044      907.475      796.149      902.651        0.186        0.130       32.001       16.531        0.267      343.152       19.062      860.707
06/25/2014  07:39:00      -27.803      -27.406       -7.283       26.246       20.299       21.527      688.843      412.053      463.413        0.157        0.078       39.040       10.341        0.070      343.007       18.815      860.708
06/25/2014  07:40:00      -32.036      -15.983        2.354       21.087       27.318       21.462      444.658      746.277      460.626        0.147        0.083       35.802       15.995        0.200      343.149       19.057      860.709
06/25/2014  07:41:00      -22.961       -8.650        5.162       25.586       20.325       19.695      654.639      413.092      387.891        0.104        0.073       24.536       11.968        0.238      343.417       19.515      860.712
06/25/2014  07:42:00      -10.023      -10.477       10.590       37.601       34.424       31.609     1413.815     1185.028      999.157        0.196        0.180       14.499       18.869        1.694      343.503       19.661      860.722
06/25/2014  07:43:00      -20.236      -12.099        4.938       32.440       26.824       24.646     1052.340      719.525      607.430        0.148        0.119       23.577       14.284        0.367      343.257       19.243      860.732
06/25/2014  07:44:00      -57.405      -39.925      -11.602       23.634       16.966       12.883      558.580      287.844      165.976        0.302        0.051       69.924        6.226        0.008      342.906       18.642      860.752
06/25/2014  07:45:00      -75.097     -100.933        3.030       43.285       37.943       25.322     1873.573     1439.641      641.188        0.989        0.198      125.806       11.415        0.008      343.050       18.889      860.768
06/25/2014  07:46:00      -29.911      -23.679        4.869       33.139       34.350       21.886     1098.162     1179.924      479.004        0.212        0.138       38.149       18.292        0.230      343.185       19.118      860.780
06/25/2014  07:47:00      -49.193       -2.961        2.835       26.680       21.567       19.945      711.839      465.151      397.814        0.201        0.079       49.282       17.600        0.128      343.098       18.971      860.792
06/25/2014  07:48:00      -76.177      -40.525        8.560       56.863       45.995       26.318     3233.369     2115.575      692.618        0.678        0.302       86.286       29.773        0.119      343.248       19.225      860.801
06/25/2014  07:49:00      -64.794      -25.877       -6.529       19.186       29.068       19.038      368.085      844.940      362.449        0.324        0.079       69.770       14.546        0.043      342.923       18.673      860.796
06/25/2014  07:50:00      -36.748      -32.961       -5.483       35.761       30.251       16.060     1278.874      915.095      257.938        0.246        0.123       49.365        6.389        0.017      343.094       18.963      860.795
06/25/2014  07:51:00       20.274      -38.263       20.974       35.046       48.220       31.880     1228.250     2325.167     1016.305        0.344        0.228       43.303       27.291        0.397      343.471       19.607      860.786
06/25/2014  07:52:00       -8.942      -16.089       42.982       15.634       31.302       13.819      244.417      979.789      190.956        0.180        0.071       18.406        9.205        0.250      343.871       20.289      860.775
06/25/2014  07:53:00       17.627     -110.013       -3.005       38.056       59.134       38.709     1448.247     3496.819     1498.349        0.943        0.322      111.416       35.259        0.100      343.340       19.382      860.772
06/25/2014  07:54:00      -64.730      -34.471       -9.338       38.650       43.706       38.608     1493.825     1910.230     1490.589        0.518        0.245       73.336       33.606        0.210      343.236       19.205      860.776
06/25/2014  07:55:00      -30.770       -5.420       15.494       27.485       23.235       23.227      755.447      539.860      539.481        0.153        0.092       31.243       18.180        0.339      343.457       19.584      860.767
06/25/2014  07:56:00       12.538      -10.334       45.112       40.411       50.976       34.197     1633.089     2598.595     1169.462        0.385        0.270       16.248       28.400        3.055      343.525       19.698      860.752
06/25/2014  07:57:00       25.537       -5.793       46.986       41.678       54.108       39.246     1737.070     2927.701     1540.252        0.455        0.310       26.186       21.145        0.652      343.601       19.827      860.729
06/25/2014  07:58:00        5.555       39.392       62.639       29.589       55.414       34.396      875.482     3070.758     1183.086        0.532        0.256       39.782       25.260        0.403      343.421       19.521      860.726
06/25/2014  07:59:00       52.336      -59.408       10.168       48.594       66.139       41.766     2361.425     4374.328     1744.429        0.742        0.424       79.173       41.905        0.280      343.510       19.673      860.719
06/25/2014  08:00:00       51.084      -15.256       27.436       53.210       51.111       41.143     2831.324     2612.316     1692.780        0.536        0.357       53.314       29.511        0.306      343.769       20.114      860.713
06/25/2014  08:01:00       21.922      -31.295       31.532       43.400       59.378       47.705     1883.550     3525.763     2275.811        0.507        0.384       38.209       21.473        0.316      343.675       19.954      860.709
06/25/2014  08:02:00       19.621      -29.366       40.827       30.032       54.725       39.224      901.950     2994.818     1538.486        0.417        0.272       35.318       33.584        0.904      343.830       20.218      860.702
06/25/2014  08:03:00       24.478      -43.441       24.894       42.291       50.201       34.958     1788.507     2520.160     1222.044        0.432        0.277       49.863       35.010        0.493      343.893       20.326      860.704
06/25/2014  08:04:00       45.053      -72.617        5.030       46.016       51.196       45.091     2117.504     2621.008     2033.212        0.705        0.339       85.458       43.307        0.257      343.850       20.253      860.698
06/25/2014  08:05:00       31.232      -52.264       28.887       53.369       41.230       35.888     2848.280     1699.887     1287.941        0.519        0.292       60.885       31.937        0.275      343.960       20.440      860.709
06/25/2014  08:06:00       10.906       12.316       40.230       44.339       39.831       27.197     1965.937     1586.504      739.682        0.309        0.215       16.451       25.107        2.329      343.781       20.135      860.697
06/25/2014  08:07:00        1.028      -67.613       19.670       35.783       73.697       40.871     1280.411     5431.266     1670.456        0.667        0.419       67.620       15.056        0.050      343.815       20.192      860.689
06/25/2014  08:08:00      -48.441      -52.516        3.898       30.744       38.954       17.034      945.164     1517.427      290.172        0.394        0.138       71.445       12.334        0.030      343.516       19.681      860.696
06/25/2014  08:09:00      -31.410        6.528       21.883       24.251       24.947       19.137      588.097      622.352      366.222        0.154        0.079       32.081       18.960        0.349      343.974       20.465      860.692
06/25/2014  08:10:00        7.448      -20.325       18.788       45.927       41.429       33.116     2109.324     1716.332     1096.674        0.287        0.246       21.646       22.531        1.083      344.009       20.525      860.703
06/25/2014  08:11:00      -10.199      -58.174        9.672       51.768       46.918       40.863     2679.897     2201.323     1669.762        0.507        0.328       59.061       33.403        0.320      343.756       20.091      860.699
06/25/2014  08:12:00       14.275      -64.772       40.092       62.628       73.431       43.807     3922.209     5392.040     1919.091        0.862        0.562       66.326       33.141        0.250      343.900       20.337      860.706
06/25/2014  08:13:00       14.460      -38.407        7.372       51.292       44.632       37.822     2630.905     1991.995     1430.518        0.389        0.303       41.039       35.828        0.762      343.612       19.847      860.713
06/25/2014  08:14:00       30.749      -19.372       32.592       39.550       42.268       38.552     1564.204     1786.550     1486.283        0.361        0.242       36.342       32.815        0.815      344.256       20.946      860.721
06/25/2014  08:15:00       34.083      -38.760       27.385       48.061       61.355       47.980     2309.814     3764.450     2302.049        0.589        0.419       51.614       34.504        0.447      343.900       20.337      860.714
06/25/2014  08:16:00       22.041       -0.454       44.831       40.697       64.408       52.220     1656.249     4148.349     2726.937        0.551        0.427       22.046       28.114        1.626      343.911       20.356      860.700
06/25/2014  08:17:00       -4.955      -44.662       52.528       31.896       45.383       31.829     1017.371     2059.656     1013.116        0.443        0.205       44.936       18.346        0.167      343.989       20.491      860.710
06/25/2014  08:18:00       12.225      -21.166       45.975       27.345       38.108       33.051      747.757     1452.234     1092.401        0.300        0.165       24.442       23.966        0.961      344.288       21.001      860.703
06/25/2014  08:19:00      -13.261      -44.059       16.966       23.240       32.905       35.162      540.088     1082.728     1236.347        0.263        0.143       46.012       30.852        0.450      344.155       20.773      860.707
06/25/2014  08:20:00      -35.923      -60.456        2.053       55.161       43.677       30.496     3042.764     1907.681      930.010        0.541        0.294       70.324       25.510        0.132      343.838       20.233      860.711
06/25/2014  08:21:00      -49.797      -55.591        8.022       43.087       49.997       31.198     1856.454     2499.743      973.335        0.548        0.266       74.633       28.010        0.141      343.777       20.128      860.713
06/25/2014  08:22:00      -26.508       -7.828        5.863       26.833       27.146       21.513      720.029      736.898      462.828        0.136        0.096       27.639       13.818        0.250      343.852       20.256      860.708
06/25/2014  08:23:00      -53.780      -71.017       -0.472       49.595       37.358       30.210     2459.627     1395.637      912.641        0.635        0.238       89.083       33.322        0.140      343.702       20.000      860.718
06/25/2014  08:24:00      -76.819      -28.037        1.583       52.903       32.479       29.310     2798.707     1054.866      859.077        0.570        0.236       81.775       29.922        0.134      343.769       20.114      860.724
06/25/2014  08:25:00      -47.879      -48.121        8.728       61.128       40.111       30.470     3736.690     1608.884      928.427        0.548        0.314       67.883       29.662        0.191      343.951       20.425      860.727
06/25/2014  08:26:00      -96.487      -96.294       -3.086       56.986       45.244       27.525     3247.356     2047.021      757.612        1.232        0.303      136.317       32.809        0.058      343.577       19.788      860.727
06/25/2014  08:27:00     -124.126      -73.970       -9.691       68.141       53.288       34.842     4643.180     2839.582     1213.965        1.483        0.435      144.495       33.146        0.053      343.539       19.721      860.730
06/25/2014  08:28:00      -43.212      -37.621       10.519       29.692       37.050       26.932      881.631     1372.670      725.322        0.319        0.149       57.294       17.877        0.097      343.637       19.889      860.724
06/25/2014  08:29:00      -35.438      -16.394        6.004       49.761       36.253       21.239     2476.206     1314.247      451.114        0.290        0.212       39.046       18.115        0.215      343.873       20.292      860.721
06/25/2014  08:30:00      -14.277       -4.088        7.699       21.680       20.743       20.752      470.025      430.266      430.649        0.081        0.067       14.851       12.894        0.754      344.275       20.980      860.722
06/25/2014  08:31:00      -32.469       -1.997        8.246       25.470       19.719       34.185      648.745      388.846     1168.626        0.167        0.110       32.530       21.594        0.441      344.109       20.695      860.715
06/25/2014  08:32:00       52.808      -40.586       25.503       59.062       59.223       45.438     3488.368     3507.374     2064.643        0.707        0.453       66.602       42.554        0.408      344.072       20.632      860.703
06/25/2014  08:33:00       73.675      -84.340        4.462       88.384      115.012       41.796     7811.731    13227.726     1746.936        1.767        1.139      111.988       65.503        0.342      343.912       20.356      860.685
06/25/2014  08:34:00       61.238      -38.434       25.570       62.390       82.316       55.813     3892.518     6775.867     3115.111        0.983        0.689       72.300       60.383        0.698      344.256       20.947      860.671
06/25/2014  08:35:00       24.279       58.010       80.200       46.122       40.797       32.222     2127.212     1664.411     1038.259        0.761        0.241       62.886       28.611        0.207      344.112       20.701      860.650
06/25/2014  08:36:00       38.226      -76.406       10.428       41.514       81.139       40.032     1723.438     6583.521     1602.553        0.866        0.495       85.435       42.277        0.245      344.232       20.906      860.630
06/25/2014  08:37:00       66.814      -36.770       34.474       78.435       77.491       48.187     6152.113     6004.784     2321.965        1.074        0.724       76.264       50.870        0.445      344.071       20.629      860.595
06/25/2014  08:38:00       92.023     -103.760        2.455       50.260       52.005       42.598     2526.062     2704.529     1814.596        1.314        0.352      138.688       36.943        0.071      343.522       19.692      860.585
06/25/2014  08:39:00       25.321       10.605       47.929       36.232       64.383       42.132     1312.766     4145.131     1775.097        0.514        0.362       27.452       38.111        1.927      344.333       21.077      860.566
06/25/2014  08:40:00       41.941      -37.208       31.474       64.064       87.200       47.378     4104.184     7603.848     2244.693        0.904        0.698       56.066       47.275        0.711      344.416       21.220      860.559
06/25/2014  08:41:00      101.444      -60.768       20.710       50.791       84.779       46.755     2579.756     7187.397     2186.039        1.318        0.598      118.252       53.753        0.207      344.037       20.573      860.558
06/25/2014  08:42:00       23.001       36.742       47.544       36.096       33.460       30.925     1302.935     1119.556      956.328        0.376        0.169       43.348       26.828        0.383      344.370       21.142      860.561
06/25/2014  08:43:00       36.537      -57.384       15.119       59.411       82.272       47.961     3529.659     6768.635     2300.258        0.873        0.630       68.029       52.878        0.604      344.379       21.157      860.563
06/25/2014  08:44:00      107.963      -99.378      -28.117       76.571       77.947       62.398     5863.176     6075.810     3893.556        1.907        0.792      146.738       57.449        0.153      344.117       20.705      860.558
06/25/2014  08:45:00      117.901     -135.006      -16.017       73.804       87.173       55.938     5446.963     7599.170     3129.055        2.428        0.809      179.241       64.920        0.131      344.109       20.692      860.565
06/25/2014  08:46:00       43.059      -18.545       45.756       52.705       64.167       48.549     2777.842     4117.459     2357.028        0.677        0.463       46.883       38.344        0.669      344.436       21.255      860.554
06/25/2014  08:47:00       37.317     -102.594       -5.902       62.038       82.368       49.813     3848.774     6784.506     2481.349        1.253        0.656      109.170       44.197        0.164      344.323       21.060      860.552
06/25/2014  08:48:00       56.097        1.355       30.712       54.276       74.965       50.155     2945.885     5619.783     2515.531        0.758        0.554       56.113       37.932        0.457      344.279       20.985      860.556
06/25/2014  08:49:00       16.739       28.562       23.889       42.132       58.714       29.266     1775.092     3447.389      856.500        0.387        0.304       33.106       12.384        0.140      344.201       20.851      860.534
06/25/2014  08:50:00       44.577      -22.933       44.033       59.007       81.629       60.548     3481.806     6663.320     3666.006        0.913        0.691       50.130       56.149        1.255      344.642       21.605      860.527
06/25/2014  08:51:00       61.902      -38.092       35.380       66.225       85.762       68.400     4385.766     7355.204     4678.612        1.147        0.821       72.683       66.416        0.835      344.466       21.304      860.529
06/25/2014  08:52:00       56.554      -85.084       11.589       55.185       70.403       51.971     3045.331     4956.597     2701.010        1.064        0.535      102.165       44.813        0.192      344.375       21.151      860.525
06/25/2014  08:53:00      139.635     -147.157      -24.754       53.203       66.630       40.395     2830.576     4439.555     1631.716        2.533        0.445      202.862       36.103        0.032      344.204       20.856      860.522
06/25/2014  08:54:00      124.031     -121.222      -16.309       62.474       61.858       39.479     3902.990     3826.458     1558.589        1.981        0.464      173.432       45.904        0.070      344.297       21.014      860.525
06/25/2014  08:55:00       12.635       22.720       63.921       39.626       46.430       25.589     1570.220     2155.706      654.791        0.457        0.219       25.997       20.521        0.623      344.986       22.194      860.509
06/25/2014  08:56:00       29.646      -58.329       13.469       48.200       75.843       46.366     2323.242     5752.129     2149.791        0.734        0.511       65.430       46.416        0.503      344.773       21.830      860.491
06/25/2014  08:57:00       30.113      -75.124       10.257       65.180       77.547       69.087     4248.406     6013.606     4772.987        1.084        0.752       80.934       42.732        0.279      344.622       21.571      860.479
06/25/2014  08:58:00       40.229       40.208       66.833       55.102       87.237       51.617     3036.275     7610.286     2664.364        1.050        0.666       56.878       55.358        0.947      344.707       21.718      860.472
06/25/2014  08:59:00       83.389       49.422       11.432       45.562       21.274       25.587     2075.928      452.564      654.714        0.635        0.159       96.934       18.505        0.036      343.853       20.258      860.481
06/25/2014  09:00:00       65.202       50.215       21.140       42.537       42.471       28.508     1809.373     1803.774      812.705        0.582        0.221       82.297       20.291        0.061      344.212       20.870      860.477
06/25/2014  09:01:00      120.411       80.743       43.223       47.312       33.027       52.485     2238.464     1090.796     2754.657        1.448        0.304      144.977       31.274        0.047      344.420       21.226      860.470
06/25/2014  09:02:00      137.978       94.132       38.049       37.906       19.091       37.387     1436.893      364.469     1397.751        1.627        0.160      167.029       10.313        0.004      344.095       20.669      860.477
06/25/2014  09:03:00       57.985       63.470       21.021       30.723       37.118       33.906      943.926     1377.709     1149.606        0.565        0.174       85.969       20.318        0.056      344.138       20.742      860.470
06/25/2014  09:04:00       46.881       -2.144        2.470       28.671       36.473       28.491      822.021     1330.279      811.727        0.259        0.148       46.930       18.670        0.158      344.318       21.052      860.459
06/25/2014  09:05:00       62.610      -48.661       23.350       40.241       60.909       40.091     1619.349     3709.855     1607.323        0.688        0.347       79.297       33.237        0.176      344.856       21.972      860.447
06/25/2014  09:06:00       13.967      -40.898       42.317       41.171       64.940       47.092     1695.058     4217.262     2217.649        0.589        0.406       43.217       47.960        1.232      344.942       22.119      860.432
06/25/2014  09:07:00        0.028      -60.025       -5.736       37.308       48.076       29.813     1391.862     2311.348      888.825        0.411        0.230       60.025       26.990        0.202      344.774       21.831      860.415
06/25/2014  09:08:00        8.764      -58.252       -8.938       30.078       35.681       34.993      904.673     1273.141     1224.525        0.348        0.170       58.907       21.967        0.139      344.874       22.002      860.409
06/25/2014  09:09:00        1.716       19.894       82.673       45.250       85.644       54.770     2047.545     7334.825     2999.770        0.981        0.619       19.968       61.988        9.637      345.107       22.403      860.387
06/25/2014  09:10:00       87.403       63.228       61.489       48.702       42.713       41.226     2371.852     1824.437     1699.582        1.066        0.295      107.875       29.421        0.074      344.437       21.256      860.388
06/25/2014  09:11:00       47.294       50.296       84.643       56.682       36.638       29.757     3212.895     1342.321      885.479        0.868        0.272       69.040       29.202        0.179      344.640       21.601      860.373
06/25/2014  09:12:00       57.443       49.017       36.137       39.825       42.334       54.941     1586.000     1792.178     3018.522        0.670        0.320       75.514       46.977        0.387      344.427       21.238      860.365
06/25/2014  09:13:00       28.937       36.696       35.898       46.045       43.874       43.187     2120.165     1924.956     1865.116        0.469        0.296       46.733       28.917        0.383      345.166       22.503      860.357
06/25/2014  09:14:00       44.935       22.891       36.702       47.193       54.741       30.238     2227.172     2996.588      914.334        0.501        0.307       50.429        6.975        0.019      345.054       22.311      860.337
06/25/2014  09:15:00       74.768       46.401       14.386       34.746       28.414       28.344     1207.259      807.341      803.395        0.538        0.141       87.996       12.540        0.020      344.929       22.097      860.331
06/25/2014  09:16:00       82.915       56.338       14.112       31.346       25.020       29.724      982.578      625.978      883.531        0.637        0.125      100.245       14.567        0.021      344.821       21.912      860.304
06/25/2014  09:17:00       61.461       33.326       19.897       47.639       46.178       34.180     2269.476     2132.416     1168.248        0.543        0.279       69.915       32.211        0.212      344.978       22.181      860.287
06/25/2014  09:18:00       34.429       -6.153       49.042       50.966       76.571       56.728     2597.530     5863.049     3218.098        0.765        0.584       34.974       46.210        1.746      345.360       22.835      860.252
06/25/2014  09:19:00       26.796       34.726       64.798       34.877       37.356       35.379     1216.400     1395.459     1251.659        0.499        0.193       43.862       24.903        0.322      345.245       22.639      860.242
06/25/2014  09:20:00       67.243      -95.375      -18.355       75.004       96.234       63.593     5625.582     9261.016     4044.039        1.644        0.947      116.696       62.013        0.282      344.916       22.074      860.218
06/25/2014  09:21:00       36.441      -46.396       40.359       66.704       91.417       73.997     4449.441     8357.026     5475.509        1.169        0.914       58.996       73.013        1.532      345.264       22.670      860.209
06/25/2014  09:22:00      -12.842       33.368       70.909       19.571       39.081       35.037      383.014     1527.298     1227.566        0.472        0.157       35.754       32.289        0.816      345.411       22.922      860.220
06/25/2014  09:23:00       -9.557       -1.875       41.125       21.864       21.709       22.402      478.029      471.274      501.838        0.162        0.073        9.739       13.710        1.982      345.926       23.806      860.218
06/25/2014  09:24:00      -60.331      -43.561        7.053       56.431       61.968       31.489     3184.407     3840.079      991.573        0.680        0.401       74.414       38.643        0.270      345.400       22.905      860.212
06/25/2014  09:25:00      -94.929     -101.759      -15.793       25.006       46.151       23.843      625.319     2129.873      568.501        1.147        0.166      139.163       19.566        0.020      344.618       21.564      860.208
06/25/2014  09:26:00      -21.449        5.672       14.088       43.505       23.618       22.708     1892.726      557.822      515.634        0.183        0.148       22.186       25.496        1.321      345.299       22.734      860.201
06/25/2014  09:27:00      -18.284       -4.199       12.323       40.853       29.437       23.750     1668.998      866.516      564.051        0.180        0.155       18.760       21.379        1.299      345.447       22.985      860.184
06/25/2014  09:28:00      -91.497      -75.556        3.190       56.920       48.290       29.169     3239.897     2331.919      850.841        1.026        0.321      118.661       29.270        0.061      344.880       22.013      860.177
06/25/2014  09:29:00      -82.283      -73.981       -4.346       43.112       30.509       17.546     1858.621      930.827      307.874        0.768        0.155      110.651       13.453        0.015      344.613       21.556      860.163
06/25/2014  09:30:00      -57.607      -49.347        9.801       51.608       31.670       22.902     2663.357     1003.004      524.499        0.502        0.210       75.853       27.690        0.133      345.039       22.287      860.152
06/25/2014  09:31:00     -105.898      -68.881       -1.575       42.588       40.657       27.830     1813.740     1652.951      774.516        1.010        0.212      126.328       19.944        0.025      344.773       21.830      860.122
06/25/2014  09:32:00      -65.354      -52.723       -1.911       35.334       25.396       23.374     1248.515      644.945      546.345        0.475        0.122       83.969       24.356        0.084      344.813       21.898      860.107
06/25/2014  09:33:00      -44.670      -94.565      -11.115       19.112       20.619       13.264      365.261      425.150      175.943        0.601        0.048      104.585        8.939        0.007      344.577       21.494      860.083
06/25/2014  09:34:00      -64.947      -52.576        2.432       57.324       54.196       28.775     3286.043     2937.245      827.982        0.702        0.353       83.560       25.519        0.093      344.888       22.027      860.072
06/25/2014  09:35:00      -95.667      -55.465        2.661       41.294       32.601       23.136     1705.215     1062.840      535.279        0.777        0.165      110.583       18.826        0.029      344.719       21.737      860.049
06/25/2014  09:36:00      -79.737      -31.070       11.364       54.742       42.271       29.766     2996.728     1786.815      886.020        0.656        0.283       85.576       23.704        0.077      345.025       22.262      860.030
06/25/2014  09:37:00      -69.967      -56.098        6.968       74.218       66.430       40.791     5508.336     4412.904     1663.870        0.984        0.579       89.679       44.285        0.244      345.389       22.885      860.003
06/25/2014  09:38:00      -73.222      -84.410       -3.397       59.875       68.102       33.138     3585.015     4637.832     1098.158        1.091        0.466      111.743       40.109        0.129      345.193       22.550      860.004
06/25/2014  09:39:00     -125.569      -61.000        1.570       40.975       37.045       24.606     1678.974     1372.313      605.473        1.157        0.183      139.602       21.044        0.023      344.707       21.718      859.981
06/25/2014  09:40:00      -88.794      -56.810       -0.746       53.401       36.708       20.115     2851.689     1347.464      404.630        0.786        0.230      105.412       21.037        0.040      344.871       21.998      859.973
06/25/2014  09:41:00      -53.008      -21.787        9.705       35.924       42.362       25.239     1290.562     1794.515      637.001        0.355        0.186       57.311       19.035        0.110      344.976       22.176      859.960
06/25/2014  09:42:00     -132.339      -51.430       -0.396       42.640       39.672       25.887     1818.128     1573.837      670.129        1.211        0.203      141.981       24.838        0.031      344.799       21.875      859.950
06/25/2014  09:43:00      -73.642       15.445        1.127       55.488       41.387       24.612     3078.881     1712.911      605.741        0.553        0.270       75.245       26.057        0.120      345.190       22.544      859.937
06/25/2014  09:44:00      -77.001       24.160        1.569       56.255       42.158       36.326     3164.665     1777.303     1319.550        0.639        0.313       80.702       27.955        0.120      345.230       22.613      859.926
06/25/2014  09:45:00      -15.934       -0.698       11.071       31.643       35.722       27.657     1001.252     1276.057      764.925        0.171        0.152       15.950       22.226        1.942      345.519       23.110      859.919
06/25/2014  09:46:00       40.682       29.661       17.557       75.745       30.378       37.027     5737.378      922.807     1370.978        0.544        0.402       50.347       31.923        0.402      345.625       23.288      859.891
06/25/2014  09:47:00       52.839       53.927       43.428       55.934       48.787       36.658     3128.602     2380.162     1343.788        0.722        0.343       75.499       29.439        0.152      345.802       23.594      859.874
06/25/2014  09:48:00       49.349        0.656       36.297       65.424       60.687       41.800     4280.257     3682.874     1747.280        0.673        0.486       49.353       36.515        0.547      345.878       23.724      859.867
06/25/2014  09:49:00       39.802       -5.606       63.399       63.442       69.320       48.170     4024.914     4805.232     2320.360        0.839        0.558       40.195       38.287        0.907      346.085       24.078      859.869
06/25/2014  09:50:00       32.267       68.191       89.182       31.532       68.507       48.938      994.261     4693.225     2394.944        1.086        0.404       75.440       55.284        0.537      345.273       22.686      859.880
06/25/2014  09:51:00       22.694       36.684       52.337       34.384       23.378       21.594     1182.276      546.536      466.293        0.340        0.110       43.136       10.363        0.058      345.533       23.131      859.868
06/25/2014  09:52:00       21.762       44.302       68.062       51.467       69.752       59.480     2648.823     4865.392     3537.905        0.906        0.553       49.358       53.871        1.191      345.981       23.900      859.845
06/25/2014  09:53:00       65.709      125.067       98.427       78.658       59.434       63.274     6187.076     3532.407     4003.650        2.168        0.686      141.278       57.870        0.168      345.248       22.641      859.849
06/25/2014  09:54:00      122.835       71.219       23.514       43.892       32.078       39.465     1926.521     1028.978     1557.465        1.261        0.226      141.988       19.440        0.019      344.957       22.144      859.840
06/25/2014  09:55:00       39.569       68.851       -5.610       27.734       31.599       24.934      769.196      998.495      621.693        0.436        0.119       79.411       13.878        0.031      345.070       22.339      859.820
06/25/2014  09:56:00       59.151       50.410       20.989       46.704       44.534       36.133     2181.241     1983.289     1305.619        0.597        0.274       77.718       27.722        0.127      345.293       22.721      859.803
06/25/2014  09:57:00       78.611       62.454       -2.691       33.521       21.250       25.941     1123.677      451.558      672.935        0.617        0.112      100.400       26.102        0.068      344.794       21.868      859.794
06/25/2014  09:58:00       23.123       67.736      -16.324       89.590       50.371       28.029     8026.306     2537.214      785.638        0.837        0.567       71.574       36.917        0.266      344.872       21.999      859.771
06/25/2014  09:59:00      -81.282       61.133      -18.707       77.316       40.948       49.267     5977.834     1676.708     2427.282        1.039        0.504      101.706       34.911        0.118      345.098       22.385      859.722
06/25/2014  10:00:00       81.152       54.568       23.419       76.810       49.863       41.240     5899.755     2486.300     1700.726        1.010        0.504       97.792       32.889        0.113      345.835       23.650      859.709
06/25/2014  10:01:00      118.053       79.736       25.272       63.807       42.432       44.039     4071.350     1800.497     1939.445        1.437        0.391      142.459       38.059        0.071      345.461       23.008      859.701
06/25/2014  10:02:00      121.452       80.112        1.002       36.909       33.819       34.762     1362.296     1143.707     1208.372        1.244        0.186      145.494       23.446        0.026      345.226       22.605      859.702
06/25/2014  10:03:00       62.360       50.520        9.980       53.313       31.167       39.750     2842.315      971.391     1580.101        0.597        0.270       80.256       29.317        0.133      345.785       23.562      859.692
06/25/2014  10:04:00        2.398       38.344        9.145       31.673       48.137       31.194     1003.171     2317.189      973.097        0.293        0.215       38.419       21.673        0.318      346.029       23.981      859.686
06/25/2014  10:05:00       41.845       35.750       18.242       25.359       31.400       31.573      643.093      985.958      996.827        0.299        0.131       55.037       25.448        0.214      345.609       23.261      859.668
06/25/2014  10:06:00       96.874       65.122       30.755       74.123       55.976       38.257     5494.186     3133.274     1463.598        1.233        0.505      116.728       26.344        0.051      345.657       23.344      859.627
06/25/2014  10:07:00       67.944       -0.346       17.073       59.346       72.097       43.022     3521.962     5198.045     1850.928        0.774        0.529       67.945       29.948        0.194      345.945       23.839      859.607
06/25/2014  10:08:00       70.319       85.273       72.978       97.401       63.909       60.246     9487.043     4084.300     3629.609        1.737        0.860      110.527       59.698        0.292      346.112       24.125      859.576
06/25/2014  10:09:00      159.339      114.697       50.771       73.705       57.071       56.571     5432.444     3257.128     3200.328        2.650        0.594      196.327       41.420        0.045      345.694       23.405      859.555
06/25/2014  10:10:00       78.866       44.272       95.915       98.957       85.871       74.315     9792.580     7373.881     5522.737        2.003        1.134       90.443       79.268        0.768      346.188       24.254      859.536
06/25/2014  10:11:00      111.804      -54.924       80.100      130.666      195.173      113.839    17073.519    38092.456    12959.316        4.502        3.406      124.566      147.503        1.402      345.830       23.637      859.520
06/25/2014  10:12:00      184.048     -200.536      -34.558       70.094       76.683       30.621     4913.135     5880.235      937.674        4.351        0.587      272.192       31.159        0.013      345.187       22.534      859.524
06/25/2014  10:13:00       24.556      -42.449       20.878       40.168       54.625       39.264     1613.506     2983.842     1541.643        0.449        0.307       49.040       33.735        0.473      345.900       23.764      859.520
06/25/2014  10:14:00       11.925        2.900       45.631       48.477       76.932       36.697     2349.971     5918.578     1346.652        0.592        0.481       12.272       31.944        6.775      346.114       24.130      859.501
06/25/2014  10:15:00       26.514       20.512       92.419      119.416      105.370       64.760    14260.179    11102.905     4193.851        1.961        1.478       33.522       63.178        3.552      346.139       24.171      859.490
06/25/2014  10:16:00       28.234      -33.961       32.579       33.800       40.708       39.674     1142.443     1657.152     1573.998        0.369        0.219       44.164       30.180        0.467      345.959       23.863      859.490
06/25/2014  10:17:00      -21.894      -52.497       32.260       34.051       60.410       31.099     1159.452     3649.388      967.123        0.503        0.289       56.880       12.677        0.050      346.312       24.470      859.454
06/25/2014  10:18:00      -18.945        9.936       42.636       28.026       40.367       29.846      785.449     1629.463      890.783        0.279        0.165       21.392       31.406        2.155      346.611       24.985      859.425
06/25/2014  10:19:00       13.477      -81.700        2.177       55.721       62.856       32.774     3104.809     3950.873     1074.121        0.749        0.406       82.804       35.764        0.187      346.218       24.307      859.397
06/25/2014  10:20:00      -42.033        4.152        3.518       21.798       31.060       21.930      475.138      964.741      480.907        0.186        0.096       42.238       13.827        0.107      345.512       23.097      859.378
06/25/2014  10:21:00       14.263      -68.371       -9.365       49.135       57.888       30.794     2414.279     3351.026      948.251        0.584        0.336       69.843       31.462        0.203      345.880       23.727      859.357
06/25/2014  10:22:00       15.192      -89.889       16.985       63.800       59.010       44.872     4070.380     3482.238     2013.530        0.908        0.478       91.164       37.976        0.174      345.983       23.904      859.347
06/25/2014  10:23:00       81.991       78.752       77.599       88.789       76.395       70.742     7883.517     5836.157     5004.406        1.883        0.936      113.685       58.247        0.263      346.056       24.029      859.325
06/25/2014  10:24:00       31.488       40.314       56.325       37.452       45.991       27.282     1402.651     2115.150      744.311        0.502        0.213       51.154       23.164        0.205      346.048       24.015      859.325
06/25/2014  10:25:00       42.440       13.435      -10.547       45.670       30.274       37.126     2085.750      916.492     1378.367        0.324        0.219       44.516       21.362        0.230      345.684       23.391      859.306
06/25/2014  10:26:00       62.056       77.863      -10.336       53.731       41.580       39.700     2886.972     1728.865     1576.118        0.811        0.310       99.568       24.707        0.062      345.836       23.653      859.269
06/25/2014  10:27:00       50.077       49.002        6.713       48.571       33.798       35.895     2359.173     1142.313     1288.415        0.487        0.239       70.063       25.860        0.136      345.845       23.668      859.247
06/25/2014  10:28:00       29.753        9.188       46.642       69.436       70.737       35.369     4821.289     5003.779     1250.957        0.711        0.554       31.140       24.180        0.603      346.302       24.452      859.215
06/25/2014  10:29:00       17.942       68.647      115.626       73.439       88.681       73.747     5393.235     7864.269     5438.654        1.855        0.935       70.953       70.645        0.991      346.568       24.909      859.214
06/25/2014  10:30:00       72.295      106.532       79.202       74.592       90.315       83.071     5564.010     8156.763     6900.739        2.173        1.031      128.746       73.764        0.328      345.781       23.555      859.207
06/25/2014  10:31:00       89.988     -157.166        2.460       94.736      111.605       66.374     8974.982    12455.682     4405.472        2.932        1.292      181.105       76.108        0.177      346.050       24.019      859.216
06/25/2014  10:32:00      106.313     -125.339       -8.340       77.461       84.380       50.000     6000.151     7120.001     2499.972        2.135        0.781      164.354       53.463        0.106      345.885       23.735      859.233
06/25/2014  10:33:00       41.587      -62.826       38.087       68.475      111.202       62.222     4688.804    12365.909     3871.563        1.402        1.046       75.343       82.758        1.207      346.231       24.330      859.234
06/25/2014  10:34:00       18.695       33.049       54.368       36.234       37.149       28.024     1312.927     1380.046      785.345        0.394        0.174       37.970       16.727        0.194      345.917       23.791      859.233
06/25/2014  10:35:00      -63.778       -1.857       -2.385       38.820       20.066       16.603     1507.001      402.651      275.670        0.313        0.109       63.805       10.285        0.026      345.989       23.915      859.216
06/25/2014  10:36:00     -100.077      -10.970      -10.406       16.666       19.628       14.148      277.739      385.255      200.178        0.555        0.043      100.676        6.500        0.004      345.616       23.274      859.200
06/25/2014  10:37:00      -88.813      -23.643        0.726       24.563       24.261       19.272      603.329      588.598      371.396        0.501        0.078       91.906       15.625        0.029      345.770       23.538      859.194
06/25/2014  10:38:00      -37.282      -39.662        8.071       38.127       47.738       27.030     1453.652     2278.873      730.604        0.374        0.223       54.434       26.265        0.233      346.214       24.301      859.171
06/25/2014  10:39:00      -45.287      -62.301        4.788       38.054       38.502       28.722     1448.081     1482.377      824.943        0.485        0.188       77.021       26.294        0.117      345.954       23.854      859.157
06/25/2014  10:40:00      -58.263      -25.080       -9.401       29.276       16.155       11.547      857.084      260.994      133.331        0.268        0.063       63.432        7.416        0.014      345.605       23.254      859.148
06/25/2014  10:41:00      -26.416      -16.623        1.607       11.392       14.505       11.154      129.785      210.389      124.423        0.072        0.023       31.211        4.601        0.022      345.983       23.904      859.132
06/25/2014  10:42:00       -4.650       10.105       27.522       25.442       20.854       26.734      647.305      434.882      714.731        0.134        0.090       11.124       13.975        1.578      347.119       25.858      859.117
06/25/2014  10:43:00      -20.614       -1.350       31.289       31.391       43.303       29.903      985.419     1875.155      894.164        0.258        0.188       20.659       23.187        1.260      346.953       25.573      859.117
06/25/2014  10:44:00      -28.149        5.676       17.034       36.064       46.332       33.277     1300.600     2146.624     1107.359        0.283        0.228       28.715       25.732        0.803      346.588       24.945      859.108
06/25/2014  10:45:00      -54.289      -16.137       -7.237       39.034       39.247       22.735     1523.623     1540.363      516.871        0.342        0.179       56.636       10.163        0.032      346.036       23.995      859.106
06/25/2014  10:46:00      -43.783      -11.566       -1.958       37.743       45.661       31.673     1424.522     2084.928     1003.196        0.328        0.226       45.285       22.504        0.247      346.259       24.379      859.099
06/25/2014  10:47:00       27.338       38.125       38.771       39.612       52.344       28.459     1569.072     2739.913      809.919        0.441        0.256       46.913       18.295        0.152      346.988       25.632      859.098
06/25/2014  10:48:00       27.075       25.480       35.953       49.827       50.000       61.900     2482.766     2500.042     3831.628        0.574        0.441       37.179       40.107        1.164      346.687       25.114      859.103
06/25/2014  10:49:00      -62.504      -33.267        5.371       42.650       53.930       25.360     1819.021     2908.495      643.148        0.521        0.269       70.806       23.033        0.106      346.445       24.697      859.109
06/25/2014  10:50:00      -56.069      -97.995        9.090       54.302       79.203       37.197     2948.760     6273.133     1383.636        1.172        0.530      112.901       32.521        0.083      345.893       23.748      859.114
06/25/2014  10:51:00     -103.357      -66.933        7.771       73.266       45.657       28.753     5367.883     2084.584      826.745        1.175        0.414      123.137       25.681        0.043      345.827       23.634      859.083
06/25/2014  10:52:00      -42.079      -92.995       -8.416       61.990       54.118       33.422     3842.765     2928.708     1117.005        0.919        0.394      102.072       21.676        0.045      345.930       23.813      859.067
06/25/2014  10:53:00      -55.646      -99.591       -7.808       78.228       51.397       31.077     6119.626     2641.686      965.766        1.140        0.486      114.083       21.289        0.035      345.806       23.598      859.066
06/25/2014  10:54:00      -40.748      -70.176        8.745       55.421       70.759       34.954     3071.526     5006.773     1221.805        0.798        0.465       81.149       28.270        0.121      346.033       23.991      859.057
06/25/2014  10:55:00      -98.878     -116.354      -10.366       52.483       60.466       35.967     2754.469     3656.096     1293.643        1.556        0.385      152.693       21.800        0.020      345.966       23.875      859.049
06/25/2014  10:56:00      -68.773      -55.495        9.361       63.331       39.809       32.790     4010.761     1584.777     1075.183        0.728        0.334       88.371       31.809        0.130      346.255       24.372      859.042
06/25/2014  10:57:00      -85.811      -73.226        2.409       44.780       29.395       25.272     2005.282      864.079      638.695        0.812        0.175      112.808       16.478        0.021      346.023       23.972      859.047
06/25/2014  10:58:00      -21.028      -28.640       31.220       40.898       38.967       28.080     1672.663     1518.412      788.458        0.311        0.199       35.531       25.397        0.511      346.674       25.093      859.035
06/25/2014  10:59:00      -74.783      -71.056       -2.567       31.974       53.553       21.190     1022.356     2867.894      449.018        0.749        0.217      103.158       22.771        0.049      345.870       23.710      859.027
06/25/2014  11:00:00      -76.811      -33.900       -4.762       38.112       29.722       20.078     1452.488      883.393      403.125        0.490        0.137       83.959       16.967        0.041      346.067       24.048      859.014
06/25/2014  11:01:00      -61.416      -73.561        5.100       53.809       48.801       27.158     2895.433     2381.514      737.550        0.761        0.301       95.829       31.286        0.107      346.132       24.160      858.999
06/25/2014  11:02:00      -81.624      -31.866       -4.703       50.283       31.599       30.193     2528.427      998.495      911.602        0.607        0.222       87.624       33.166        0.143      346.469       24.741      858.991
06/25/2014  11:03:00      -89.457      -36.952        3.822       64.353       43.196       28.104     4141.367     1865.925      789.827        0.809        0.340       96.788       34.837        0.130      346.312       24.469      858.966
06/25/2014  11:04:00      -74.812      -43.848        0.987       40.876       48.984       26.116     1670.837     2399.475      682.065        0.614        0.238       86.715       21.684        0.063      346.272       24.400      858.943
06/25/2014  11:05:00      -71.656     -137.156        5.690       65.709       89.978       41.192     4317.639     8096.053     1696.756        1.904        0.706      154.746       42.137        0.074      346.314       24.473      858.920
06/25/2014  11:06:00      -71.510      -99.749       -4.136       67.473       87.365       42.018     4552.660     7632.705     1765.504        1.451        0.698      122.734       49.192        0.161      346.083       24.074      858.920
06/25/2014  11:07:00     -106.378       -7.991        4.703       44.406       50.216       33.943     1971.893     2521.622     1152.107        0.852        0.282      106.677       22.240        0.043      346.152       24.195      858.925
06/25/2014  11:08:00      -18.234       16.167       10.714       46.689       25.304       31.003     2179.818      640.293      961.196        0.224        0.189       24.369       26.463        1.179      346.882       25.451      858.924
06/25/2014  11:09:00       -5.750       28.362        5.585       24.464       34.266       29.028      598.477     1174.172      842.614        0.174        0.131       28.939       25.182        0.757      347.222       26.036      858.933
06/25/2014  11:10:00       20.772      -11.791       -0.441       31.379       70.043       47.560      984.635     4905.991     2261.987        0.436        0.408       23.886       27.396        1.315      346.802       25.311      858.926
06/25/2014  11:11:00        5.345      -15.347       38.175       29.391       40.118       29.598      863.849     1609.446      876.043        0.253        0.167       16.251       27.536        2.871      347.527       26.563      858.936
06/25/2014  11:12:00       21.200       27.203       86.127       57.840       87.144       58.517     3345.432     7594.065     3424.205        1.148        0.718       34.489       69.141        4.019      347.219       26.030      858.928
06/25/2014  11:13:00        4.466        3.794       44.864       46.834       83.132       56.970     2193.415     6910.938     3245.537        0.720        0.617        5.860       49.628       71.734      347.190       25.982      858.911
06/25/2014  11:14:00        1.865       32.733       79.997       43.031       82.123       48.038     1851.654     6744.230     2307.622        0.919        0.545       32.786       47.313        2.083      347.018       25.683      858.894
06/25/2014  11:15:00       22.392      -67.195       27.527       28.897       68.050       51.360      835.023     4630.770     2637.845        0.694        0.405       70.828       48.312        0.465      346.768       25.253      858.879
06/25/2014  11:16:00       42.427       34.447       12.737       29.768       57.108       41.272      886.154     3261.361     1703.348        0.450        0.293       54.651       36.964        0.457      346.469       24.739      858.868
06/25/2014  11:17:00       96.481       79.492       15.351       44.504       30.037       34.469     1980.646      902.251     1188.091        0.997        0.204      125.010       14.883        0.014      346.158       24.206      858.840
06/25/2014  11:18:00       56.950      113.853      -19.505       60.517       53.171       44.240     3662.254     2827.180     1957.204        1.252        0.422      127.302       30.160        0.056      346.579       24.929      858.824
06/25/2014  11:19:00      114.631      104.983        7.779       67.114       51.997       50.463     4504.336     2703.706     2546.535        1.699        0.488      155.440       31.337        0.041      346.691       25.119      858.800
06/25/2014  11:20:00       84.670       57.053        0.617       50.494       35.082       30.090     2549.663     1230.723      905.418        0.755        0.234      102.099       20.939        0.042      346.871       25.430      858.801
06/25/2014  11:21:00       36.378       42.677       10.035       57.459       51.664       40.023     3301.504     2669.207     1601.841        0.541        0.379       56.077       36.902        0.433      347.179       25.963      858.792
06/25/2014  11:22:00       -0.999        7.575       40.685       30.733       28.263       25.505      944.509      798.822      650.526        0.205        0.120        7.641       14.796        3.750      347.899       27.203      858.797
06/25/2014  11:23:00      -22.162       68.822       14.974       31.972       54.265       31.845     1022.198     2944.731     1014.080        0.522        0.249       72.303       34.350        0.226      347.198       25.996      858.792
06/25/2014  11:24:00       -8.058       48.480        9.932       23.474       38.823       31.145      551.049     1507.262      969.987        0.277        0.151       49.145       19.599        0.159      347.671       26.812      858.796
06/25/2014  11:25:00       22.189       24.514       21.285       37.297       48.416       22.747     1391.074     2344.092      517.418        0.290        0.213       33.065       24.682        0.557      348.003       27.384      858.772
06/25/2014  11:26:00       16.145       31.937        2.422       43.201       36.005       30.244     1866.288     1296.333      914.710        0.268        0.204       35.787       27.916        0.609      347.446       26.422      858.776
06/25/2014  11:27:00      -22.661       92.065       11.269       50.880       72.479       40.374     2588.738     5253.249     1630.064        0.929        0.474       94.813       35.810        0.143      347.315       26.196      858.746
06/25/2014  11:28:00       14.905      121.649       -8.990       57.308       75.030       41.736     3284.201     5629.510     1741.871        1.288        0.533      122.558       42.621        0.121      346.835       25.369      858.721
06/25/2014  11:29:00       12.846      172.862      -18.588       63.915       66.678       48.959     4085.156     4445.927     2397.013        2.066        0.546      173.339       40.791        0.055      346.828       25.355      858.696
06/25/2014  11:30:00       50.685       39.527       28.629       57.451       42.408       31.329     3300.670     1798.470      981.516        0.551        0.304       64.276       12.449        0.038      347.032       25.709      858.688
06/25/2014  11:31:00       -1.195       29.920       58.944       64.454       50.865       35.569     4154.276     2587.258     1265.176        0.619        0.400       29.944       26.442        0.780      347.537       26.578      858.661
06/25/2014  11:32:00       27.608       45.084       66.757       46.656       44.438       34.924     2176.748     1974.758     1219.715        0.631        0.269       52.865       15.677        0.088      347.610       26.706      858.645
06/25/2014  11:33:00       22.907       54.221       17.537       50.494       41.154       32.831     2549.670     1693.658     1077.881        0.455        0.266       58.861       12.693        0.047      347.459       26.445      858.625
06/25/2014  11:34:00      174.390       79.891       37.776       83.357       55.725       59.541     6948.326     3105.257     3545.180        2.591        0.680      191.819       38.457        0.040      346.907       25.489      858.598
06/25/2014  11:35:00      113.128       65.864       63.047       58.249       51.342       43.260     3392.950     2636.005     1871.401        1.450        0.395      130.905       38.012        0.084      346.599       24.961      858.588
06/25/2014  11:36:00      122.995       48.761       36.057       96.425       94.734       50.048     9297.776     8974.517     2504.755        1.979        1.039      132.308       37.388        0.080      347.004       25.658      858.554
06/25/2014  11:37:00       78.376       -1.815       18.710       87.507       75.566       50.082     7657.520     5710.246     2508.220        1.118        0.794       78.397       26.029        0.110      346.997       25.647      858.551
06/25/2014  11:38:00       96.293      139.373       97.807       90.320       94.101       93.375     8157.653     8854.909     8718.915        3.199        1.287      169.403       81.721        0.233      346.611       24.980      858.555
06/25/2014  11:39:00      149.049      109.365       62.942      122.238       77.016       80.335    14942.107     5931.398     6453.774        3.273        1.366      184.869       47.697        0.067      347.114       25.844      858.554
06/25/2014  11:40:00       36.901      282.701      -19.667       84.269      129.437       60.385     7101.249    16754.043     3646.362        5.458        1.375      285.099       75.908        0.071      346.614       24.985      858.562
06/25/2014  11:41:00      -26.769       60.532       -9.582       69.175       48.269       30.587     4785.117     2329.899      935.560        0.626        0.403       66.187       31.577        0.228      346.958       25.581      858.550
06/25/2014  11:42:00      -69.722      243.742      -25.757       57.189       96.790       44.689     3270.562     9368.330     1997.124        3.978        0.732      253.518       38.557        0.023      346.666       25.075      858.542
06/25/2014  11:43:00      -50.307      375.620      -41.890       53.244       70.683       38.144     2834.877     4996.145     1454.937        7.733        0.464      378.974       32.799        0.007      346.370       24.564      858.523
06/25/2014  11:44:00      -64.162      367.222      -39.487       56.191       84.143       38.261     3157.392     7079.964     1463.934        7.611        0.585      372.785       43.711        0.014      346.437       24.680      858.524
06/25/2014  11:45:00      -35.134      226.059      -15.051       53.749      110.789       43.662     2888.990    12274.141     1906.328        3.481        0.853      228.773       48.147        0.044      346.772       25.259      858.546
06/25/2014  11:46:00      -41.523      168.609       -2.966       41.043       80.136       41.885     1684.525     6421.777     1754.368        2.001        0.493      173.647       42.580        0.060      347.255       26.093      858.527
06/25/2014  11:47:00      -85.247      181.586      -17.301       68.633       86.210       46.847     4710.454     7432.213     2194.632        2.744        0.717      200.600       32.670        0.027      346.975       25.606      858.530
06/25/2014  11:48:00      -50.961      126.333      -24.804       67.287       80.986       47.778     4527.604     6558.803     2282.725        1.627        0.668      136.224       44.452        0.106      346.730       25.187      858.529
06/25/2014  11:49:00      -17.836      204.376      -21.080       55.805      118.669       44.575     3114.152    14082.361     1986.909        3.085        0.959      205.153       54.854        0.071      346.816       25.333      858.520
06/25/2014  11:50:00      -29.661      194.170       -9.331       57.108       92.971       46.125     3261.270     8643.574     2127.549        2.635        0.702      196.422       54.473        0.077      347.070       25.772      858.512
06/25/2014  11:51:00      -20.575       81.127       11.410       36.382       61.251       30.884     1323.674     3751.636      953.835        0.658        0.301       83.695       34.008        0.165      347.916       27.236      858.513
06/25/2014  11:52:00        4.748       47.418       13.852       32.144       43.474       34.024     1033.210     1889.972     1157.604        0.327        0.204       47.655       28.014        0.346      347.662       26.793      858.492
06/25/2014  11:53:00      -15.583       51.856        5.262       25.409       42.387       27.943      645.612     1796.642      780.832        0.309        0.161       54.147       15.044        0.077      347.610       26.706      858.464
06/25/2014  11:54:00      -56.389       23.964        3.596       40.885       38.291       40.619     1671.587     1466.231     1649.926        0.428        0.239       61.270       31.451        0.263      347.680       26.825      858.428
06/25/2014  11:55:00        4.316       23.660       34.267       23.794       41.884       33.460      566.163     1754.242     1119.556        0.260        0.172       24.051       27.775        1.334      348.168       27.669      858.398
06/25/2014  11:56:00       87.138       71.256        9.216       83.057       74.747       54.256     6898.532     5587.072     2943.749        1.409        0.771      112.563       38.200        0.115      347.775       26.989      858.386
06/25/2014  11:57:00       92.212      158.385        1.967       71.548       89.192       63.306     5119.174     7955.293     4007.622        2.533        0.854      183.273       53.199        0.084      347.148       25.907      858.371
06/25/2014  11:58:00      119.702       88.959       10.746       39.945       39.252       44.327     1595.588     1540.716     1964.927        1.373        0.255      149.139       25.418        0.029      346.974       25.608      858.345
06/25/2014  11:59:00       60.586       36.163      -22.712       30.970       51.770       25.638      959.129     2680.115      657.330        0.489        0.215       70.558       24.088        0.117      346.688       25.114      858.310
06/25/2014  12:00:00       16.173      -56.156       41.586       48.446       79.318       44.454     2347.010     6291.352     1976.162        0.788        0.531       58.439       37.877        0.420      347.326       26.215      858.258
06/25/2014  12:01:00       14.542       81.975       10.531       29.703       58.252       32.233      882.253     3393.284     1038.980        0.618        0.266       83.254       16.316        0.038      347.295       26.161      858.238
06/25/2014  12:02:00       48.928      227.106      -22.713       47.346      121.357       51.669     2241.614    14727.574     2669.693        3.706        0.982      232.317       60.659        0.068      347.416       26.368      858.223
06/25/2014  12:03:00       47.475      123.188        2.419       46.825       73.793       48.469     2192.587     5445.468     2349.286        1.371        0.499      132.020       48.647        0.136      347.491       26.498      858.238
06/25/2014  12:04:00       65.988      169.670      -10.342       77.880       73.811       56.925     6065.260     5448.137     3240.468        2.400        0.738      182.051       48.970        0.072      347.135       25.884      858.227
06/25/2014  12:05:00      151.630      109.072       16.288       73.268       58.847       45.526     5368.215     3462.957     2072.638        2.303        0.545      186.784       31.363        0.028      347.283       26.138      858.223
06/25/2014  12:06:00      118.014       75.094       13.666       77.081       63.668       45.714     5941.478     4053.591     2089.788        1.592        0.604      139.880       25.388        0.033      347.109       25.839      858.221
06/25/2014  12:07:00        2.250       65.650       25.380       30.984       51.589       47.613      959.999     2661.440     2266.998        0.542        0.294       65.689       40.990        0.389      347.897       27.200      858.223
06/25/2014  12:08:00       18.515      100.493       -3.811       38.574       64.392       39.078     1487.935     4146.391     1527.093        0.881        0.358      102.184       33.142        0.105      347.636       26.750      858.200
06/25/2014  12:09:00       23.824      131.203        8.949       76.898       72.892       39.173     5913.308     5313.239     1534.507        1.531        0.638      133.348       36.482        0.075      347.791       27.016      858.159
06/25/2014  12:10:00       52.490      111.126       10.824       71.268       62.294       57.596     5079.104     3880.556     3317.265        1.375        0.614      122.899       38.174        0.096      347.863       27.142      858.126
06/25/2014  12:11:00       67.389       31.997       23.849       61.629       58.245       42.151     3798.093     3392.477     1776.701        0.755        0.448       74.599       25.441        0.116      347.870       27.152      858.105
06/25/2014  12:12:00      131.285       87.359       27.796       55.949       55.342       44.298     3130.247     3062.742     1962.272        1.690        0.408      157.694       33.950        0.046      347.669       26.804      858.089
06/25/2014  12:13:00      115.361       88.232       15.100      108.118       61.200       54.781    11689.499     3745.478     3000.914        1.988        0.922      145.235       35.056        0.058      347.717       26.887      858.084
06/25/2014  12:14:00       71.114       97.024       74.414       84.437       69.015       65.246     7129.575     4763.139     4257.005        1.808        0.807      120.295       43.367        0.130      348.075       27.506      858.074
06/25/2014  12:15:00      141.084      149.658       54.249       82.010       69.453       80.758     6725.673     4823.684     6521.934        3.166        0.904      205.675       48.024        0.055      347.344       26.243      858.081
06/25/2014  12:16:00       88.173       37.409       27.401       72.439       73.048       36.767     5247.449     5335.943     1351.799        1.093        0.597       95.781       18.582        0.038      347.388       26.322      858.095
06/25/2014  12:17:00       84.554       53.693       66.984       57.284       80.570       62.590     3281.444     6491.483     3917.488        1.410        0.685      100.161       32.914        0.108      347.442       26.414      858.086
06/25/2014  12:18:00       70.910       65.525       58.836       68.584       59.386       40.693     4703.803     3526.707     1655.903        1.133        0.494       96.549       39.179        0.165      347.484       26.485      858.066
06/25/2014  12:19:00       43.079       49.696       77.241       55.634       61.616       35.365     3095.105     3796.513     1250.667        0.922        0.407       65.768       23.321        0.126      347.844       27.108      858.042
06/25/2014  12:20:00       86.210       26.248       41.666       50.405       75.234       34.522     2540.666     5660.211     1191.775        0.962        0.470       90.117       27.268        0.092      347.464       26.452      858.024
06/25/2014  12:21:00      106.707      113.930       79.821       68.963       65.245       64.357     4755.869     4256.875     4141.845        2.194        0.658      156.098       52.987        0.115      347.533       26.567      857.986
06/25/2014  12:22:00      162.244      119.451      102.369       79.902       73.771       66.983     6384.309     5442.217     4486.720        3.369        0.816      201.474       49.340        0.060      347.293       26.155      857.975
06/25/2014  12:23:00      132.994      116.509       66.215       88.646       72.029       72.860     7858.091     5188.112     5308.539        2.700        0.918      176.810       66.200        0.140      347.186       25.971      857.964
06/25/2014  12:24:00       69.095       19.294       50.898       44.988       47.869       58.836     2023.910     2291.460     3461.677        0.776        0.389       71.739       36.571        0.260      347.477       26.475      857.937
06/25/2014  12:25:00       96.339       98.212      125.565       79.251       64.406       45.783     6280.659     4148.156     2096.113        2.361        0.626      137.575       43.322        0.099      347.441       26.411      857.909
06/25/2014  12:26:00      149.065      129.618       78.627      115.870       89.656       69.409    13425.822     8038.152     4817.649        3.574        1.314      197.537       48.638        0.061      347.550       26.598      857.877
06/25/2014  12:27:00      114.161      108.240       51.883       83.297       66.522       63.803     6938.348     4425.224     4070.839        2.143        0.772      157.316       52.154        0.110      347.831       27.084      857.864
06/25/2014  12:28:00      167.192      132.762       41.350       88.134       63.944       66.607     7767.629     4088.865     4436.495        3.179        0.815      213.492       37.516        0.031      347.643       26.758      857.875
06/25/2014  12:29:00       60.041      -18.332       33.652       86.923       81.935       37.970     7555.651     6713.380     1441.722        1.039        0.786       62.777       27.413        0.191      347.919       27.238      857.905
06/25/2014  12:30:00       -4.012      -82.059       -4.782       84.111       75.759       41.067     7074.598     5739.496     1686.493        1.063        0.725       82.158       40.721        0.246      347.843       27.107      857.968
06/25/2014  12:31:00     -282.334      -77.044      -20.547      201.706      119.960       73.180    40685.215    14390.433     5355.350        7.324        3.022      292.657       79.591        0.074      347.584       26.656      858.017
06/25/2014  12:32:00     -239.556       14.328       18.093      259.128      161.509       82.539    67147.435    26085.191     6812.732        7.897        5.002      239.984      113.125        0.222      347.920       27.235      857.879
06/25/2014  12:33:00     -517.052      -39.710      -26.000      218.051      141.711       91.784    47546.196    20081.876     8424.333       17.281        3.803      518.575      113.664        0.048      347.712       26.875      857.801
06/25/2014  12:34:00     -397.209      -92.588      -29.900      193.171      161.950       74.535    37314.998    26227.712     5555.532       11.816        3.455      407.857       87.872        0.046      347.778       26.990      857.798
06/25/2014  12:35:00     -154.979     -124.361       -9.315      107.751      104.386       46.875    11610.203    10896.516     2197.300        3.213        1.235      198.706       52.070        0.069      347.932       27.257      857.806
06/25/2014  12:36:00     -105.213      -96.080        4.051       82.323       79.799       39.474     6777.146     6367.817     1558.175        1.751        0.735      142.482       41.380        0.084      348.049       27.461      857.772
06/25/2014  12:37:00     -162.482     -144.715       -0.584      117.557      139.907       61.276    13819.557    19574.000     3754.793        4.224        1.857      217.585       64.602        0.088      348.073       27.498      857.739
06/25/2014  12:38:00     -489.782     -290.137       -4.640      274.653      236.570      110.801    75434.469    55965.486    12276.793       23.386        7.184      569.268      134.652        0.056      348.029       27.424      857.639
06/25/2014  12:39:00     -284.506     -252.077        3.823      216.536      168.792      105.800    46887.693    28490.683    11193.719       11.552        4.329      380.114      126.766        0.111      348.045       27.452      857.670
06/25/2014  12:40:00     -305.870     -257.930       -4.090      220.575      162.093      105.016    48653.373    26274.088    11028.265       12.301        4.298      400.106      112.181        0.079      347.992       27.362      857.657
06/25/2014  12:41:00     -188.883     -132.599        3.614      123.384      111.826       67.199    15223.711    12504.964     4515.705        4.275        1.612      230.780       71.243        0.095      348.220       27.754      857.658
06/25/2014  12:42:00     -189.625     -197.595       -1.591      125.716      108.150       70.374    15804.410    11696.528     4952.454        5.372        1.623      273.864       77.629        0.080      348.175       27.675      857.602
06/25/2014  12:43:00     -431.779      -60.205      -13.012      218.141      149.622       88.358    47585.614    22386.616     7807.130       13.399        3.889      435.956      105.069        0.058      348.343       27.967      857.595
06/25/2014  12:44:00     -443.784      -15.921      -12.524      259.262      158.163       89.958    67216.792    25015.410     8092.513       14.882        5.016      444.070      117.499        0.070      348.314       27.915      857.556
06/25/2014  12:45:00     -300.561     -215.354        0.132      175.540      167.119       82.627    30814.251    27928.718     6827.240       10.113        3.279      369.749       87.398        0.056      348.401       28.066      857.553
06/25/2014  12:46:00     -347.751     -147.626       -3.641      253.597      207.896      104.286    64311.410    43220.915    10875.668       13.055        5.920      377.789      113.672        0.091      348.310       27.910      857.543
06/25/2014  12:47:00     -520.960     -236.004      -20.165      249.213      187.171      102.015    62106.908    35032.916    10407.131       21.751        5.377      571.924      111.522        0.038      348.048       27.457      857.571
06/25/2014  12:48:00     -494.509     -158.231      -27.600      283.262      229.481      103.317    80237.130    52661.640    10674.391       20.693        7.179      519.207      109.199        0.044      347.824       27.069      857.586
06/25/2014  12:49:00     -305.268     -116.655       -6.694      216.750      139.686       84.820    46980.734    19512.044     7194.507        9.025        3.684      326.798      102.263        0.098      348.107       27.559      857.565
06/25/2014  12:50:00     -279.806     -116.902       11.953      212.309      149.463      104.956    45075.221    22339.317    11015.733        8.525        3.922      303.245      108.988        0.129      348.258       27.820      857.556
06/25/2014  12:51:00     -475.417     -215.108        4.043      280.449      232.741      114.278    78651.612    54168.250    13059.568       20.907        7.294      521.817      137.019        0.069      347.914       27.226      857.540
06/25/2014  12:52:00     -534.104     -360.365      -23.560      240.374      271.257      120.854    57779.474    73580.121    14605.599       28.080        7.298      644.306      133.004        0.043      347.808       27.043      857.515
06/25/2014  12:53:00     -481.856     -322.058       -2.123      265.889      186.827      123.912    70697.068    34904.168    15354.090       22.841        6.048      579.575      126.986        0.048      348.097       27.542      857.472
06/25/2014  12:54:00     -434.356     -192.987      -18.135      211.517      204.810      102.447    44739.381    41947.058    10495.314       16.169        4.859      475.299       96.857        0.042      348.253       27.811      857.532
06/25/2014  12:55:00     -475.648      -78.807      -14.745      286.766      193.677      110.342    82234.477    37510.947    12175.396       18.227        6.596      482.132      147.621        0.094      348.261       27.824      857.545
06/25/2014  12:56:00     -498.150      -62.679      -20.951      265.683      172.217       99.026    70587.506    29658.730     9806.075       18.127        5.503      502.078      122.978        0.060      348.153       27.638      857.562
06/25/2014  12:57:00     -429.701     -212.415       -5.794      182.349      168.690       92.053    33251.174    28456.206     8473.696       14.998        3.509      479.336       71.146        0.022      348.164       27.657      857.582
06/25/2014  12:58:00     -484.920     -271.872       -5.914      231.812      207.895      123.285    53736.681    43220.361    15199.253       21.061        5.608      555.934      128.996        0.054      347.936       27.263      857.533
06/25/2014  12:59:00     -637.876      -22.380      -18.086      311.176      216.885      132.503    96830.585    47039.194    17556.974       28.454        8.071      638.268      158.588        0.062      348.005       27.383      857.504
06/25/2014  13:00:00     -421.909     -217.704       -3.922      312.246      237.198      124.742    97497.812    56263.086    15560.586       19.734        8.466      474.765      148.497        0.098      348.112       27.567      857.533
06/25/2014  13:01:00     -550.151     -314.513        6.188      316.611      238.948      124.963   100242.573    57096.168    15615.761       28.726        8.648      633.707      152.421        0.058      347.789       27.009      857.489
06/25/2014  13:02:00     -580.043     -317.300       -6.590      283.592      238.783      114.957    80424.537    57017.139    13215.055       29.389        7.533      661.157      139.123        0.044      347.807       27.039      857.523
06/25/2014  13:03:00     -504.897     -202.695      -19.212      319.948      253.073      112.803   102366.508    64046.091    12724.499       23.773        8.957      544.065      147.125        0.073      347.712       26.876      857.502
06/25/2014  13:04:00     -439.757      -42.791      -34.884      230.169      129.780       70.408    52977.777    16842.758     4957.238       13.559        3.739      441.834       85.994        0.038      348.017       27.402      857.488
06/25/2014  13:05:00     -535.245     -143.617        2.222      354.193      247.675      148.067   125452.988    61342.678    21923.814       25.788       10.436      554.178      182.434        0.108      347.986       27.349      857.445
06/25/2014  13:06:00     -416.749     -132.434      -21.895      223.864      175.695       94.787    50115.277    30868.902     8984.540       14.082        4.498      437.285       97.737        0.050      348.244       27.795      857.494
06/25/2014  13:07:00     -701.085     -156.988      -29.858      289.350      217.989      116.608    83723.186    47519.353    13597.383       33.092        7.242      718.446      136.813        0.036      347.930       27.252      857.471
06/25/2014  13:08:00     -455.113     -206.559       12.449      227.637      212.294      111.020    51818.518    45068.939    12325.478       17.956        5.461      499.794      123.512        0.061      348.085       27.520      857.466
06/25/2014  13:09:00     -534.863     -324.223       -3.036      253.724      178.672      108.168    64375.834    31923.653    11700.291       24.959        5.400      625.459      132.667        0.045      347.809       27.045      857.478
06/25/2014  13:10:00     -548.739     -375.936      -13.623      214.335      191.646      111.592    45939.463    36728.230    12452.694       26.886        4.756      665.163      116.892        0.031      347.999       27.370      857.402
06/25/2014  13:11:00     -612.994     -401.132      -13.826      310.897      236.029      141.290    96656.663    55709.515    19962.923       35.457        8.616      732.576      154.858        0.045      348.083       27.517      857.355
06/25/2014  13:12:00     -489.251     -151.826      -21.392      293.441      224.838      122.132    86107.863    50552.023    14916.215       20.720        7.579      512.267      142.607        0.077      348.172       27.670      857.414
06/25/2014  13:13:00     -480.981     -114.438       -3.998      233.359      205.898      109.714    54456.438    42393.828    12037.079       17.665        5.444      494.407      112.571        0.052      348.011       27.392      857.438
06/25/2014  13:14:00     -647.435     -413.417       -9.022      317.109      262.937      122.313   100558.327    69135.951    14960.356       38.738        9.233      768.171      136.693        0.032      347.754       26.950      857.447
06/25/2014  13:15:00     -532.156     -310.107      -16.974      184.306      161.986      100.566    33968.609    26239.326    10113.516       22.497        3.516      615.919       90.210        0.021      347.752       26.944      857.416
06/25/2014  13:16:00     -156.957     -108.948       25.304      200.069      110.928       74.048    40027.671    12305.129     5483.044        4.747        2.891      191.063       75.961        0.158      348.273       27.845      857.454
06/25/2014  13:17:00     -551.443     -229.168      -20.998      260.261      271.427      121.517    67735.904    73672.488    14766.441       25.659        7.809      597.166      144.496        0.059      348.045       27.452      857.370
06/25/2014  13:18:00     -488.519     -353.277       -5.849      330.878      218.927      132.912   109480.546    47929.171    17665.502       26.925        8.754      602.872      149.683        0.062      347.923       27.240      857.323
06/25/2014  13:19:00     -464.875     -227.757       -2.664      282.581      261.192      108.367    79851.890    68221.464    11743.437       21.388        7.991      517.670      132.499        0.066      347.936       27.262      857.323
06/25/2014  13:20:00     -482.139     -312.017        5.701      344.529      327.844      168.685   118699.937   107481.537    28454.782       29.220       12.732      574.293      182.492        0.101      347.868       27.145      857.272
06/25/2014  13:21:00     -555.797     -246.616        7.805      323.280      219.981      136.288   104510.206    48391.818    18574.370       27.061        8.574      608.055      157.123        0.067      347.810       27.044      857.339
06/25/2014  13:22:00     -459.898     -106.816        6.517      290.218      200.759      121.274    84226.504    40304.097    14707.416       18.107        6.962      472.139      144.582        0.094      347.947       27.282      857.324
06/25/2014  13:23:00     -533.585     -342.613       -3.047      338.364      233.629      147.300   114489.948    54582.702    21697.423       29.641        9.539      634.111      159.151        0.063      347.880       27.166      857.366
06/25/2014  13:24:00     -621.837     -115.932      -28.555      297.814      195.167      108.205    88692.914    38090.121    11708.250       26.969        6.925      632.551      125.694        0.039      347.900       27.201      857.324
06/25/2014  13:25:00     -677.263      -93.387      -30.272      278.188      233.426      116.965    77388.501    54487.704    13680.763       30.692        7.278      683.672      135.165        0.039      347.892       27.187      857.362
06/25/2014  13:26:00     -392.641     -226.698      -25.158      247.555      171.338      118.643    61283.380    29356.784    14076.125       15.544        5.236      453.386      134.251        0.088      347.943       27.275      857.385
06/25/2014  13:27:00     -561.490     -347.244      -41.590      267.555      200.173      106.532    71585.539    40069.280    11349.000       28.027        6.150      660.189      103.875        0.025      347.700       26.856      857.370
06/25/2014  13:28:00     -420.492     -223.366       -3.180      216.380      203.439      119.267    46820.488    41387.237    14224.606       16.456        5.122      476.137      125.557        0.070      347.739       26.923      857.390
06/25/2014  13:29:00     -335.071     -194.584       -8.805      212.365      212.981       88.232    45098.859    45360.917     7784.920       12.421        4.912      387.474      102.379        0.070      347.784       27.002      857.349
06/25/2014  13:30:00     -378.249       -3.779      -16.685      222.559      215.787       78.132    49532.625    46564.185     6104.546       12.277        5.110      378.268       85.693        0.051      348.098       27.542      857.337
06/25/2014  13:31:00     -307.037      -76.631       -1.243      190.832      158.841       89.218    36416.985    25230.571     7959.821        8.486        3.480      316.455       99.277        0.098      348.301       27.892      857.295
06/25/2014  13:32:00     -450.288      -49.397        5.979      307.261      193.775      109.703    94409.336    37548.708    12034.659       17.459        7.200      452.989      138.319        0.093      348.231       27.773      857.249
06/25/2014  13:33:00     -352.457      -61.504      -11.647      245.626      152.229       98.179    60332.312    23173.568     9639.130       11.063        4.657      357.783      127.801        0.128      348.304       27.899      857.304
06/25/2014  13:34:00     -422.310     -198.795       -9.766      203.265      176.317       93.086    41316.782    31087.578     8664.970       14.950        4.053      466.760       85.480        0.034      348.267       27.835      857.304
06/25/2014  13:35:00     -381.033     -269.249        9.697      265.438      183.430       95.983    70457.360    33646.499     9212.788       16.553        5.666      466.564      118.209        0.064      348.185       27.694      857.294
06/25/2014  13:36:00     -497.407     -304.826      -11.865      288.842      234.066       97.216    83429.805    54786.783     9450.861       24.405        7.383      583.380      139.291        0.057      347.735       26.916      857.258
06/25/2014  13:37:00     -595.172     -344.117       -8.362      249.044      256.600      122.979    62022.863    65843.493    15123.931       30.783        7.150      687.492      113.992        0.027      347.676       26.814      857.206
06/25/2014  13:38:00     -599.825     -277.800      -11.467      310.462      255.858      116.920    96386.400    65463.237    13670.238       30.628        8.776      661.031      118.882        0.032      347.751       26.943      857.143
06/25/2014  13:39:00     -536.076     -217.150       -8.218      298.671      292.516      119.007    89204.598    85565.480    14162.608       26.173        9.447      578.387      148.375        0.066      348.052       27.463      857.191
06/25/2014  13:40:00     -616.272     -448.953        5.303      275.134      226.015      146.531    75698.804    51082.623    21471.257       36.479        7.413      762.463      167.341        0.048      347.875       27.156      857.200
06/25/2014  13:41:00     -340.435     -233.723       15.670      262.862      178.019       98.826    69096.269    31690.808     9766.513       14.064        5.528      412.944      120.302        0.085      348.058       27.474      857.290
06/25/2014  13:42:00     -380.152     -122.709        0.528      268.115      146.198       85.339    71885.869    21373.840     7282.702       13.004        5.027      399.466       83.858        0.044      347.981       27.340      857.284
06/25/2014  13:43:00     -449.518     -207.166        2.194      263.816      225.897      113.024    69599.140    51029.395    12774.349       18.917        6.670      494.959      133.243        0.072      348.042       27.446      857.226
06/25/2014  13:44:00     -538.485     -347.953      -16.037      221.345      161.142      112.852    48993.406    25966.793    12735.582       24.948        4.385      641.122      122.300        0.036      347.980       27.339      857.280
06/25/2014  13:45:00     -423.953     -403.087      -17.321      231.069      226.548      127.332    53392.685    51324.218    16213.504       23.170        6.047      584.992      142.454        0.059      347.935       27.263      857.249
06/25/2014  13:46:00     -282.234     -150.737       26.349      281.043      177.614      104.927    78985.274    31546.811    11009.687       11.229        6.077      319.965      133.866        0.175      348.234       27.779      857.250
06/25/2014  13:47:00     -687.274     -275.615      -44.856      310.638      221.158      136.409    96496.118    48910.795    18607.399       35.714        8.201      740.479      119.825        0.026      347.799       27.027      857.239
06/25/2014  13:48:00     -528.856     -218.726       -3.634      265.524      232.137      116.712    70503.150    53887.636    13621.789       23.275        6.901      572.302      128.263        0.050      347.875       27.157      857.294
06/25/2014  13:49:00     -534.480     -202.794      -15.608      209.999      190.696       96.216    44099.376    36365.010     9257.571       20.836        4.486      571.659       85.583        0.022      347.782       26.998      857.274
06/25/2014  13:50:00     -302.336     -241.435       24.122      244.584      257.065      117.144    59821.128    66082.236    13722.806       14.493        6.981      386.908      122.467        0.100      348.144       27.621      857.256
06/25/2014  13:51:00     -365.174     -282.040        8.148      240.832      235.782      119.845    58000.111    55593.060    14362.860       17.044        6.398      461.410      146.922        0.101      347.939       27.267      857.256
06/25/2014  13:52:00     -629.788     -304.749      -26.620      348.440      237.813      111.053   121410.434    56554.977    12332.669       34.022        9.515      699.646      131.762        0.035      347.875       27.157      857.174
06/25/2014  13:53:00     -645.214     -359.619      -35.288      288.952      258.903      132.222    83493.306    67030.971    17482.668       35.741        8.400      738.666      142.254        0.037      347.604       26.690      857.216
06/25/2014  13:54:00     -545.367     -379.624      -13.642      277.107      201.830      125.718    76788.377    40735.386    15805.076       28.750        6.666      664.484      153.411        0.053      347.650       26.769      857.185
06/25/2014  13:55:00     -323.675     -115.848        1.769      178.293      127.096       74.274    31788.287    16153.400     5516.573        8.581        2.673      343.782       82.468        0.058      347.946       27.281      857.229
06/25/2014  13:56:00     -519.743     -303.710      -17.964      268.969      229.027      113.240    72344.098    52453.187    12823.200       25.014        6.881      601.975      120.486        0.040      347.812       27.051      857.234
06/25/2014  13:57:00     -365.445     -179.018        5.773      281.609      239.268      128.934    79303.763    57249.341    16623.921       15.938        7.659      406.936      146.040        0.129      347.849       27.113      857.195
06/25/2014  13:58:00     -447.958     -149.219       10.924      311.074      266.996      144.208    96767.073    71286.683    20796.090       20.592        9.442      472.158      174.476        0.137      348.051       27.461      857.209
06/25/2014  13:59:00     -252.893     -164.816       20.801      262.350      168.742      128.026    68827.556    28473.990    16390.637       10.260        5.685      301.860      131.663        0.190      348.137       27.610      857.208
06/25/2014  14:00:00     -248.066     -130.989       24.306      196.957      132.523       89.702    38792.198    17562.239     8046.418        7.183        3.220      280.526       95.624        0.116      348.433       28.122      857.233
06/25/2014  14:01:00     -563.389     -292.740      -21.621      334.660      193.721       98.689   111997.564    37527.776     9739.595       28.139        7.963      634.904      109.735        0.030      348.112       27.565      857.219
06/25/2014  14:02:00     -609.672     -354.538      -15.129      233.440      240.146      118.995    54494.385    57670.048    14159.714       31.195        6.316      705.264      111.313        0.025      347.808       27.042      857.206
06/25/2014  14:03:00     -350.271     -271.606       -1.352      213.565      189.640       99.039    45610.170    35963.250     9808.721       14.391        4.569      443.237      103.205        0.054      347.844       27.106      857.231
06/25/2014  14:04:00     -357.998     -263.672       25.480      267.470      173.021      119.363    71540.259    29936.218    14247.630       15.701        5.786      444.619      142.489        0.103      347.680       26.822      857.219
06/25/2014  14:05:00     -384.716     -230.913        7.651      231.712      184.815      110.328    53690.658    34156.674    12172.230       15.069        5.001      448.696      120.153        0.072      347.700       26.855      857.217
06/25/2014  14:06:00     -468.404     -277.938       -5.564      247.887      157.285      102.957    61447.923    24738.436    10600.129       19.672        4.839      544.658      105.750        0.038      347.833       27.085      857.218
06/25/2014  14:07:00     -260.776     -162.987        6.402      205.159      179.187       85.305    42090.417    32108.055     7276.898        8.803        4.074      307.520      100.751        0.107      348.058       27.474      857.240
06/25/2014  14:08:00     -288.156     -208.710        9.239      214.199      183.869       98.583    45881.126    33807.659     9718.543       10.803        4.470      355.800      106.799        0.090      347.980       27.339      857.196
06/25/2014  14:09:00     -325.073     -237.320       18.242      264.064      182.861      103.283    69730.036    33438.085    10667.398       13.806        5.692      402.484      113.814        0.080      347.967       27.317      857.219
06/25/2014  14:10:00     -541.526     -282.088      -12.477      369.303      248.980      125.124   136384.649    61990.811    15656.051       29.347       10.702      610.593      161.149        0.070      347.606       26.693      857.243
06/25/2014  14:11:00     -713.077     -295.679       -5.561      255.905      195.502      114.205    65487.237    38221.003    13042.787       35.632        5.838      771.949      126.649        0.027      347.608       26.697      857.245
06/25/2014  14:12:00     -536.772     -212.196        5.971      347.440      212.734      115.130   120714.544    45255.877    13254.983       25.618        8.961      577.192      148.333        0.066      347.506       26.520      857.220
06/25/2014  14:13:00     -576.253     -175.696       -6.308      275.891      216.115      112.686    76115.634    46705.853    12698.086       24.923        6.776      602.442      122.663        0.041      347.657       26.782      857.235
06/25/2014  14:14:00     -511.943     -351.370      -11.064      242.009      186.237      113.500    58568.467    34684.168    12882.276       24.588        5.307      620.924      119.715        0.037      347.486       26.487      857.268
06/25/2014  14:15:00     -425.357     -264.972       -1.988      262.135      171.912      110.758    68714.723    29553.643    12267.309       18.082        5.527      501.138      126.757        0.064      347.478       26.473      857.260
06/25/2014  14:16:00     -633.880     -346.198      -24.514      338.441      303.201      141.963   114542.500    91931.095    20153.586       37.440       11.331      722.258      179.471        0.062      347.359       26.267      857.263
06/25/2014  14:17:00     -547.978     -339.858      -19.972      323.573      245.886      129.667   104699.702    60460.055    16813.585       29.905        9.099      644.812      156.912        0.059      347.326       26.210      857.172
06/25/2014  14:18:00     -456.310     -383.386        0.939      314.773      261.139      161.742    99081.753    68193.525    26160.457       27.429        9.672      595.990      170.336        0.082      347.446       26.418      857.182
06/25/2014  14:19:00     -531.219     -253.285      -12.135      266.488      271.134      111.797    71015.754    73513.846    12498.527       25.174        7.851      588.513       97.018        0.027      347.566       26.624      857.211
06/25/2014  14:20:00     -577.322     -336.193       -4.280      270.298      271.742      135.160    73061.049    73843.847    18268.311       30.573        8.259      668.077      146.255        0.048      347.426       26.383      857.182
06/25/2014  14:21:00     -423.789      -43.337       -1.546      227.810      174.039       96.356    51897.318    30289.454     9284.396       13.646        4.574      425.999       91.062        0.046      347.580       26.649      857.236
06/25/2014  14:22:00     -544.230     -304.171       -9.851      291.742      214.737      119.313    85113.439    46112.025    14235.663       26.711        7.273      623.463      128.371        0.042      347.452       26.427      857.237
06/25/2014  14:23:00     -448.283     -182.282        7.958      285.698      235.647      132.488    81623.606    55529.487    17553.007       19.445        7.735      483.926      142.839        0.087      347.452       26.428      857.244
06/25/2014  14:24:00     -789.958     -447.498      -36.542      300.325      259.829      132.845    90195.062    67511.143    17647.821       50.046        8.768      907.903      139.728        0.024      347.188       25.972      857.227
06/25/2014  14:25:00     -468.417     -173.955      -31.119      323.241      229.204      139.700   104485.015    52534.513    19516.075       21.356        8.827      499.675      154.994        0.096      347.255       26.088      857.228
06/25/2014  14:26:00     -573.659     -105.349      -31.302      312.535      182.557      111.720    97678.380    33327.222    12481.345       24.230        7.174      583.252      125.059        0.046      347.206       26.004      857.260
06/25/2014  14:27:00     -395.523     -265.302        2.715      269.362      219.496      114.023    72556.129    48178.433    13001.224       18.026        6.687      476.261      139.117        0.085      347.266       26.108      857.230
06/25/2014  14:28:00     -409.963      -79.176       13.437      247.431      187.150      103.176    61221.870    35025.171    10645.299       14.069        5.345      417.538      130.466        0.098      347.327       26.213      857.202
06/25/2014  14:29:00     -504.737     -285.064      -30.690      272.616      218.608      115.711    74319.689    47789.283    13388.964       23.621        6.775      579.673      133.270        0.053      347.329       26.215      857.218
06/25/2014  14:30:00     -439.620     -198.141       25.828      302.851      224.237      134.595    91718.436    50282.061    18115.928       19.663        8.006      482.209      154.171        0.102      347.372       26.290      857.195
06/25/2014  14:31:00     -473.512      -85.602       -2.096      247.587      218.621      111.189    61299.159    47795.033    12363.058       17.648        6.073      481.188      122.714        0.065      347.302       26.170      857.213
06/25/2014  14:32:00     -396.827     -138.867       -2.095      210.592      224.709      101.897    44348.806    50494.086    10383.060       14.098        5.261      420.423      113.165        0.072      347.379       26.302      857.209
06/25/2014  14:33:00     -413.408     -281.862      -10.502      291.967      243.309      138.784    85244.983    59199.039    19261.049       20.706        8.185      500.353      160.235        0.103      347.325       26.209      857.196
06/25/2014  14:34:00     -458.087     -161.130       -7.273      244.702      206.718      106.462    59879.050    42732.194    11334.146       17.488        5.697      485.599      118.598        0.060      347.331       26.219      857.216
06/25/2014  14:35:00     -665.540     -238.485       -1.278      364.115      235.218      126.800   132579.836    55327.638    16078.313       35.187       10.199      706.979      170.804        0.058      347.298       26.163      857.225
06/25/2014  14:36:00     -606.011     -380.496      -30.020      282.843      217.227      116.435    79999.952    47187.368    13557.131       32.681        7.037      715.561      129.232        0.033      347.340       26.234      857.218
06/25/2014  14:37:00     -402.313     -133.168        9.164      236.400      234.338      106.052    55885.092    54914.130    11247.065       15.084        6.102      423.780      120.532        0.081      347.363       26.275      857.253
06/25/2014  14:38:00     -511.161     -301.956       -2.119      311.047      279.408      125.528    96750.452    78068.827    15757.287       27.149        9.529      593.686      145.127        0.060      347.304       26.173      857.194
06/25/2014  14:39:00     -335.466     -227.675       -2.271      230.406      197.794      111.493    53087.144    39122.565    12430.788       13.449        5.232      405.430      118.830        0.086      347.441       26.409      857.208
06/25/2014  14:40:00     -509.309     -210.238        5.491      244.929      236.771      104.206    59990.301    56060.412    10858.912       21.525        6.345      550.995      103.967        0.036      347.422       26.376      857.231
06/25/2014  14:41:00     -441.135     -197.028      -14.750      237.404      201.740      119.103    56360.709    40699.142    14185.553       17.242        5.562      483.136      115.928        0.058      347.446       26.417      857.272
06/25/2014  14:42:00     -379.847     -248.296       -1.970      203.455      192.126      107.466    41394.128    36912.280    11548.881       14.788        4.493      453.800      112.126        0.061      347.416       26.366      857.292
06/25/2014  14:43:00     -447.083     -143.719      -10.267      159.161      200.740       96.803    25332.115    40296.642     9370.737       14.781        3.750      469.615       87.761        0.035      347.403       26.343      857.305
06/25/2014  14:44:00     -401.274     -163.459       17.255      297.855      255.757      127.127    88717.569    65411.744    16161.357       17.914        8.515      433.290      137.014        0.100      347.495       26.503      857.245
06/25/2014  14:45:00     -590.081     -227.694      -21.991      294.152      246.407      119.479    86525.141    60716.523    14275.136       28.099        8.076      632.488      118.868        0.035      347.344       26.242      857.251
06/25/2014  14:46:00     -465.947     -197.743        9.352      315.900      224.948      131.486    99793.089    50601.701    17288.501       21.196        8.384      506.171      148.296        0.086      347.330       26.217      857.275
06/25/2014  14:47:00     -579.059     -147.339      -11.512      260.663      190.380      117.204    67945.343    36244.360    13736.797       23.752        5.896      597.510      127.679        0.046      347.340       26.234      857.264
06/25/2014  14:48:00     -308.325     -115.961       12.259      242.077      170.904      109.883    58601.296    29208.157    12074.199       10.426        4.994      329.410      113.235        0.118      347.479       26.476      857.224
06/25/2014  14:49:00     -442.509     -293.600      -15.364      250.815      212.641      110.185    62908.151    45216.177    12140.716       20.124        6.013      531.051      120.129        0.051      347.533       26.568      857.218
06/25/2014  14:50:00     -482.498     -190.832        3.804      306.627      242.306      115.484    94020.136    58712.329    13336.545       21.762        8.303      518.865      140.999        0.074      347.698       26.854      857.133
06/25/2014  14:51:00     -442.152     -276.221       -5.703      273.102      258.143      124.307    74584.434    66637.852    15452.187       21.423        7.834      521.341      121.783        0.055      347.645       26.761      857.164
06/25/2014  14:52:00     -479.412     -333.552       -6.286      243.744      177.773      114.178    59410.967    31603.331    13036.712       22.257        5.203      584.031      116.345        0.040      347.738       26.921      857.199
06/25/2014  14:53:00     -570.923     -158.136      -30.482      279.637      220.281      121.797    78196.649    48523.905    14834.615       24.670        7.078      592.419      124.138        0.044      347.933       27.258      857.253
06/25/2014  14:54:00     -503.641     -295.769        3.854      295.430      210.415      125.061    87279.107    44274.315    15640.345       24.415        7.360      584.067      141.665        0.059      347.702       26.859      857.252
06/25/2014  14:55:00     -484.317     -312.569       -0.021      318.924      239.584      126.652   101712.305    57400.503    16040.785       25.368        8.758      576.422      145.547        0.064      347.774       26.984      857.263
06/25/2014  14:56:00     -569.125     -343.803      -23.396      280.408      228.160      130.993    78628.776    52056.964    17159.254       29.522        7.392      664.908      129.891        0.038      347.649       26.766      857.149
06/25/2014  14:57:00     -517.592     -402.194        4.813      284.380      238.950      141.129    80871.970    57097.153    19917.519       29.376        7.894      655.485      153.823        0.055      347.678       26.818      857.239
06/25/2014  14:58:00     -500.047     -247.714        2.135      312.468      290.605      129.380    97636.082    84451.166    16739.209       25.509        9.941      558.040      149.827        0.072      347.540       26.579      857.201
06/25/2014  14:59:00     -640.806     -385.677      -13.170      278.661      236.687      112.880    77651.772    56020.794    12741.889       35.296        7.321      747.917      124.293        0.028      347.569       26.630      857.184
06/25/2014  15:00:00     -386.674     -278.345       -5.789      285.333      204.452      122.760    81414.669    41800.464    15069.930       18.263        6.914      476.438      136.564        0.082      347.652       26.773      857.222
06/25/2014  15:01:00     -543.506     -184.627       -6.532      260.437      181.846       99.855    67827.422    33068.010     9970.982       22.018        5.543      574.009      121.292        0.045      347.436       26.401      857.200
06/25/2014  15:02:00     -382.101     -160.171       -0.235      266.507      236.175      108.914    71025.961    55778.482    11862.243       15.514        6.933      414.314      139.561        0.113      347.630       26.735      857.253
06/25/2014  15:03:00     -443.276     -301.979       10.773      317.392      225.952      138.967   100737.546    51054.519    19311.812       22.942        8.555      536.362      168.741        0.099      347.352       26.254      857.241
06/25/2014  15:04:00     -460.884     -325.747       -2.980      264.125      220.193      106.302    69762.251    48485.159    11300.059       22.402        6.477      564.380      129.486        0.053      347.302       26.170      857.283
06/25/2014  15:05:00     -711.101     -380.930      -25.235      360.148      266.405      135.270   129706.742    70971.879    18297.875       43.516       10.949      806.704      168.825        0.044      347.158       25.921      857.289
06/25/2014  15:06:00     -510.881     -354.333       -7.070      309.489      204.225      116.682    95783.576    41707.929    13614.655       26.883        7.555      621.732      130.556        0.044      347.160       25.923      857.292
06/25/2014  15:07:00     -618.943     -366.391       -5.669      294.439      262.141      128.097    86694.269    68718.129    16408.921       34.456        8.591      719.259      148.005        0.042      347.086       25.798      857.252
06/25/2014  15:08:00     -590.485     -181.596      -24.737      378.676      276.958      112.995   143395.527    76705.996    12767.943       30.753       11.643      617.778      151.481        0.060      347.205       26.002      857.310
06/25/2014  15:09:00     -451.139     -152.700       10.147      316.905      269.693      116.081   100429.043    72734.100    13474.790       20.676        9.332      476.282      146.570        0.095      347.240       26.061      857.289
06/25/2014  15:10:00     -443.602     -179.447       -5.226      247.632      237.080      112.575    61321.717    56207.063    12673.094       17.958        6.510      478.523      110.546        0.053      347.249       26.078      857.272
06/25/2014  15:11:00     -460.060     -130.987        0.624      273.980      226.031      124.294    75065.237    51090.080    15449.038       18.518        7.080      478.344      138.912        0.084      347.346       26.245      857.234
06/25/2014  15:12:00     -561.248     -270.961       -7.362      373.871      264.616      135.976   139779.218    70021.773    18489.581       30.834       11.415      623.233      165.631        0.071      347.323       26.205      857.253
06/25/2014  15:13:00     -561.886     -293.433      -19.415      306.906      247.950      145.672    94191.227    61479.224    21220.381       28.951        8.845      633.892      162.017        0.065      347.293       26.155      857.236
06/25/2014  15:14:00     -558.585     -218.534       -1.321      360.881      221.876      132.527   130235.259    49228.784    17563.491       27.837        9.851      599.812      164.959        0.076      347.275       26.123      857.234
06/25/2014  15:15:00     -450.209     -252.871      -14.639      283.309      203.054      126.879    80263.896    41231.059    16098.219       20.220        6.880      516.364      133.259        0.067      347.316       26.195      857.244
06/25/2014  15:16:00     -531.621     -149.145      -11.306      263.829      206.665      113.324    69605.824    42710.250    12842.404       21.505        6.258      552.146      124.798        0.051      347.348       26.249      857.236
06/25/2014  15:17:00     -405.341      -57.319        1.114      295.218      204.865      124.736    87153.373    41969.776    15558.946       15.611        7.234      409.374      153.608        0.141      347.514       26.534      857.215
06/25/2014  15:18:00     -372.278     -198.132       -7.435      260.049      189.510      100.020    67625.278    35914.149    10003.999       14.570        5.677      421.720      132.540        0.099      347.558       26.612      857.255
06/25/2014  15:19:00     -555.416     -291.490       -8.889      277.722      266.980      142.171    77129.579    71278.535    20212.485       28.105        8.431      627.258      157.068        0.063      347.365       26.278      857.275
06/25/2014  15:20:00     -522.837     -119.583      -23.624      247.910      271.712      105.433    61459.171    73827.485    11116.161       21.729        7.320      536.339      113.251        0.045      347.214       26.018      857.249
06/25/2014  15:21:00     -266.549     -141.527       10.752      190.808      160.835       84.388    36407.745    25867.771     7121.262        8.028        3.470      301.792       88.643        0.086      347.412       26.358      857.260
06/25/2014  15:22:00     -325.467     -172.145      -11.893      249.965      140.809      104.371    62482.323    19827.308    10893.341       11.444        4.660      368.188      113.238        0.095      347.466       26.452      857.234
06/25/2014  15:23:00     -550.858      -66.054      -28.888      208.431      190.614       96.878    43443.291    36333.510     9385.311       19.889        4.458      554.804       88.863        0.026      347.413       26.361      857.240
06/25/2014  15:24:00     -418.677     -174.366       -0.622      328.437      229.055      119.715   107871.007    52466.391    14331.789       19.015        8.733      453.535      158.738        0.123      347.505       26.520      857.257
06/25/2014  15:25:00     -524.022      -87.613      -26.032      282.332      169.235       88.332    79711.320    28640.498     7802.598       19.953        5.808      531.296      108.294        0.042      347.581       26.650      857.301
06/25/2014  15:26:00     -625.571     -176.045      -10.133      289.071      242.199      116.350    83562.018    58660.380    13537.266       28.907        7.788      649.870      115.696        0.032      347.454       26.430      857.307
06/25/2014  15:27:00     -632.726     -296.741      -13.094      305.233      209.466      126.420    93167.463    43875.876    15982.010       32.077        7.651      698.854      148.831        0.045      347.328       26.214      857.326
06/25/2014  15:28:00     -649.794     -314.177      -26.623      273.643      238.508      110.252    74880.762    56886.261    12155.426       33.276        7.196      721.761      135.902        0.035      347.131       25.875      857.322
06/25/2014  15:29:00     -428.566     -114.897       -2.695      239.594      197.176      108.517    57405.306    38878.218    11775.856       15.245        5.403      443.700      113.006        0.065      347.447       26.420      857.347
06/25/2014  15:30:00     -522.169     -249.214       -3.158      285.277      264.980      129.081    81383.171    70214.259    16661.875       25.149        8.413      578.591      145.812        0.064      347.218       26.025      857.349
06/25/2014  15:31:00     -397.007      -67.923       12.388      318.116      198.830      129.225   101197.726    39533.434    16698.984       15.988        7.872      402.776      144.991        0.130      347.341       26.236      857.308
06/25/2014  15:32:00     -563.456     -216.036       -5.563      248.425      277.118      118.630    61714.875    76794.196    14073.099       25.836        7.629      603.452      104.679        0.030      347.156       25.917      857.365
06/25/2014  15:33:00     -587.312     -265.052       -3.413      380.060      226.137      127.207   144445.893    51138.139    16181.691       31.345       10.588      644.351      164.690        0.065      347.066       25.762      857.363
06/25/2014  15:34:00     -452.078      -86.074       -4.197      225.283      206.963      118.493    50752.575    42833.594    14040.663       15.970        5.381      460.199      126.017        0.075      347.215       26.021      857.364
06/25/2014  15:35:00     -455.749     -155.637      -15.498      288.182      184.943      122.410    83048.594    34204.062    14984.145       18.218        6.612      481.591      135.685        0.079      347.305       26.174      857.355
06/25/2014  15:36:00     -396.471     -185.019        2.117      277.442      243.577      128.385    76974.100    59329.737    16482.648       17.208        7.639      437.517      133.332        0.093      347.147       25.902      857.335
06/25/2014  15:37:00     -436.915     -247.587       -1.627      267.380      223.279      117.385    71492.090    49853.538    13779.185       19.364        6.756      502.189      141.225        0.079      347.073       25.773      857.369
06/25/2014  15:38:00     -392.902     -253.648        7.642      231.492      209.775      107.521    53588.595    44005.752    11560.725       16.394        5.458      467.663      122.013        0.068      347.119       25.853      857.401
06/25/2014  15:39:00     -561.442     -199.159      -15.056      287.639      240.817      123.179    82736.311    57992.782    15173.002       25.548        7.795      595.719      138.536        0.054      346.998       25.647      857.346
06/25/2014  15:40:00     -358.234     -190.541        5.817      311.389      229.733      135.223    96963.246    52777.352    18285.126       16.632        8.401      405.756      142.058        0.123      347.163       25.929      857.335
06/25/2014  15:41:00     -632.136     -196.470       -4.083      330.834      199.001      117.081   109451.059    39601.456    13707.891       30.046        8.138      661.964      145.174        0.048      347.081       25.789      857.322
06/25/2014  15:42:00     -366.614     -113.936       -0.797      262.114      223.848      124.597    68703.771    50107.919    15524.462       14.084        6.717      383.911      137.326        0.128      347.202       25.998      857.275
06/25/2014  15:43:00     -472.638     -232.711      -37.376      286.522      212.476      121.867    82095.098    45146.031    14851.492       21.049        7.105      526.822      132.957        0.064      347.111       25.840      857.267
06/25/2014  15:44:00     -438.875     -187.765      -16.961      260.677      218.542      109.211    67952.673    47760.556    11927.001       17.788        6.382      477.354      127.269        0.071      347.114       25.845      857.296
06/25/2014  15:45:00     -251.802     -134.233        1.287      155.277      197.352       81.522    24111.019    38947.705     6645.791        7.555        3.485      285.347       86.105        0.091      347.202       25.998      857.290
06/25/2014  15:46:00     -411.733     -231.516      -12.672      223.095      198.018      104.211    49771.512    39210.970    10859.950       16.155        4.992      472.360      106.975        0.051      347.242       26.065      857.307
06/25/2014  15:47:00     -465.187     -312.561      -49.624      240.576      202.548      111.817    57876.930    41025.567    12502.942       21.396        5.570      560.440      124.615        0.049      347.034       25.708      857.269
06/25/2014  15:48:00     -376.241     -136.605       -4.042      239.483      179.638       95.838    57352.114    32269.943     9184.908       12.950        4.940      400.272      104.851        0.069      347.224       26.036      857.286
06/25/2014  15:49:00     -423.444     -286.934       -9.637      259.321      194.034      114.838    67247.597    37649.175    13187.665       18.989        5.904      511.504      111.886        0.048      347.085       25.795      857.261
06/25/2014  15:50:00     -426.740     -277.770       -5.672      222.903      203.391       99.513    49685.805    41367.737     9902.895       18.011        5.048      509.179      100.662        0.039      347.174       25.951      857.243
06/25/2014  15:51:00     -534.164     -145.700       -8.498      363.203      298.379      114.785   131916.778    89030.153    13175.672       27.034       11.706      553.678      138.712        0.063      347.226       26.038      857.276
06/25/2014  15:52:00     -583.541     -214.565      -16.753      295.751      183.521      105.413    87468.370    33679.850    11111.933       25.953        6.613      621.738      126.322        0.041      347.139       25.888      857.261
06/25/2014  15:53:00     -377.228      -91.963       33.428      322.689      187.162      156.288   104127.934    35029.694    24426.006       15.770        8.179      388.276      172.875        0.198      347.298       26.162      857.258
06/25/2014  15:54:00     -426.039     -214.208      -13.159      331.808      219.569      110.426   110096.530    48210.411    12193.895       19.901        8.525      476.858      137.018        0.083      347.337       26.229      857.277
06/25/2014  15:55:00     -541.974     -361.981      -20.689      320.484      212.281      146.084   102710.174    45063.324    21340.517       29.713        8.456      651.741      171.191        0.069      347.137       25.884      857.254
06/25/2014  15:56:00     -623.504     -146.192      -29.818      238.842      153.678      105.275    57045.644    23616.832    11082.835       25.137        4.587      640.413      120.362        0.035      347.246       26.073      857.312
06/25/2014  15:57:00     -493.622     -143.474      -16.417      296.285      164.259      106.001    87785.035    26980.933    11236.174       19.524        6.300      514.050      124.135        0.058      347.151       25.909      857.352
06/25/2014  15:58:00     -147.866     -108.901       30.933      146.459      121.586       57.442    21450.118    14783.250     3299.535        3.710        1.977      183.640       67.329        0.134      347.602       26.687      857.375
06/25/2014  15:59:00     -313.706     -254.790        6.390      256.453      202.025      101.266    65768.356    40813.943    10254.890       14.008        5.842      404.140      118.665        0.086      347.336       26.228      857.303
06/25/2014  16:00:00     -356.738     -213.429      -17.212      182.172      222.940      106.803    33186.480    49702.227    11406.924       13.369        4.715      415.709      118.797        0.082      347.418       26.370      857.309
06/25/2014  16:01:00     -656.759     -251.620      -37.267      277.765      182.247      116.906    77153.442    33213.864    13667.099       31.001        6.202      703.310      114.653        0.027      347.185       25.967      857.313
06/25/2014  16:02:00     -633.627     -141.375      -36.797      299.399      168.806      117.942    89639.909    28495.363    13910.198       27.741        6.602      649.207      141.301        0.047      347.190       25.978      857.310
06/25/2014  16:03:00     -545.338     -187.810      -15.538      253.065      191.049       97.895    64041.925    36499.810     9583.386       22.150        5.506      576.772      115.667        0.040      347.248       26.076      857.311
06/25/2014  16:04:00     -434.656     -280.147        2.893      271.567      228.384      114.401    73748.518    52159.441    13087.587       20.318        6.950      517.115      137.438        0.071      347.208       26.008      857.345
06/25/2014  16:05:00     -593.800     -322.580      -15.744      246.723      196.620      106.701    60872.277    38659.578    11385.209       28.389        5.546      675.763      112.517        0.028      347.067       25.764      857.350
06/25/2014  16:06:00     -624.164     -346.843      -20.372      228.129      206.542      105.823    52043.047    42659.624    11198.528       30.808        5.295      714.060      116.870        0.027      347.004       25.655      857.336
06/25/2014  16:07:00     -358.107     -224.672        3.229      232.748      189.040       97.250    54171.838    35735.973     9457.515       13.903        4.968      422.751      122.160        0.084      347.073       25.775      857.343
06/25/2014  16:08:00     -326.855     -242.304       10.733      220.544      158.411       98.461    48639.609    25094.122     9694.490       12.453        4.171      406.873      115.037        0.080      347.217       26.023      857.298
06/25/2014  16:09:00     -406.714      -99.683        6.185      228.154      190.370      104.674    52054.052    36240.923    10956.615       13.730        4.963      418.751      111.358        0.071      347.396       26.331      857.307
06/25/2014  16:10:00     -309.481     -224.011       29.551      235.563      185.004      100.324    55489.818    34226.549    10065.002       12.329        4.989      382.047      114.951        0.091      347.334       26.225      857.379
06/25/2014  16:11:00     -463.430     -314.157       -6.149      271.971      175.375      114.040    73968.410    30756.453    13005.164       21.560        5.887      559.877      135.658        0.059      346.846       25.384      857.385
06/25/2014  16:12:00     -547.228     -295.574       -1.503      255.374      176.557      107.069    65215.807    31172.303    11463.768       24.732        5.393      621.951      127.046        0.042      346.950       25.563      857.372
06/25/2014  16:13:00     -417.360     -204.616      -20.905      222.846      178.196       94.306    49660.418    31753.918     8893.712       15.339        4.515      464.819      106.135        0.052      346.980       25.614      857.387
06/25/2014  16:14:00     -561.548     -216.549      -31.840      302.429      225.013       98.145    91463.288    50630.823     9632.409       25.746        7.586      601.856      122.775        0.042      346.927       25.523      857.351
06/25/2014  16:15:00     -474.079     -196.006      -12.773      289.856      165.081      117.956    84016.691    27251.649    13913.660       19.424        6.259      513.000      126.661        0.061      347.013       25.673      857.349
06/25/2014  16:16:00     -424.797     -262.910      -22.930      189.280      206.564       93.873    35826.946    42668.882     8812.228       16.869        4.365      499.574      107.693        0.046      347.072       25.775      857.368
06/25/2014  16:17:00     -393.922     -285.527       -0.321      272.471      227.477       96.151    74240.282    51745.602     9244.927       18.594        6.762      486.518      113.960        0.055      347.040       25.718      857.380
06/25/2014  16:18:00     -479.143     -280.345       -7.372      241.390      226.931      114.904    58269.078    51497.832    13203.040       21.558        6.148      555.131      119.523        0.046      346.876       25.437      857.359
06/25/2014  16:19:00     -462.689     -282.099      -11.634      212.658      183.177       96.591    45223.232    33553.832     9329.833       19.094        4.405      541.905      100.732        0.035      346.889       25.458      857.305
06/25/2014  16:20:00     -445.876     -192.944       -5.795      324.007      199.071      121.729   104980.513    39629.120    14818.043       19.772        7.971      485.832      158.656        0.107      346.914       25.501      857.303
06/25/2014  16:21:00     -417.446     -200.249       12.306      238.723      152.884      101.254    56988.790    23373.407    10252.438       15.255        4.531      462.991      123.094        0.071      346.856       25.402      857.263
06/25/2014  16:22:00     -198.506     -142.259       14.248      200.626      166.539       91.040    40250.909    27735.299     8288.364        6.805        3.814      244.218       96.867        0.157      346.996       25.643      857.317
06/25/2014  16:23:00     -385.850     -259.308      -11.949      190.756      154.973       76.167    36387.843    24016.756     5801.342       14.122        3.310      464.888       72.063        0.024      346.786       25.281      857.342
06/25/2014  16:24:00     -298.093     -208.388        9.885      257.975      164.514      104.073    66551.142    27064.831    10831.232       11.840        5.222      363.710      128.615        0.125      346.881       25.443      857.319
06/25/2014  16:25:00     -336.879     -231.548        8.765      218.787      183.936      102.032    47867.917    33832.451    10410.572       12.963        4.606      408.781      108.064        0.070      346.891       25.460      857.274
06/25/2014  16:26:00     -471.702     -249.948       -7.176      217.042      169.034      106.598    47107.235    28572.425    11363.153       18.602        4.352      533.832       93.287        0.031      346.880       25.441      857.288
06/25/2014  16:27:00     -419.334     -234.770      -26.749      173.558      154.945       94.112    30122.452    24007.874     8857.130       14.732        3.149      480.581       85.311        0.032      346.742       25.204      857.277
06/25/2014  16:28:00     -353.579      -83.956      -18.552      158.516      138.406       73.352    25127.290    19156.149     5380.550        9.103        2.483      363.410       74.032        0.041      346.822       25.343      857.296
06/25/2014  16:29:00     -360.228     -146.321       -7.965      176.977      203.148       78.098    31320.772    41269.257     6099.270       11.495        3.934      388.811       91.732        0.056      346.889       25.458      857.320
06/25/2014  16:30:00     -487.354     -330.247      -31.209      238.187      208.567      121.699    56732.916    43500.275    14810.712       23.128        5.752      588.708      138.168        0.055      346.742       25.204      857.335
06/25/2014  16:31:00     -603.653     -284.931      -20.614      240.209      230.658      103.273    57700.478    53203.308    10665.266       28.377        6.078      667.520      108.913        0.027      346.646       25.040      857.347
06/25/2014  16:32:00     -492.171     -312.313      -16.322      247.557      190.921      114.045    61284.315    36450.888    13006.307       22.537        5.537      582.900      126.381        0.047      346.611       24.979      857.359
06/25/2014  16:33:00     -526.184     -100.724      -20.926      264.695      204.426      117.805    70063.690    41790.056    13877.995       20.657        6.287      535.738      142.134        0.070      346.621       24.996      857.329
06/25/2014  16:34:00     -401.114     -100.517       24.000      266.498      213.923      107.008    71021.400    45762.867    11450.727       14.988        6.412      413.516      132.302        0.102      346.663       25.069      857.279
06/25/2014  16:35:00     -356.373     -158.448        5.005      209.144      172.521       95.733    43741.292    29763.395     9164.803       11.739        4.133      390.010      110.165        0.080      346.599       24.960      857.273
06/25/2014  16:36:00     -402.395     -203.830       10.605      331.803      236.691      134.738   110092.953    56022.604    18154.404       19.389        9.213      451.074      170.918        0.144      346.561       24.893      857.208
06/25/2014  16:37:00     -414.861     -145.306       -4.316      220.889      187.201      104.960    48791.742    35044.161    11016.680       14.403        4.743      439.572      108.549        0.061      346.512       24.811      857.240
06/25/2014  16:38:00     -396.380     -115.935       -9.288      233.721      200.630       93.669    54625.380    40252.509     8773.826       13.713        5.183      412.987       93.332        0.051      346.521       24.826      857.267
06/25/2014  16:39:00     -405.491     -197.018       -7.180      259.909      218.808      112.803    67552.773    47876.786    12724.458       16.570        6.408      450.821      139.965        0.096      346.473       24.744      857.289
06/25/2014  16:40:00     -499.193     -127.170      -27.310      254.110      237.225      105.398    64572.101    56275.706    11108.722       19.901        6.598      515.137      108.213        0.044      346.439       24.683      857.263
06/25/2014  16:41:00     -439.150     -125.494       -2.470      299.218      201.547      115.222    89531.613    40621.332    13276.156       17.599        7.171      456.729      142.650        0.098      346.475       24.746      857.229
06/25/2014  16:42:00     -565.027     -242.400      -38.708      230.982      198.482      101.872    53352.624    39395.061    10377.924       24.130        5.156      614.828      112.540        0.034      346.388       24.596      857.257
06/25/2014  16:43:00     -520.692     -198.648        9.047      308.210      248.639      122.433    94993.292    61821.209    14989.753       24.121        8.590      557.298      149.514        0.072      346.386       24.591      857.236
06/25/2014  16:44:00     -352.845     -141.549      -11.590      182.697      214.256      112.953    33378.260    45905.815    12758.478       11.834        4.602      380.178      102.832        0.073      346.456       24.713      857.240
06/25/2014  16:45:00     -603.836     -142.293      -15.971      315.348      241.242      131.616    99444.543    58197.691    17322.653       28.001        8.748      620.375      147.593        0.057      346.407       24.629      857.192
06/25/2014  16:46:00     -613.150     -292.047      -18.251      336.664      243.567      123.684   113342.903    59324.821    15297.740       32.474        9.398      679.149      123.981        0.033      346.359       24.546      857.211
06/25/2014  16:47:00     -442.562     -339.401      -28.717      203.749      201.494      105.465    41513.743    40599.978    11122.823       20.254        4.662      557.722      116.824        0.044      346.399       24.615      857.288
06/25/2014  16:48:00     -327.090      -94.332        0.122      205.485      145.024       92.181    42224.103    21031.816     8497.372        9.381        3.588      340.421       94.157        0.077      346.492       24.777      857.316
06/25/2014  16:49:00     -500.045      -63.275       -8.506      302.581      235.804      112.451    91555.435    55603.652    12645.136       20.694        7.990      504.033      136.261        0.073      346.467       24.732      857.284
06/25/2014  16:50:00     -388.185     -145.843       -6.292      247.106      198.832      110.860    61061.514    39534.321    12290.019       14.242        5.644      414.678      121.120        0.085      346.476       24.747      857.303
06/25/2014  16:51:00     -405.958     -311.394       -4.251      260.544      198.187      115.850    67882.939    39278.091    13421.205       19.116        6.029      511.633      133.220        0.068      346.409       24.632      857.360
06/25/2014  16:52:00     -599.554     -108.378      -23.406      348.744      225.121      123.927   121622.219    50679.440    15357.984       27.968        9.383      609.270      142.609        0.055      346.340       24.513      857.331
06/25/2014  16:53:00     -458.296     -252.475      -11.132      240.586      206.486       99.201    57881.401    42636.666     9840.935       19.211        5.518      523.239      106.083        0.041      346.359       24.546      857.371
06/25/2014  16:54:00     -511.156      -42.041      -16.716      220.995      208.213      107.101    48838.708    43352.544    11470.670       18.348        5.183      512.882      107.569        0.044      346.278       24.407      857.365
06/25/2014  16:55:00     -545.456     -100.902      -11.426      266.230      202.441      116.697    70878.409    40982.527    13618.279       21.664        6.274      554.710      131.315        0.056      346.242       24.346      857.408
06/25/2014  16:56:00     -647.091     -161.530      -17.662      371.642      194.275      106.151   138117.706    37742.907    11268.033       31.610        9.356      666.947      137.970        0.043      346.067       24.045      857.414
06/25/2014  16:57:00     -561.248     -204.674      -13.659      332.380      249.870      142.068   110476.320    62435.249    20183.194       27.505        9.655      597.403      160.313        0.072      346.115       24.126      857.387
06/25/2014  16:58:00     -626.424     -257.609      -18.353      310.187      218.072      124.613    96216.081    47555.558    15528.433       30.918        7.965      677.326      141.657        0.044      346.077       24.061      857.484
06/25/2014  16:59:00     -485.193     -200.951      -23.092      214.044      177.722       75.590    45814.846    31585.016     5713.792       17.971        4.156      525.161       81.700        0.024      346.101       24.103      857.521
06/25/2014  17:00:00     -439.550     -127.573      -20.579      209.993      156.673       95.370    44097.192    24546.414     9095.406       14.381        3.887      457.689      108.070        0.056      346.125       24.145      857.478
06/25/2014  17:01:00     -484.398      -31.290      -12.540      256.227      223.949      111.200    65652.469    50153.156    12365.473       18.195        6.409      485.408      118.196        0.059      346.125       24.143      857.487
06/25/2014  17:02:00     -363.224     -252.210       -8.490      229.191      225.237      110.112    52528.380    50731.544    12124.721       15.548        5.769      442.201      134.716        0.093      346.088       24.079      857.532
06/25/2014  17:03:00     -581.486     -307.902       -9.248      330.375      231.402      139.566   109147.805    53546.968    19478.772       30.756        9.109      657.974      155.403        0.056      345.990       23.911      857.474
06/25/2014  17:04:00     -433.957     -253.797       -4.975      263.163      208.312      118.111    69254.915    43393.948    13950.293       18.966        6.330      502.725      130.887        0.068      346.037       23.992      857.473
06/25/2014  17:05:00     -465.269     -164.005      -17.585      288.428      211.721      113.918    83190.602    44825.703    12977.280       19.231        7.050      493.329      120.177        0.059      346.000       23.931      857.494
06/25/2014  17:06:00     -673.806     -100.068      -21.152      337.519      273.532      137.951   113919.030    74819.883    19030.516       33.609       10.388      681.196      171.246        0.063      345.883       23.728      857.481
06/25/2014  17:07:00     -610.926      -77.153       -8.512      264.241      202.278      120.576    69823.379    40916.574    14538.602       25.225        6.264      615.779      134.852        0.048      345.877       23.718      857.514
06/25/2014  17:08:00     -462.709     -184.284        5.388      330.178      234.247      134.445   109017.230    54871.748    18075.457       21.500        9.098      498.056      161.758        0.105      345.900       23.758      857.524
06/25/2014  17:09:00     -621.436     -239.152      -18.175      298.138      275.929      133.386    88886.369    76136.757    17791.949       31.323        9.141      665.866      139.748        0.044      345.819       23.620      857.533
06/25/2014  17:10:00     -428.849     -251.533       -1.314      268.745      268.265      138.960    72224.050    71966.039    19309.845       20.531        8.175      497.172      159.224        0.103      345.851       23.674      857.540
06/25/2014  17:11:00     -439.132     -118.437       -6.682      313.703      153.280       99.143    98409.580    23494.610     9829.236       16.930        6.587      454.823      122.196        0.072      345.864       23.696      857.557
06/25/2014  17:12:00     -407.492     -170.602       -3.852      323.354      158.100      104.688   104557.965    24995.588    10959.541       16.782        7.026      441.763      138.159        0.098      345.924       23.799      857.608
06/25/2014  17:13:00     -358.618     -236.733       -5.597      218.483      163.264      102.347    47734.987    26655.222    10474.813       13.476        4.243      429.708      117.702        0.075      345.937       23.821      857.605
06/25/2014  17:14:00     -537.564     -262.143      -48.801      336.533      306.391      119.879   113254.184    93875.341    14370.992       29.075       11.075      598.076      149.361        0.062      345.844       23.663      857.653
06/25/2014  17:15:00     -622.713     -358.005      -27.310      250.047      220.499      135.367    62523.423    48619.624    18324.213       32.305        6.473      718.289      120.573        0.028      345.716       23.442      857.671
06/25/2014  17:16:00     -473.133     -285.403        7.431      251.458      203.519      122.296    63231.229    41420.145    14956.361       21.247        5.980      552.549      131.915        0.057      345.746       23.494      857.687
06/25/2014  17:17:00     -397.222     -197.177      -18.959      268.159      241.879      119.757    71909.389    58505.241    14341.779       17.087        7.238      443.469      140.437        0.100      345.762       23.522      857.677
06/25/2014  17:18:00     -678.149     -134.941      -21.466      301.776      212.850      120.761    91068.973    45305.273    14583.256       31.473        7.548      691.444      149.480        0.047      345.666       23.356      857.670
06/25/2014  17:19:00     -453.488     -149.169      -13.790      260.898      171.509      122.728    68067.651    29415.362    15062.175       17.030        5.627      477.392      146.420        0.094      345.720       23.449      857.685
06/25/2014  17:20:00     -357.107     -200.905       -3.969      238.468      194.209      113.656    56867.140    37716.972    12917.675       13.768        5.375      409.742      129.713        0.100      345.710       23.433      857.642
06/25/2014  17:21:00     -456.136     -280.960      -13.724      242.868      170.969       90.116    58984.912    29230.552     8120.955       19.175        4.817      535.723      103.675        0.037      345.745       23.493      857.685
06/25/2014  17:22:00     -625.044     -174.367      -23.591      237.994      202.059      106.579    56641.345    40827.783    11359.052       26.522        5.441      648.909      111.013        0.029      345.711       23.434      857.658
06/25/2014  17:23:00     -485.178     -204.971      -15.172      305.657      219.989      120.433    93426.417    48395.312    14504.112       21.696        7.816      526.698      149.777        0.081      345.784       23.560      857.752
06/25/2014  17:24:00     -538.926     -304.225       -9.108      288.892      263.099      114.101    83458.769    69221.243    13019.001       27.436        8.285      618.865      131.917        0.045      345.587       23.219      857.813
06/25/2014  17:25:00     -497.574     -320.803      -16.824      260.294      245.310      122.157    67752.840    60176.880    14922.309       24.679        7.143      592.025      129.751        0.048      345.641       23.313      857.817
06/25/2014  17:26:00     -580.533     -405.746      -32.543      247.131      191.870      107.547    61073.813    36813.944    11566.349       30.606        5.473      708.271      130.228        0.034      345.662       23.349      857.890
06/25/2014  17:27:00     -367.324     -179.195      -19.340      148.342      180.904       88.801    22005.349    32726.236     7885.564       11.500        3.131      408.703       83.131        0.041      345.705       23.424      857.912
06/25/2014  17:28:00     -368.509     -205.710       -0.981      216.439      168.079      100.543    46845.869    28250.510    10108.818       13.165        4.260      422.038       94.222        0.050      345.722       23.452      857.925
06/25/2014  17:29:00     -358.960     -148.305      -13.952      159.487      112.669       72.209    25435.967    12694.341     5214.200        9.719        2.167      388.389       70.178        0.033      345.772       23.537      857.915
06/25/2014  17:30:00     -259.714     -133.204        3.086      194.569      191.941       97.468    37857.224    36841.333     9500.091        8.469        4.210      291.881      117.027        0.161      345.748       23.496      857.936
06/25/2014  17:31:00     -522.481     -169.592      -45.194      228.115      275.143      114.167    52036.504    75703.572    13034.122       22.226        7.039      549.316      118.673        0.047      345.609       23.257      857.951
06/25/2014  17:32:00     -401.174     -254.482       17.588      330.812      189.286      119.568   109436.686    35829.054    14296.564       19.276        7.978      475.081      152.623        0.103      345.566       23.184      857.976
06/25/2014  17:33:00     -452.155     -248.793      -14.230      255.317      211.932      126.447    65186.645    44915.112    15988.831       19.630        6.305      516.084      127.117        0.061      345.445       22.976      857.941
06/25/2014  17:34:00     -439.530     -141.963       -7.779      310.012      222.876      107.565    96107.213    49673.799    11570.123       18.535        7.868      461.887      124.240        0.072      345.492       23.058      857.994
06/25/2014  17:35:00     -320.373     -169.016       21.472      190.534      246.894       95.070    36303.152    60956.520     9038.301       11.896        5.315      362.222      102.264        0.080      345.493       23.060      858.009
06/25/2014  17:36:00     -256.027     -105.480       10.861      205.022      161.570      106.009    42034.098    26104.996    11237.904        7.807        3.969      276.904      107.728        0.151      345.552       23.160      858.001
06/25/2014  17:37:00     -441.114      -92.183      -19.125      263.481      133.645      100.247    69422.446    17861.003    10049.549       15.037        4.867      450.643      104.159        0.053      345.507       23.083      857.992
06/25/2014  17:38:00     -461.443      -71.502      -15.585      254.010      260.654      108.027    64521.184    67940.560    11669.899       18.118        7.207      466.950      108.043        0.054      345.455       22.994      857.984
06/25/2014  17:39:00     -658.360     -259.950      -17.436      214.359      195.912      101.493    45949.613    38381.583    10300.802       29.796        4.732      707.822       97.663        0.019      345.300       22.728      857.961
06/25/2014  17:40:00     -418.781     -108.625       -3.713      249.526      166.008      105.329    62263.199    27558.747    11094.101       14.404        5.046      432.639      117.488        0.074      345.389       22.881      858.027
06/25/2014  17:41:00     -461.588     -225.825      -17.471      269.443      189.693      104.044    72599.490    35983.363    10825.074       19.187        5.970      513.868      122.886        0.057      345.345       22.805      858.042
06/25/2014  17:42:00     -424.699     -204.775       -3.880      259.232      277.508      128.160    67201.253    77010.821    16425.006       19.145        8.032      471.489      134.194        0.081      345.335       22.788      858.071
06/25/2014  17:43:00     -520.607     -234.297      -27.263      280.443      193.873      111.996    78648.362    37586.665    12543.050       22.770        6.439      570.899      134.732        0.056      345.317       22.756      858.074
06/25/2014  17:44:00     -488.673     -221.176      -12.103      228.637      142.108       93.826    52274.987    20194.793     8803.358       18.456        4.064      536.395      110.605        0.043      345.373       22.854      858.071
06/25/2014  17:45:00     -548.887     -324.072       12.838      266.154      187.715      118.708    70837.987    35236.964    14091.674       26.330        6.008      637.416      119.865        0.035      345.312       22.749      858.115
06/25/2014  17:46:00     -537.284     -254.236      -17.102      279.093      225.527      126.317    77892.900    50862.260    15956.007       24.913        7.236      594.399      145.230        0.060      345.232       22.612      858.122
06/25/2014  17:47:00     -611.065     -301.685      -26.941      326.079      220.356      133.458   106327.312    48556.929    17811.028       31.889        8.635      681.480      159.511        0.055      345.161       22.491      858.113
06/25/2014  17:48:00     -473.597     -231.123      -22.309      286.034      188.871      113.398    81815.194    35672.117    12859.037       20.426        6.517      526.984      116.472        0.049      345.193       22.545      858.171
06/25/2014  17:49:00     -622.674     -249.209      -25.205      307.114      289.834      124.827    94319.003    84003.840    15581.903       32.215        9.695      670.693      151.184        0.051      345.008       22.230      858.184
06/25/2014  17:50:00     -392.848     -244.079       17.535      285.195      233.582       99.715    81335.955    54560.459     9943.094       18.000        7.292      462.498      115.185        0.062      345.101       22.388      858.224
06/25/2014  17:51:00     -535.081     -118.539      -11.207      253.235      237.641      118.793    64128.141    56473.261    14111.780       21.758        6.736      548.054      135.923        0.062      345.017       22.245      858.212
06/25/2014  17:52:00     -576.314      -84.389      -18.685      201.169      191.016       98.035    40469.112    36487.096     9610.903       21.307        4.328      582.460      100.966        0.030      345.000       22.215      858.258
06/25/2014  17:53:00     -443.379     -221.031       -8.426      244.362      203.379      119.612    59713.006    41362.892    14307.132       18.043        5.769      495.419      137.694        0.077      345.010       22.232      858.240
06/25/2014  17:54:00     -379.554     -166.549       14.919      316.244      218.711      121.504   100010.368    47834.381    14763.263       16.729        8.130      414.487      124.098        0.090      345.040       22.283      858.277
06/25/2014  17:55:00     -484.084     -196.036       -2.459      346.676      243.214      138.344   120184.302    59153.181    19139.175       23.559        9.924      522.272      170.326        0.106      344.952       22.133      858.288
06/25/2014  17:56:00     -605.830     -209.584        0.576      355.559      215.029      111.051   126421.973    46237.427    12332.338       29.794        9.250      641.058      145.027        0.051      344.896       22.036      858.285
06/25/2014  17:57:00     -423.970     -218.062        2.030      207.020      210.202      113.076    42857.469    44184.826    12786.109       16.355        4.991      476.761      105.114        0.049      344.943       22.117      858.322
06/25/2014  17:58:00     -675.477     -195.941      -30.983      321.417      261.186      130.452   103308.636    68217.988    17017.787       34.205        9.427      703.322      156.843        0.050      344.836       21.935      858.344
06/25/2014  17:59:00     -639.133      -37.517      -28.473      259.900      177.667       93.449    67548.112    31565.665     8732.720       25.926        5.392      640.233      107.304        0.028      344.794       21.862      858.368
06/25/2014  18:00:00     -368.240     -144.099        5.998      230.707      189.808      100.906    53225.780    36027.143    10182.032       12.790        4.972      395.431      114.605        0.084      344.920       22.079      858.390
06/25/2014  18:01:00     -486.484     -222.844        3.052      231.059      186.556      102.357    53388.363    34803.144    10476.998       19.249        4.933      535.094      100.174        0.035      344.898       22.039      858.393
06/25/2014  18:02:00     -499.876     -351.543      -23.284      263.464      223.279      115.781    69413.122    49853.507    13405.214       25.331        6.634      611.113      115.965        0.036      344.833       21.930      858.352
06/25/2014  18:03:00     -529.654     -303.940       -6.153      239.418      236.856      107.959    57321.212    56100.556    11655.115       24.899        6.254      610.666      125.258        0.042      344.893       22.031      858.361
06/25/2014  18:04:00     -424.452     -168.973       -0.141      172.940      175.474       87.239    29908.158    30791.066     7610.581       13.850        3.415      456.849       79.743        0.030      344.922       22.082      858.367
06/25/2014  18:05:00     -404.210     -219.315       -9.195      254.243      180.138       88.702    64639.500    32449.788     7868.016       15.825        5.248      459.875      108.401        0.056      344.850       21.960      858.327
06/25/2014  18:06:00     -312.817     -220.648       12.075      194.501      149.770       75.968    37830.780    22430.936     5771.080       10.635        3.302      382.806       67.620        0.031      344.849       21.957      858.319
06/25/2014  18:07:00     -332.316     -223.026        4.639      200.108      155.206       96.792    40043.333    24088.823     9368.785       11.684        3.675      400.218      112.915        0.080      344.883       22.013      858.297
06/25/2014  18:08:00     -461.468     -188.720      -19.348      218.127      197.936       97.859    47579.223    39178.564     9576.453       17.262        4.817      498.566      112.526        0.051      344.911       22.062      858.290
06/25/2014  18:09:00     -399.481     -166.327       -8.289      222.220      176.465       94.627    49381.546    31139.763     8954.230       13.838        4.474      432.724      105.038        0.059      344.941       22.114      858.275
06/25/2014  18:10:00     -377.516     -129.849      -14.084      240.084      191.710       76.907    57640.190    36752.690     5914.633       12.993        5.015      399.223      104.743        0.069      344.915       22.071      858.262
06/25/2014  18:11:00     -231.466     -173.230       -1.559      132.673      140.593       68.509    17602.009    19766.516     4693.516        6.282        2.103      289.111       74.346        0.066      345.043       22.289      858.259
06/25/2014  18:12:00     -500.290     -105.910      -18.088      213.821      149.197       83.761    45719.238    22259.605     7015.850       16.840        3.750      511.378       86.937        0.029      344.907       22.055      858.256
06/25/2014  18:13:00     -436.189     -165.754       22.798      260.829      235.316      118.848    68031.710    55373.561    14124.767       17.787        6.877      466.621      136.076        0.085      344.972       22.167      858.287
06/25/2014  18:14:00     -482.622     -254.687       -1.962      311.585      188.602      118.262    97085.296    35570.804    13985.909       22.219        7.332      545.701      140.684        0.066      344.838       21.938      858.271
06/25/2014  18:15:00     -511.219     -185.664        2.654      261.605      210.162      124.672    68437.023    44168.028    15543.053       21.196        6.407      543.889      140.027        0.066      344.872       21.996      858.233
06/25/2014  18:16:00     -384.780     -257.925       -9.901      230.792      156.667      109.618    53265.001    24544.529    12016.016       15.224        4.491      463.229      123.894        0.072      344.906       22.053      858.220
06/25/2014  18:17:00     -338.735     -135.070       18.327      207.816      170.085       90.838    43187.439    28928.887     8251.528       10.683        4.018      364.672       90.052        0.061      344.987       22.191      858.219
06/25/2014  18:18:00     -360.052     -223.337       18.042      238.062      207.605      108.666    56673.417    43099.719    11808.206       14.569        5.579      423.694      137.929        0.106      345.035       22.274      858.246
06/25/2014  18:19:00     -480.411     -264.908      -27.071      251.113      174.817       96.763    63057.489    30561.132     9362.988       20.233        5.149      548.608      101.980        0.035      344.832       21.927      858.191
06/25/2014  18:20:00     -395.708     -230.918      -10.264      224.236      185.886       93.838    50281.917    34553.613     8805.491       15.181        4.682      458.157      101.128        0.049      344.902       22.047      858.157
06/25/2014  18:21:00     -363.138     -253.555        7.120      249.798      190.114      111.637    62398.878    36143.511    12462.788       15.359        5.550      442.899      129.900        0.086      344.981       22.183      858.129
06/25/2014  18:22:00     -442.167     -201.581      -11.978      245.949      208.900       97.755    60490.886    43639.362     9556.052       17.497        5.684      485.949       96.182        0.039      344.901       22.045      858.067
06/25/2014  18:23:00     -293.640     -193.993        5.235      194.441      149.232       75.487    37807.159    22270.186     5698.242        9.482        3.289      351.934       92.221        0.069      345.092       22.373      858.044
06/25/2014  18:24:00     -362.267     -212.538       -9.649      180.064      137.222       84.060    32423.096    18829.849     7066.033       11.740        2.916      420.012       78.638        0.035      345.024       22.257      858.009
06/25/2014  18:25:00     -382.115     -223.247      -12.767      219.577      196.185       94.347    48213.875    38488.612     8901.409       14.579        4.780      442.550       99.206        0.050      344.865       21.985      858.025
06/25/2014  18:26:00     -386.831     -159.191       -9.876      207.924      148.005       86.982    43232.408    21905.399     7565.948       12.388        3.635      418.306       84.832        0.041      344.939       22.110      857.998
06/25/2014  18:27:00     -422.130     -282.987      -32.475      201.333      172.099       79.917    40534.818    29618.040     6386.754       16.792        3.827      508.208       83.202        0.027      344.856       21.969      857.976
06/25/2014  18:28:00     -382.488     -161.421      -16.473      223.052      203.413       84.714    49752.132    41376.737     7176.539       13.545        4.915      415.155      102.428        0.061      344.852       21.961      857.911
06/25/2014  18:29:00     -281.672     -160.100       13.589      206.566      121.518       73.664    42669.631    14766.689     5426.351        8.400        3.143      323.993       89.543        0.076      344.955       22.138      857.917
06/25/2014  18:30:00     -348.632     -122.896       -1.097      213.131      156.001       83.359    45424.633    24336.464     6948.766       10.667        3.835      369.659       96.120        0.068      344.883       22.014      857.900
06/25/2014  18:31:00     -326.434     -267.233       -1.018      207.520      173.990       99.709    43064.549    30272.670     9941.794       13.061        4.164      421.868      108.326        0.066      344.881       22.011      857.887
06/25/2014  18:32:00     -419.032     -270.887       -3.653      209.426      162.176      106.468    43859.376    26301.178    11335.373       16.522        4.075      498.966      107.868        0.047      344.819       21.906      857.890
06/25/2014  18:33:00     -374.784     -248.589        2.860      234.419      191.016      101.027    54952.308    36486.954    10206.367       15.194        5.082      449.732      115.114        0.066      344.871       21.994      857.911
06/25/2014  18:34:00     -316.833     -197.391       -5.324      184.588      170.555       84.482    34072.772    29089.077     7137.224       10.483        3.515      373.291       73.873        0.039      344.879       22.006      857.938
06/25/2014  18:35:00     -446.027     -117.549        3.776      221.629      175.474       97.730    49119.275    30790.971     9551.083       15.110        4.473      461.257      117.690        0.065      344.833       21.929      857.926
06/25/2014  18:36:00     -564.007     -319.109       -9.950      294.922      187.989      121.074    86978.808    35340.050    14658.951       27.848        6.849      648.023      138.293        0.046      344.805       21.880      857.859
06/25/2014  18:37:00     -376.189     -222.362      -14.406      184.573      141.598       80.836    34067.177    20050.083     6534.496       12.590        3.033      436.993       93.666        0.046      344.897       22.038      857.857
06/25/2014  18:38:00     -461.122     -398.998      -23.868      259.953      215.468      133.458    67575.724    46426.502    17810.910       25.209        6.591      609.781      145.478        0.057      344.876       22.003      857.817
06/25/2014  18:39:00     -443.730     -256.236      -18.936      235.064      191.054      108.141    55254.956    36501.740    11694.382       18.316        5.173      512.400      127.730        0.062      344.886       22.022      857.828
06/25/2014  18:40:00     -287.416     -192.001        3.175      182.582      139.484       83.406    33336.077    19455.804     6956.617        8.961        2.987      345.648       76.132        0.049      344.942       22.115      857.822
06/25/2014  18:41:00     -498.009     -399.045      -10.523      269.997      234.237      117.590    72898.127    54866.955    13827.385       27.445        7.080      638.161      150.379        0.056      344.923       22.084      857.777
06/25/2014  18:42:00     -595.758     -452.189      -23.757      322.650      257.540      133.272   104102.750    66327.004    17761.428       37.405        9.410      747.932      156.358        0.044      344.813       21.895      857.763
06/25/2014  18:43:00     -556.601     -326.805       -5.612      271.479      183.757      109.678    73700.880    33766.768    12029.307       26.805        5.975      645.451      129.919        0.041      344.855       21.967      857.754
06/25/2014  18:44:00     -520.910     -329.547       -2.689      279.864      214.816      134.214    78324.131    46145.830    18013.351       26.120        7.124      616.400      149.343        0.059      344.824       21.913      857.713
06/25/2014  18:45:00     -338.715     -151.400       10.954      180.682      172.151       91.697    32646.117    29635.893     8408.290       10.422        3.535      371.012       82.512        0.049      344.948       22.127      857.689
06/25/2014  18:46:00     -480.900     -157.923       -0.454      244.239      214.356      101.817    59652.459    45948.689    10366.723       18.607        5.798      506.166      112.596        0.049      344.936       22.105      857.720
06/25/2014  18:47:00     -460.010     -333.173      -20.973      238.363      239.982      114.991    56817.075    57591.339    13222.966       22.532        6.382      567.991      129.392        0.052      344.916       22.072      857.698
06/25/2014  18:48:00     -477.245     -247.977      -22.828      254.567      183.083      107.153    64804.343    33519.499    11481.722       19.977        5.490      537.824      121.531        0.051      344.866       21.987      857.678
06/25/2014  18:49:00     -597.411     -202.468      -35.647      379.821      243.993      138.106   144264.302    59532.560    19073.240       31.098       11.144      630.788      169.972        0.073      344.844       21.946      857.642
06/25/2014  18:50:00     -433.898     -153.401       -4.305      319.658      286.386      131.151   102181.180    82016.800    17200.472       20.657       10.070      460.217      148.335        0.104      344.911       22.062      857.638
06/25/2014  18:51:00     -528.779     -330.719        4.109      360.979      243.460      151.832   130306.032    59273.012    23052.927       30.078       10.632      623.685      185.197        0.088      344.806       21.882      857.590
06/25/2014  18:52:00     -352.624     -244.671       -4.218      261.703      201.002      117.809    68488.493    40401.633    13878.909       15.348        6.138      429.195      119.025        0.077      344.876       22.001      857.608
06/25/2014  18:53:00     -538.067     -215.348      -18.186      400.096      233.654      138.632   160076.480    54594.211    19218.969       28.502       11.694      579.561      191.637        0.109      344.904       22.051      857.638
06/25/2014  18:54:00     -385.123     -222.874       12.074      234.789      168.478       99.782    55125.701    28384.668     9956.415       14.579        4.673      444.963      119.316        0.072      344.891       22.029      857.697
06/25/2014  18:55:00     -416.759     -263.584      -29.124      223.869      239.215       96.149    50117.308    57223.905     9244.632       18.028        5.829      493.117      105.229        0.046      344.943       22.118      857.719
06/25/2014  18:56:00     -464.920     -289.824      -19.108      251.702      192.036       99.323    63353.717    36877.692     9864.979       20.529        5.505      547.858      118.658        0.047      344.948       22.125      857.698
06/25/2014  18:57:00     -485.392     -199.505      -29.818      242.169      164.885       97.074    58645.878    27187.102     9423.384       18.576        4.763      524.793      124.231        0.056      344.983       22.187      857.740
06/25/2014  18:58:00     -427.646     -305.518       -1.329      236.862      191.513      111.027    56103.439    36677.392    12326.912       19.065        5.255      525.568      119.801        0.052      344.926       22.089      857.738
06/25/2014  18:59:00     -548.059     -179.049      -25.612      297.081      240.998       98.944    88257.151    58080.243     9789.931       24.458        7.806      576.565      131.169        0.052      344.924       22.084      857.746
06/25/2014  19:00:00     -436.143     -200.107       -1.304      272.769      196.054      109.171    74402.715    38437.208    11918.210       17.749        6.238      479.858      117.926        0.060      344.989       22.197      857.753
06/25/2014  19:01:00     -472.286     -200.286       -5.574      299.323      214.440      124.458    89594.056    45984.383    15489.712       20.711        7.553      513.000      158.004        0.095      344.872       21.996      857.797
06/25/2014  19:02:00     -386.866     -222.935       28.865      309.719      249.162      116.423    95925.910    62081.627    13554.430       18.585        8.578      446.504      139.124        0.097      344.899       22.043      857.788
06/25/2014  19:03:00     -460.648     -319.832        1.616      287.584      199.512      102.737    82704.498    39805.154    10554.798       22.376        6.653      560.793      133.208        0.056      344.802       21.876      857.776
06/25/2014  19:04:00     -426.315     -243.061        2.276      281.252      178.428       96.273    79102.695    31836.411     9268.447       18.050        6.010      490.737      129.150        0.069      344.838       21.937      857.788
06/25/2014  19:05:00     -527.380     -293.388      -28.719      269.917      193.722      112.701    72855.103    37528.068    12701.437       24.404        6.154      603.495      122.732        0.041      344.747       21.781      857.766
06/25/2014  19:06:00     -435.034     -317.056      -11.222      255.547      213.493      122.637    65304.208    45579.143    15039.826       20.789        6.296      538.312      141.792        0.069      344.775       21.828      857.771
06/25/2014  19:07:00     -453.509     -244.767        0.433      267.709      207.819      114.257    71668.104    43188.938    13054.595       19.673        6.396      515.346      140.783        0.075      344.793       21.861      857.757
06/25/2014  19:08:00     -374.032     -247.592       39.370      311.010      223.406      131.551    96727.208    49910.122    17305.534       18.332        8.197      448.555      171.538        0.146      344.880       22.010      857.751
06/25/2014  19:09:00     -390.318     -214.173       -7.150      243.118      242.808      128.005    59106.334    58955.900    16385.237       16.634        6.722      445.217      141.034        0.100      344.879       22.008      857.722
06/25/2014  19:10:00     -307.355     -113.905        6.956      169.124      181.584       92.448    28603.036    32972.614     8546.615        8.879        3.506      327.783       98.006        0.089      344.960       22.148      857.740
06/25/2014  19:11:00     -487.455     -157.483        4.356      330.233      205.553      115.568   109053.551    42252.038    13356.065       21.352        8.233      512.263      128.774        0.063      344.853       21.962      857.708
06/25/2014  19:12:00     -646.616     -226.293      -22.553      343.072      263.813      132.790   117698.130    69597.416    17633.120       33.735       10.246      685.070      147.521        0.046      344.754       21.792      857.686
06/25/2014  19:13:00     -593.040     -254.731      -22.524      265.830      219.524      138.264    70665.808    48190.898    19116.921       27.751        6.899      645.433      141.489        0.048      344.657       21.627      857.754
06/25/2014  19:14:00     -316.328     -156.916        1.400      274.471      171.921      112.701    75334.339    29556.970    12701.579       12.112        5.880      353.109      112.870        0.102      344.742       21.774      857.740
06/25/2014  19:15:00     -666.011     -162.116      -31.162      282.733      206.699      114.115    79938.085    42724.649    13022.258       30.323        6.784      685.458      111.073        0.026      344.641       21.599      857.714
06/25/2014  19:16:00     -577.883     -291.176      -22.294      253.478      196.437      104.557    64251.291    38587.313    10932.084       26.648        5.689      647.096      107.681        0.028      344.607       21.541      857.744
06/25/2014  19:17:00     -436.005     -254.833      -12.361      211.112      195.310       97.084    44568.483    38146.109     9425.238       17.365        4.607      505.015      107.378        0.045      344.631       21.583      857.759
06/25/2014  19:18:00     -439.981     -341.677       12.355      216.428      189.957      123.534    46841.119    36083.717    15260.678       20.432        4.909      557.069      138.176        0.062      344.686       21.678      857.813
06/25/2014  19:19:00     -381.340     -223.151      -13.364      178.250      157.517       94.443    31773.046    24811.510     8919.535       13.044        3.275      441.833       91.908        0.043      344.742       21.774      857.872
06/25/2014  19:20:00     -424.794     -254.253      -17.513      166.232      136.745       74.019    27633.129    18699.286     5478.815       14.860        2.591      495.070       82.372        0.028      344.765       21.810      857.913
06/25/2014  19:21:00     -454.923     -107.733       -1.969      223.185      163.055       88.954    49811.642    26586.795     7912.898       15.142        4.216      467.506       88.828        0.036      344.733       21.758      857.928
06/25/2014  19:22:00     -421.309     -138.306      -23.450      261.374      176.333       94.761    68316.534    31093.179     8979.678       15.277        5.419      443.430      116.936        0.070      344.737       21.766      857.923
06/25/2014  19:23:00     -445.503     -208.396       -9.733      233.600      189.152      107.261    54569.023    35778.383    11504.876       17.191        5.093      491.835      122.848        0.062      344.681       21.669      857.958
06/25/2014  19:24:00     -170.874     -119.865       17.532      166.212      123.857       72.692    27626.580    15340.585     5284.116        4.605        2.413      208.724       81.308        0.152      344.749       21.787      858.013
06/25/2014  19:25:00     -164.205      -46.860        9.764      179.573      105.691       69.589    32246.586    11170.606     4842.586        3.875        2.413      170.761       89.141        0.273      344.785       21.850      858.034
06/25/2014  19:26:00     -298.209      -72.993       10.440      183.402      122.642       84.037    33636.450    15041.134     7062.224        7.504        2.787      307.012       92.408        0.091      344.718       21.731      858.038
06/25/2014  19:27:00     -247.713      -63.858        0.186      138.188      128.920       69.661    19095.876    16620.300     4852.640        5.300        2.028      255.812       67.411        0.069      344.799       21.870      858.062
06/25/2014  19:28:00     -213.129     -156.678       -7.957      150.778      126.780       79.647    22734.064    16073.071     6343.670        5.759        2.258      264.522       78.183        0.087      344.704       21.708      858.071
06/25/2014  19:29:00     -195.686      -53.406       11.842      139.027      183.455       65.979    19328.432    33655.620     4353.164        4.930        2.867      202.843       62.162        0.094      344.783       21.845      858.095
06/25/2014  19:30:00     -273.139     -215.096       -6.259      177.769      200.773       88.457    31601.658    40309.678     7824.696       10.031        3.987      347.665      106.130        0.093      344.651       21.618      858.104
06/25/2014  19:31:00     -368.386     -280.572       -4.955      162.107      152.908       94.717    26278.832    23380.938     8971.336       13.653        2.932      463.064       97.434        0.044      344.602       21.534      858.110
06/25/2014  19:32:00     -223.443     -137.756        9.603      196.473      168.568       94.565    38601.700    28415.309     8942.629        7.246        3.798      262.495      112.094        0.182      344.673       21.654      858.134
06/25/2014  19:33:00     -234.596      -94.434        5.639      194.183      175.433       89.088    37706.963    30776.860     7936.650        7.019        3.821      252.889       97.160        0.148      344.685       21.675      858.174
06/25/2014  19:34:00     -177.897      -49.784       21.725      149.719      118.197       79.809    22415.724    13970.590     6369.460        3.867        2.138      184.732       84.578        0.210      344.728       21.750      858.190
06/25/2014  19:35:00     -352.393     -245.868      -12.856      144.869      159.567       89.253    20986.900    25461.772     7966.102       11.960        2.721      429.688       82.532        0.037      344.551       21.447      858.185
06/25/2014  19:36:00     -152.050     -175.200       18.966      134.760      113.107       86.175    18160.281    12793.128     7426.100        4.627        1.919      231.979       83.659        0.130      344.620       21.566      858.169
06/25/2014  19:37:00     -254.467     -119.423      -10.049      213.928      143.133       73.539    45765.355    20487.025     5408.035        7.538        3.583      281.096       91.189        0.105      344.632       21.586      858.172
06/25/2014  19:38:00     -453.056     -278.170      -12.078      220.856      231.809      114.706    48777.336    53735.371    13157.414       19.921        5.784      531.637      114.657        0.047      344.437       21.250      858.141
06/25/2014  19:39:00     -460.330     -266.859        7.102      206.282      192.513      101.721    42552.388    37061.262    10347.221       18.655        4.498      532.087      108.094        0.041      344.453       21.279      858.148
06/25/2014  19:40:00     -358.853     -134.087       11.027      220.633      140.824       82.708    48678.960    19831.484     6840.622       11.110        3.768      383.086       99.122        0.067      344.509       21.375      858.157
06/25/2014  19:41:00     -364.542     -195.658       -4.975      222.079      159.112      102.558    49319.228    25316.491    10518.178       12.816        4.258      413.731      106.990        0.067      344.490       21.343      858.152
06/25/2014  19:42:00     -445.802     -306.647      -21.199      187.847      177.471       95.296    35286.468    31495.816     9081.313       18.453        3.793      541.084       94.811        0.031      344.393       21.176      858.110
06/25/2014  19:43:00     -510.049     -346.529      -29.613      219.860      187.675      101.184    48338.268    35221.925    10238.249       23.744        4.690      616.629      110.425        0.032      344.372       21.139      858.085
06/25/2014  19:44:00     -379.302     -208.246        0.361      219.113      217.956      104.308    48010.636    47504.824    10880.159       14.680        5.320      432.708      126.777        0.086      344.405       21.197      858.079
06/25/2014  19:45:00     -308.895     -173.778        0.602      196.120      196.652      101.882    38463.197    38672.117    10379.869       10.655        4.376      354.422      107.916        0.093      344.442       21.259      858.090
06/25/2014  19:46:00     -308.971     -182.988       12.176      223.157      163.357      105.889    49799.024    26685.507    11212.558       10.838        4.385      359.093      116.032        0.104      344.428       21.237      858.063
06/25/2014  19:47:00     -299.456      -44.533        5.508      189.837      138.891       81.405    36037.967    19290.756     6626.781        7.681        3.098      302.749       88.639        0.086      344.455       21.283      858.065
06/25/2014  19:48:00     -585.211      -88.249      -16.661      233.403      164.239      100.940    54476.841    26974.318    10188.860       22.107        4.582      591.828      114.232        0.037      344.312       21.039      858.042
06/25/2014  19:49:00     -319.271       16.589       -1.382      180.721      116.785       83.230    32659.986    13638.654     6927.206        7.771        2.661      319.702       89.384        0.078      344.446       21.266      858.021
06/25/2014  19:50:00     -377.227     -105.737       -4.817      170.872      149.360       86.624    29197.301    22308.431     7503.708       10.625        2.950      391.766       75.453        0.037      344.444       21.262      857.995
06/25/2014  19:51:00     -301.995      -99.827       -8.274      180.336      166.709       75.065    32521.016    27791.914     5634.751        8.358        3.297      318.067       87.512        0.076      344.427       21.234      857.971
06/25/2014  19:52:00     -281.811      -46.058      -18.102      136.176      127.885       70.033    18543.842    16354.528     4904.652        6.083        1.990      285.550       67.923        0.057      344.426       21.233      857.953
06/25/2014  19:53:00     -274.341      -52.021        7.186      219.852      109.354       69.241    48335.119    11958.359     4794.262        7.154        3.254      279.230       82.244        0.087      344.418       21.221      857.948
06/25/2014  19:54:00     -258.903      -74.332      -23.906      133.971       91.413       56.293    17948.308     8356.369     3168.946        5.130        1.474      269.362       48.256        0.032      344.403       21.193      857.955
06/25/2014  19:55:00     -465.762      -84.439      -20.418      214.485      160.339       99.297    46003.789    25708.733     9859.811       15.301        4.079      473.354       99.126        0.044      344.318       21.048      857.937
06/25/2014  19:56:00     -439.355      -67.123      -20.738      170.880      145.204       69.169    29199.908    21084.248     4784.369       12.651        2.753      444.453       74.863        0.028      344.261       20.951      857.932
06/25/2014  19:57:00     -213.363      -82.556       -9.514      127.893      113.948       67.329    16356.724    12984.163     4533.235        4.315        1.694      228.777       68.740        0.090      344.337       21.083      857.922
06/25/2014  19:58:00     -326.197     -214.009      -17.374      160.639      135.995       84.426    25804.949    18494.583     7127.667       10.196        2.571      390.134       83.060        0.045      344.293       21.006      857.884
06/25/2014  19:59:00     -432.020     -104.221       -7.867      199.340      151.116       94.795    39736.269    22836.097     8986.110       13.455        3.578      444.414      110.036        0.061      344.229       20.896      857.869
06/25/2014  20:00:00     -448.277      -50.591      -30.989      186.438      119.239       80.594    34758.961    14217.847     6495.387       12.996        2.774      451.123       90.285        0.040      344.243       20.920      857.878
06/25/2014  20:01:00     -490.154     -195.058      -25.475      158.169      150.882       83.909    25017.288    22765.496     7040.709       16.688        2.741      527.540       76.298        0.021      344.247       20.926      857.858
06/25/2014  20:02:00     -395.391      -32.995      -16.825      186.155      156.014       85.861    34653.831    24340.412     7372.053       11.202        3.318      396.765       90.466        0.052      344.269       20.965      857.854
06/25/2014  20:03:00     -540.607     -126.962      -19.823      225.016      222.525       96.233    50632.096    49517.498     9260.721       20.907        5.471      555.315       98.843        0.032      344.270       20.966      857.855
06/25/2014  20:04:00     -453.011     -167.362      -23.110      224.592      191.882       95.640    50441.519    36818.612     9146.990       16.507        4.820      482.938      103.335        0.046      344.263       20.954      857.849
06/25/2014  20:05:00     -342.734      -44.107        2.030      198.327      144.694       82.733    39333.533    20936.293     6844.692        9.325        3.356      345.560      103.245        0.089      344.274       20.973      857.838
06/25/2014  20:06:00     -315.902       -2.116        5.616      188.099      151.580       76.737    35381.121    22976.478     5888.578        8.203        3.212      315.909       82.084        0.068      344.251       20.935      857.856
06/25/2014  20:07:00     -161.917     -108.127       12.884      182.532      190.144       81.795    33317.829    36154.860     6690.455        5.711        3.808      194.701      106.152        0.297      344.283       20.989      857.855
06/25/2014  20:08:00     -317.174      -74.029       -8.915      188.358      163.887       86.481    35478.836    26858.793     7479.048        8.798        3.491      325.699      102.183        0.098      344.225       20.888      857.878
06/25/2014  20:09:00     -238.118      -61.244       22.533      213.488      129.335       98.138    45577.288    16727.526     9631.148        6.644        3.597      245.868      120.475        0.240      344.267       20.962      857.889
06/25/2014  20:10:00     -328.566     -163.464       -5.774      214.090      167.064       97.361    45834.371    27910.308     9479.167       10.895        4.161      366.982      105.404        0.082      344.232       20.903      857.939
06/25/2014  20:11:00     -461.942     -164.230      -17.140      232.600      168.761       94.192    54102.845    28480.423     8872.079       16.604        4.573      490.267      117.935        0.058      344.174       20.803      857.939
06/25/2014  20:12:00     -514.782     -132.238      -30.930      245.161      150.881       90.305    60104.111    22765.081     8154.975       18.722        4.551      531.496      116.605        0.048      344.174       20.802      857.945
06/25/2014  20:13:00     -186.683     -148.035       -0.435      182.027      157.769       89.702    33133.922    24891.082     8046.454        6.141        3.304      238.254      101.807        0.183      344.227       20.892      857.976
06/25/2014  20:14:00     -210.252     -120.664       24.501      180.222      174.959       88.322    32479.925    30610.752     7800.793        6.512        3.545      242.417       93.510        0.149      344.241       20.917      857.983
06/25/2014  20:15:00     -192.280      -79.226       -0.293      181.287      106.422       59.695    32865.149    11325.603     3563.492        4.549        2.388      207.962       65.461        0.099      344.248       20.929      858.048
06/25/2014  20:16:00     -333.618      -63.828      -14.235      158.439      113.940       71.977    25102.924    12982.253     5180.640        7.941        2.163      339.669       74.118        0.048      344.191       20.831      858.099
06/25/2014  20:17:00     -394.200      -42.288      -16.668      139.350       92.014       64.486    19418.468     8466.507     4158.462        9.475        1.602      396.462       67.178        0.029      344.137       20.740      858.124
06/25/2014  20:18:00     -220.106      -35.102      -16.158      136.544      122.898       58.938    18644.296    15103.920     3473.696        4.357        1.861      222.888       59.950        0.072      344.133       20.733      858.141
06/25/2014  20:19:00     -218.715     -123.916       -8.994      101.440       89.970       48.852    10290.058     8094.593     2386.469        4.202        1.039      251.379       44.508        0.031      344.121       20.713      858.131
06/25/2014  20:20:00     -366.867       41.909      -14.834      200.556      172.029       84.574    40222.801    29593.861     7152.745       10.676        3.848      369.253       93.356        0.064      344.087       20.652      858.100
06/25/2014  20:21:00     -203.736      -40.403       18.606      136.906      113.105       63.286    18743.194    12792.730     4005.148        3.951        1.777      207.703       58.875        0.080      344.161       20.781      858.180
06/25/2014  20:22:00     -207.506     -134.079       -3.423      151.210      134.750       70.371    22864.528    18157.531     4952.035        5.350        2.299      247.054       75.577        0.094      344.113       20.699      858.196
06/25/2014  20:23:00     -115.276     -131.681       29.415      142.240       97.641       69.419    20232.343     9533.771     4819.009        3.303        1.729      175.010       81.424        0.216      344.072       20.631      858.190
06/25/2014  20:24:00     -106.953      -83.621        2.225      142.137       92.316       49.193    20202.886     8522.160     2419.951        2.479        1.557      135.763       65.442        0.232      344.123       20.717      858.206
06/25/2014  20:25:00     -184.777      -52.913      -15.695      107.690       66.143       42.231    11597.041     4374.861     1783.441        2.747        0.888      192.204       43.672        0.052      344.072       20.630      858.231
06/25/2014  20:26:00     -157.585      -31.876        0.701       78.832       62.255       44.743     6214.417     3875.693     2001.956        1.897        0.605      160.777       39.004        0.059      344.063       20.614      858.247
06/25/2014  20:27:00     -205.298      -34.754      -10.484       65.516       68.531       37.253     4292.291     4696.525     1387.764        2.692        0.519      208.219       35.322        0.029      344.055       20.599      858.257
06/25/2014  20:28:00     -394.140      -81.518       -8.537      228.269      123.991       77.554    52106.749    15373.804     6014.628       11.777        3.675      402.481       74.813        0.035      344.054       20.597      858.283
06/25/2014  20:29:00     -382.708      -74.680       -7.852      224.543      116.863       78.927    50419.691    13656.884     6229.404       11.119        3.515      389.926      100.829        0.067      344.042       20.578      858.302
06/25/2014  20:30:00     -338.855     -196.240       -3.841      169.238      129.452       80.362    28641.346    16757.934     6458.011       10.259        2.593      391.577       84.964        0.047      344.034       20.563      858.311
06/25/2014  20:31:00     -336.904     -238.607      -16.065      197.510      114.878       79.182    39010.114    13196.880     6269.827       11.458        2.924      412.841       71.336        0.030      344.021       20.542      858.294
06/25/2014  20:32:00     -238.828     -137.850       -2.266      133.533       99.074       58.269    17831.020     9815.616     3395.286        5.354        1.552      275.756       61.643        0.050      344.048       20.589      858.328
06/25/2014  20:33:00     -121.847      -22.926       -4.314      113.669       62.502       59.309    12920.680     3906.526     3517.545        1.786        1.017      123.985       53.233        0.184      344.085       20.652      858.326
06/25/2014  20:34:00     -371.981      -61.298      -12.457      249.292      127.163       72.303    62146.700    16170.329     5227.771       11.290        4.177      376.997       82.316        0.048      344.001       20.506      858.337
06/25/2014  20:35:00     -414.865      -59.804      -18.659      178.687      161.564       76.291    31929.017    26102.992     5820.244       11.993        3.193      419.153       87.045        0.043      343.968       20.449      858.324
06/25/2014  20:36:00     -308.975       33.172      -18.289      146.487      106.811       60.285    21458.313    11408.496     3634.254        6.669        1.825      310.750       59.983        0.037      343.995       20.496      858.326
06/25/2014  20:37:00     -372.159      -76.758       -3.636      160.147      150.102       78.320    25646.999    22530.703     6134.022        9.935        2.716      379.992       80.112        0.044      344.009       20.520      858.331
06/25/2014  20:38:00     -296.930      -78.767      -14.616      128.561      128.839       70.278    16527.899    16599.500     4938.971        6.632        1.903      307.200       73.317        0.057      344.026       20.550      858.402
06/25/2014  20:39:00     -288.407      -25.791        0.400      149.344      114.127       74.175    22303.497    13024.911     5501.906        6.233        2.042      289.558       83.868        0.084      344.001       20.507      858.375
06/25/2014  20:40:00     -168.802      -10.909       16.648      166.965      111.281       60.922    27877.309    12383.388     3711.500        3.642        2.199      169.154       67.940        0.161      344.010       20.522      858.346
06/25/2014  20:41:00     -263.442      -15.238       -1.627      128.641      127.566       67.097    16548.565    16273.169     4501.947        5.347        1.866      263.883       65.181        0.061      343.962       20.440      858.345
06/25/2014  20:42:00     -421.588      -46.418      -21.521      135.283      145.007       67.788    18301.445    21026.955     4595.239       11.213        2.196      424.136       61.744        0.021      343.958       20.433      858.334
06/25/2014  20:43:00     -318.892     -143.774      -11.651      177.999      149.981       85.922    31683.589    22494.392     7382.646        9.202        3.078      349.804       70.480        0.041      343.973       20.458      858.309
06/25/2014  20:44:00     -339.487      -86.066        6.789      187.941      156.232       80.184    35321.648    24408.341     6429.457        9.442        3.308      350.227       88.272        0.064      343.965       20.446      858.289
06/25/2014  20:45:00     -320.612      -70.569       -8.776      186.894      121.068       76.841    34929.327    14657.423     5904.538        8.166        2.775      328.286       91.092        0.077      343.939       20.402      858.247
06/25/2014  20:46:00     -369.869      -56.337      -19.215      178.140      103.934       66.034    31734.017    10802.304     4360.500        9.361        2.345      374.135       86.579        0.054      343.961       20.438      858.247
06/25/2014  20:47:00     -339.274      -65.434       -3.045      165.739      116.939       74.318    27469.413    13674.812     5523.142        8.302        2.333      345.526       77.949        0.051      343.957       20.430      858.253
06/25/2014  20:48:00     -296.300      -64.277        0.550      139.302      130.664       78.439    19405.077    17072.954     6152.731        6.727        2.132      303.191       55.856        0.034      343.945       20.410      858.249
06/25/2014  20:49:00     -279.355      -67.092      -12.403      128.107      141.319       66.074    16411.382    19971.102     4365.744        6.171        2.037      287.299       67.597        0.055      343.916       20.363      858.233
06/25/2014  20:50:00     -411.246     -143.499      -15.474      275.119      167.257       88.119    75690.596    27975.052     7764.972       15.067        5.572      435.563      106.303        0.060      343.880       20.301      858.196
06/25/2014  20:51:00     -455.553      -65.075       -4.016      196.584      133.663       88.809    38645.377    17865.730     7887.021       13.808        3.220      460.177       97.491        0.045      343.834       20.221      858.226
06/25/2014  20:52:00     -322.362     -116.141       -4.443      218.686      184.925       88.957    47823.614    34197.110     7913.427       10.366        4.497      342.646      106.179        0.096      343.852       20.252      858.265
06/25/2014  20:53:00     -525.916      -44.324      -24.417      201.295      152.642       87.969    40519.828    23299.674     7738.498       17.534        3.578      527.780       96.561        0.033      343.803       20.171      858.307
06/25/2014  20:54:00     -212.836      -65.105       14.172      186.277      105.111       67.828    34699.085    11048.374     4600.645        5.004        2.517      222.571       85.058        0.146      343.844       20.240      858.315
06/25/2014  20:55:00     -241.935     -109.938      -20.608      155.814      132.775       71.165    24278.015    17629.168     5064.457        5.900        2.349      265.742       58.850        0.049      343.847       20.243      858.322
06/25/2014  20:56:00     -295.636     -110.960        8.696      137.416      121.970       75.852    18883.026    14876.648     5753.510        6.964        1.976      315.773       66.751        0.045      343.834       20.221      858.343
06/25/2014  20:57:00     -361.143     -262.784      -16.187      200.280      162.281       84.077    40112.001    26335.043     7068.977       13.662        3.676      446.632       95.154        0.045      343.823       20.205      858.329
06/25/2014  20:58:00     -150.767      -95.871        9.029      109.138       91.703       56.711    11911.052     8409.373     3216.087        2.777        1.177      178.667       54.411        0.093      343.871       20.285      858.350
06/25/2014  20:59:00     -158.905      -23.066       18.743      184.329       98.911       64.676    33977.184     9783.293     4182.965        3.703        2.397      160.571       78.746        0.241      343.851       20.252      858.353
06/25/2014  21:00:00     -247.677       -3.902       -8.737      116.074       99.707       50.896    13473.167     9941.397     2590.439        4.372        1.300      247.708       49.344        0.040      343.821       20.201      858.366
06/25/2014  21:01:00     -518.823     -174.813      -27.968      240.545      253.593       96.569    57861.697    64309.362     9325.579       21.599        6.575      547.483      115.153        0.044      343.870       20.284      858.326
06/25/2014  21:02:00     -427.871     -129.042      -17.937      175.123      117.839       66.003    30668.108    13885.927     4356.447       12.447        2.446      446.906       71.019        0.025      343.860       20.267      858.348
06/25/2014  21:03:00     -303.508     -154.186       -3.751      111.168      107.557       53.067    12358.419    11568.443     2816.100        7.132        1.337      340.427       57.915        0.029      343.827       20.211      858.379
06/25/2014  21:04:00     -157.475     -104.702       -0.089      134.705      122.206       73.639    18145.526    14934.259     5422.726        3.713        1.925      189.106       75.458        0.159      343.848       20.246      858.398
06/25/2014  21:05:00     -249.235     -101.874       -4.497      137.707      123.744       74.637    18963.124    15312.493     5570.722        5.617        1.992      269.251       69.809        0.067      343.812       20.184      858.426
06/25/2014  21:06:00     -308.900      -90.455       -1.510      150.138      119.089       64.338    22541.463    14182.157     4139.352        7.223        2.043      321.871       69.356        0.046      343.772       20.117      858.452
06/25/2014  21:07:00     -268.865     -119.951        2.277      139.032      128.641       74.567    19329.999    16548.444     5560.248        6.405        2.072      294.409       66.791        0.051      343.751       20.078      858.435
06/25/2014  21:08:00     -240.642     -186.365        6.138      153.849      132.001       74.550    23669.449    17424.155     5557.693        6.966        2.333      304.369       77.160        0.064      343.727       20.038      858.483
06/25/2014  21:09:00     -128.273      -86.729       16.310      115.887       86.698       45.398    13429.801     7516.479     2060.962        2.362        1.150      154.842       45.760        0.087      343.809       20.181      858.492
06/25/2014  21:10:00     -125.550      -35.033       -6.845      107.320       81.520       52.205    11517.534     6645.503     2725.343        1.896        1.044      130.346       48.974        0.141      343.783       20.135      858.496
06/25/2014  21:11:00     -240.186      -71.623        0.993      128.400      110.562       66.155    16486.649    12223.981     4376.533        4.795        1.654      250.638       58.945        0.055      343.776       20.122      858.509
06/25/2014  21:12:00     -225.520     -117.044       -6.456      143.603       99.532       55.217    20621.696     9906.665     3048.880        4.908        1.679      254.084       59.539        0.055      343.778       20.125      858.517
06/25/2014  21:13:00     -475.689     -108.188       -3.122      184.156      120.764       71.160    33913.268    14583.904     5063.748       14.577        2.678      487.836       70.483        0.021      343.741       20.062      858.493
06/25/2014  21:14:00     -351.951     -129.842        0.737      172.409      143.396       75.860    29724.713    20562.404     5754.665        9.838        2.802      375.138       74.316        0.039      343.683       19.964      858.497
06/25/2014  21:15:00     -210.063      -27.199      -22.409      107.174       97.914       44.726    11486.228     9587.236     2000.441        3.422        1.154      211.817       45.245        0.046      343.742       20.064      858.521
06/25/2014  21:16:00     -305.699       13.285      -23.423       82.000       91.651       43.341     6724.062     8399.907     1878.401        5.559        0.850      305.987       35.556        0.014      343.718       20.021      858.546
06/25/2014  21:17:00     -285.737      -88.042        0.397      134.278      102.543       53.738    18030.534    10515.089     2887.812        6.041        1.572      298.994       62.827        0.044      343.667       19.936      858.561
06/25/2014  21:18:00     -262.705      -20.360       -7.658      131.804       89.440       49.780    17372.260     7999.505     2477.999        4.866        1.392      263.492       59.952        0.052      343.651       19.910      858.585
06/25/2014  21:19:00     -280.056      -48.399      -12.570      101.925      103.010       58.531    10388.688    10611.035     3425.892        5.267        1.221      284.207       56.727        0.040      343.631       19.874      858.617
06/25/2014  21:20:00     -350.873      -76.964       -6.287      131.474      112.376       63.308    17285.450    12628.332     4007.965        8.149        1.696      359.215       66.120        0.034      343.640       19.891      858.592
06/25/2014  21:21:00     -360.981      -14.012       -0.175      184.615      132.431       67.351    34082.828    17537.979     4536.123        9.332        2.808      361.252       70.255        0.038      343.665       19.932      858.574
06/25/2014  21:22:00     -237.106      -98.213       -3.528      115.447      118.376       66.579    13328.084    14012.830     4432.799        4.882        1.589      256.642       61.259        0.057      343.708       20.006      858.589
06/25/2014  21:23:00     -191.672     -127.014        3.179      143.542      112.279       60.028    20604.250    12606.657     3603.304        4.484        1.841      229.936       68.566        0.089      343.688       19.974      858.585
06/25/2014  21:24:00     -162.545      -92.593        3.979      121.672       92.276       60.026    14803.995     8514.789     3603.123        3.096        1.346      187.068       58.594        0.098      343.659       19.923      858.585
06/25/2014  21:25:00     -162.309     -119.691      -10.782       99.857       86.727       47.369     9971.498     7521.507     2243.788        3.026        0.987      201.668       52.361        0.067      343.642       19.894      858.593
06/25/2014  21:26:00     -285.336     -105.643       -9.361       96.703       98.337       59.331     9351.518     9670.216     3520.202        5.760        1.127      304.265       59.186        0.038      343.620       19.855      858.606
06/25/2014  21:27:00     -308.207      -62.234       -4.017      107.909       94.386       57.519    11644.393     8908.710     3308.422        6.137        1.193      314.428       56.368        0.032      343.622       19.859      858.657
06/25/2014  21:28:00     -283.482      -45.990      -10.713      162.264      107.996       54.127    26329.528    11663.107     2929.719        6.175        2.046      287.189       66.312        0.053      343.597       19.819      858.642
06/25/2014  21:29:00     -256.115      -43.410      -16.319      142.350      114.943       62.677    20263.529    13211.803     3928.348        5.257        1.870      259.768       43.157        0.028      343.616       19.849      858.632
06/25/2014  21:30:00     -468.861     -115.387      -46.867      101.338       94.387       68.922    10269.439     8908.878     4750.299       12.963        1.196      482.851       58.171        0.015      343.556       19.748      858.647
06/25/2014  21:31:00     -327.619      -38.711      -23.088      165.402      124.150       72.999    27357.839    15413.318     5328.890        7.872        2.405      329.898       84.068        0.065      343.522       19.690      858.638
06/25/2014  21:32:00     -287.941     -117.218       -8.920      146.321      106.017       59.709    21409.942    11239.519     3565.194        6.647        1.811      310.886       69.315        0.050      343.545       19.728      858.651
06/25/2014  21:33:00     -284.499      -53.141      -26.488      141.783      114.795       54.174    20102.490    13177.877     2934.858        6.033        1.811      289.419       52.258        0.033      343.558       19.751      858.691
06/25/2014  21:34:00     -264.977      -42.335        7.174      115.713      119.593       57.827    13389.537    14302.402     3343.971        5.154        1.552      268.337       54.914        0.042      343.525       19.694      858.722
06/25/2014  21:35:00     -190.034      -37.176        0.173      123.705       91.754       57.394    15302.956     8418.768     3294.025        3.225        1.351      193.637       57.547        0.088      343.517       19.682      858.728
06/25/2014  21:36:00     -280.492       42.755      -21.537      203.345      160.473       73.638    41349.093    25751.461     5422.497        7.673        3.626      283.732       87.774        0.096      343.528       19.699      858.670
06/25/2014  21:37:00     -411.302      -42.436      -37.947      137.018       99.853       75.825    18774.054     9970.661     5749.369       10.345        1.725      413.486       74.608        0.033      343.512       19.673      858.723
06/25/2014  21:38:00     -429.430     -100.339      -23.895      115.293       86.903       60.409    13292.420     7552.081     3649.200       10.977        1.225      440.997       51.111        0.013      343.456       19.577      858.713
06/25/2014  21:39:00     -380.932     -123.901       -8.889      150.923      113.345       63.439    22777.871    12847.190     4024.559       10.009        1.982      400.575       57.507        0.021      343.444       19.557      858.676
06/25/2014  21:40:00     -218.902      -71.342      -16.165       74.181       56.525       47.892     5502.844     3195.083     2293.645        3.213        0.550      230.234       32.775        0.020      343.494       19.641      858.665
06/25/2014  21:41:00     -160.810      -62.990      -10.240       84.692       65.808       47.120     7172.695     4330.696     2220.309        2.183        0.686      172.707       40.450        0.055      343.525       19.694      858.673
06/25/2014  21:42:00     -227.861      -99.347      -12.520       75.706       66.020       38.092     5731.386     4358.599     1451.013        3.674        0.577      248.576       27.816        0.013      343.492       19.638      858.673
06/25/2014  21:43:00     -362.122      -53.548      -25.370      162.883      111.634       62.349    26530.887    12462.073     3887.449        8.875        2.144      366.059       70.649        0.037      343.484       19.626      858.663
06/25/2014  21:44:00     -258.492      -81.332      -13.897      130.845       98.285       46.470    17120.512     9659.877     2159.428        5.128        1.447      270.985       55.858        0.042      343.484       19.625      858.673
06/25/2014  21:45:00     -242.290      -75.085       -7.868       94.287       82.392       43.667     8890.059     6788.513     1906.782        4.099        0.879      253.657       40.993        0.026      343.498       19.649      858.669
06/25/2014  21:46:00     -264.186      -27.184       -4.534      111.790       89.393       50.559    12497.058     7991.071     2556.188        4.680        1.152      265.581       52.451        0.039      343.489       19.632      858.644
06/25/2014  21:47:00     -287.319      -43.683      -14.892       91.878       94.567       48.971     8441.620     8943.003     2398.122        5.223        0.989      290.621       47.805        0.027      343.495       19.644      858.656
06/25/2014  21:48:00     -414.426      -75.080      -29.078      106.212       80.530       51.782    11280.960     6485.036     2681.411        9.934        1.022      421.172       50.236        0.014      343.451       19.567      858.688
06/25/2014  21:49:00     -246.503      -52.046      -15.722      132.385       95.586       60.352    17525.856     9136.697     3642.335        4.701        1.515      251.937       67.257        0.071      343.465       19.593      858.701
06/25/2014  21:50:00     -248.402      -78.158       -1.429      139.854      128.491       65.495    19559.229    16509.915     4289.618        5.408        2.018      260.408       74.456        0.082      343.470       19.602      858.706
06/25/2014  21:51:00     -287.819      -75.707      -10.370       88.976       79.332       49.821     7916.733     6293.577     2482.093        5.268        0.835      297.609       35.333        0.014      343.457       19.579      858.713
06/25/2014  21:52:00     -355.154      -39.771      -26.238      151.557       96.431       62.408    22969.630     9298.913     3894.708        8.228        1.808      357.374       73.512        0.042      343.443       19.555      858.720
06/25/2014  21:53:00     -386.615      -44.493       -0.333      133.570       83.254       59.235    17840.913     6931.209     3508.777        8.986        1.414      389.167       63.671        0.027      343.401       19.484      858.709
06/25/2014  21:54:00     -340.353      -68.063       -6.413      164.413      130.130       73.624    27031.575    16933.820     5420.421        8.494        2.469      347.092       78.906        0.052      343.386       19.459      858.720
06/25/2014  21:55:00     -428.951      -77.621      -30.627      158.324      115.005       73.816    25066.400    13226.076     5448.793       11.734        2.187      435.917       76.393        0.031      343.381       19.449      858.709
06/25/2014  21:56:00     -310.802      -58.251      -11.333       91.296      101.075       45.041     8334.987    10216.205     2028.695        6.035        1.029      316.214       39.194        0.015      343.390       19.465      858.712
06/25/2014  21:57:00     -333.360       32.140      -25.488      113.045      102.744       54.642    12779.155    10556.247     2985.703        6.956        1.316      334.906       48.818        0.021      343.387       19.461      858.704
06/25/2014  21:58:00     -271.836      -66.172       -5.564       88.820      103.410       53.692     7888.931    10693.684     2882.879        4.988        1.073      279.774       42.967        0.024      343.396       19.475      858.713
06/25/2014  21:59:00     -216.348     -131.927        9.354      122.361      107.088       59.159    14972.113    11467.774     3499.827        4.711        1.497      253.400       56.202        0.049      343.425       19.524      858.754
06/25/2014  22:00:00     -247.243       45.527      -22.446       88.891       73.585       46.125     7901.648     5414.706     2127.473        3.957        0.772      251.400       48.409        0.037      343.387       19.462      858.753
06/25/2014  22:01:00     -243.746      -75.725       -8.286      100.937       78.110       43.229    10188.235     6101.149     1868.711        4.168        0.908      255.238       41.065        0.026      343.397       19.477      858.725
06/25/2014  22:02:00     -254.337      -89.820        3.625      149.893       93.447       57.238    22468.042     8732.280     3276.202        5.362        1.724      269.731       59.361        0.048      343.407       19.494      858.750
06/25/2014  22:03:00     -279.960      -88.276       -6.534      171.238       93.046       65.882    29322.550     8657.549     4340.483        6.426        2.116      293.548       85.916        0.086      343.405       19.491      858.764
06/25/2014  22:04:00     -320.279     -156.780      -11.544      120.081      101.926       57.388    14419.539    10388.919     3293.390        7.769        1.405      356.593       47.494        0.018      343.405       19.490      858.766
06/25/2014  22:05:00     -341.082      -35.489      -20.388      153.642      111.212       60.145    23605.984    12368.128     3617.433        7.880        1.980      342.924       78.227        0.052      343.405       19.490      858.804
06/25/2014  22:06:00     -190.331      -63.144       -7.953      136.855      102.568       61.915    18729.172    10520.238     3833.491        3.667        1.654      200.532       71.841        0.128      343.420       19.517      858.793
06/25/2014  22:07:00     -197.555      -98.426       -7.433      118.603       81.291       36.590    14066.735     6608.187     1338.827        3.539        1.101      220.716       46.520        0.044      343.431       19.534      858.804
06/25/2014  22:08:00     -143.662      -24.422       14.657       91.285       76.228       48.503     8333.015     5810.749     2352.498        1.897        0.825      145.723       49.860        0.117      343.423       19.522      858.804
06/25/2014  22:09:00     -237.707      -26.792      -15.822      107.272       69.305       46.964    11507.319     4803.238     2205.637        3.799        0.926      239.212       54.071        0.051      343.410       19.499      858.805
06/25/2014  22:10:00     -294.754      -19.179       -3.673      129.773       98.271       58.700    16840.997     9657.270     3445.702        5.860        1.497      295.377       64.787        0.048      343.394       19.472      858.818
06/25/2014  22:11:00     -212.044      -37.814       -6.418      135.654      131.032       63.750    18401.968    17169.338     4064.081        4.303        1.982      215.389       60.836        0.080      343.407       19.493      858.824
06/25/2014  22:12:00     -143.546      -32.580        0.249      134.462      123.427       68.725    18079.895    15234.102     4723.133        2.985        1.902      147.197       69.446        0.223      343.417       19.512      858.798
06/25/2014  22:13:00     -273.933      -39.866        4.733      134.840      102.529       61.780    18181.751    10512.178     3816.798        5.458        1.626      276.818       63.124        0.052      343.384       19.455      858.809
06/25/2014  22:14:00     -364.963      -76.818       -2.806      162.543      119.918       58.394    26420.279    14380.229     3409.854        9.165        2.211      372.960       61.957        0.028      343.351       19.397      858.796
06/25/2014  22:15:00     -274.762      -94.992      -14.471      133.067       96.366       57.438    17706.915     9286.322     3299.164        5.750        1.515      290.719       48.796        0.028      343.353       19.401      858.805
06/25/2014  22:16:00     -180.868       -1.708       -0.470      136.062       91.853       54.148    18512.850     8437.059     2931.988        3.129        1.494      180.876       62.695        0.120      343.344       19.387      858.822
06/25/2014  22:17:00     -304.965       -2.192      -28.241      103.884       74.446       56.089    10791.928     5542.218     3145.999        5.664        0.974      304.972       47.533        0.024      343.341       19.382      858.832
06/25/2014  22:18:00     -268.842      -51.887      -11.133      161.940      101.187       58.939    26224.718    10238.749     3473.820        5.751        1.997      273.804       74.569        0.074      343.325       19.354      858.827
06/25/2014  22:19:00     -381.604      -66.155      -23.731      105.578      114.710       52.581    11146.660    13158.489     2764.730        8.881        1.353      387.296       47.013        0.015      343.307       19.321      858.763
06/25/2014  22:20:00     -246.063     -101.380      -20.707      101.550       89.633       50.183    10312.340     8034.151     2518.353        4.606        1.043      266.129       38.842        0.021      343.335       19.371      858.740
06/25/2014  22:21:00     -298.713      -40.472      -12.142      121.732       95.615       48.476    14818.734     9142.239     2349.888        5.866        1.316      301.442       47.538        0.025      343.322       19.349      858.776
06/25/2014  22:22:00     -330.350      -21.874      -33.068      103.746      109.113       59.687    10763.194    11905.649     3562.488        6.846        1.312      331.073       57.074        0.030      343.306       19.321      858.782
06/25/2014  22:23:00     -273.647      -32.520      -14.658      100.198      117.909       58.984    10039.726    13902.418     3479.079        5.178        1.371      275.572       57.346        0.043      343.306       19.321      858.764
06/25/2014  22:24:00     -254.790     -117.354       -2.960      153.914       95.400       56.414    23689.619     9101.205     3182.486        5.733        1.799      280.517       63.034        0.050      343.300       19.311      858.743
06/25/2014  22:25:00     -278.365     -153.322       -3.422      128.825      108.050       59.160    16595.960    11674.723     3499.867        6.638        1.589      317.797       61.974        0.038      343.291       19.296      858.740
06/25/2014  22:26:00     -267.801      -73.569       -1.285      114.482       86.604       51.192    13106.174     7500.221     2620.642        5.018        1.161      277.722       59.946        0.047      343.273       19.262      858.744
06/25/2014  22:27:00     -315.469      -65.743       -8.208      121.571       88.318       52.718    14779.533     7800.108     2779.225        6.463        1.268      322.247       52.617        0.027      343.264       19.249      858.749
06/25/2014  22:28:00     -284.615      -87.810      -12.130      146.940      108.298       58.871    21591.482    11728.355     3465.802        6.282        1.839      297.853       65.710        0.049      343.266       19.251      858.732
06/25/2014  22:29:00     -368.250      -66.900      -21.283      170.825       97.570       69.463    29181.201     9519.846     4825.160        9.202        2.176      374.278       88.000        0.055      343.263       19.246      858.727
06/25/2014  22:30:00     -415.127      -61.286       -6.761      185.992      118.504       67.276    34593.172    14043.147     4526.004       11.464        2.658      419.626       78.758        0.035      343.233       19.197      858.745
06/25/2014  22:31:00     -385.143      -78.278      -24.167      144.421      133.459       78.012    20857.464    17811.304     6085.837        9.989        2.238      393.018       86.306        0.048      343.248       19.221      858.760
06/25/2014  22:32:00     -308.921      -53.348        6.320      141.155       91.756       67.912    19924.679     8419.162     4612.056        6.563        1.648      313.494       73.357        0.055      343.236       19.203      858.775
06/25/2014  22:33:00     -368.454      -39.078      -31.958      141.775       97.202       63.288    20100.102     9448.173     4005.344        8.592        1.678      370.520       68.822        0.035      343.241       19.210      858.803
06/25/2014  22:34:00     -317.765        4.369      -17.904      122.271       80.716       57.878    14950.100     6515.081     3349.850        6.306        1.241      317.795       60.381        0.036      343.216       19.168      858.818
06/25/2014  22:35:00     -215.231     -127.646        1.660      153.743      112.097       57.971    23636.940    12565.825     3360.595        5.109        1.978      250.236       72.974        0.085      343.214       19.166      858.791
06/25/2014  22:36:00      -81.004      -31.405       15.900      139.157       78.264       59.229    19364.711     6125.221     3508.070        1.839        1.450       86.879       75.205        0.749      343.229       19.191      858.756
06/25/2014  22:37:00     -285.015       -6.456      -19.942      155.103      146.539       72.824    24057.016    21473.805     5303.331        6.625        2.542      285.088       64.568        0.051      343.210       19.159      858.748
06/25/2014  22:38:00     -377.272      -75.948      -10.695      117.810       95.819       63.093    13879.114     9181.304     3980.671        8.762        1.352      384.841       53.181        0.019      343.183       19.109      858.737
06/25/2014  22:39:00     -244.096      -46.156       -6.201      160.985      118.250       65.895    25916.282    13983.101     4342.216        5.299        2.212      248.421       68.151        0.075      343.198       19.138      858.693
06/25/2014  22:40:00     -394.578      -23.531      -38.898      170.655      123.200       68.930    29123.016    15178.244     4751.373       10.340        2.453      395.279       71.588        0.033      343.181       19.107      858.683
06/25/2014  22:41:00     -552.630      -87.429      -49.209      173.107      119.963       74.942    29966.120    14391.006     5616.297       18.271        2.499      559.503       85.834        0.024      343.174       19.095      858.702
06/25/2014  22:42:00     -302.948      -75.137      -25.047      121.200      119.150       55.570    14689.519    14196.799     3087.982        6.501        1.599      312.126       52.733        0.029      343.180       19.107      858.720
06/25/2014  22:43:00     -383.926      -85.836      -23.531      129.171      118.721       63.060    16685.032    14094.746     3976.615        9.503        1.738      393.405       57.258        0.021      343.160       19.072      858.710
06/25/2014  22:44:00     -364.155      -67.951      -17.720      145.552      135.278       64.047    21185.401    18300.094     4101.961        9.056        2.179      370.441       67.542        0.033      343.159       19.068      858.710
06/25/2014  22:45:00     -262.761      -32.554      -12.091      145.240       92.885       52.411    21094.754     8627.626     2746.887        5.135        1.623      264.770       56.062        0.045      343.147       19.052      858.712
06/25/2014  22:46:00     -198.353      -56.526        3.979      108.585       92.571       50.671    11790.725     8569.467     2567.556        3.274        1.146      206.250       48.554        0.055      343.170       19.090      858.713
06/25/2014  22:47:00     -183.420       13.099       -5.195      107.230       89.516       52.422    11498.167     8013.031     2748.052        2.805        1.113      183.887       49.233        0.072      343.154       19.063      858.709
06/25/2014  22:48:00     -222.072      -69.619       -7.746      121.100       80.034       50.724    14665.135     6405.445     2572.971        3.893        1.182      232.729       57.136        0.060      343.141       19.041      858.702
06/25/2014  22:49:00     -255.583      -11.044      -17.893      148.249       80.289       52.664    21977.836     6446.326     2773.513        4.848        1.560      255.822       70.760        0.077      343.129       19.020      858.673
06/25/2014  22:50:00     -238.583      -14.961      -10.710      134.280       76.244       47.073    18031.249     5813.098     2215.875        4.166        1.303      239.052       51.496        0.046      343.123       19.010      858.662
06/25/2014  22:51:00     -318.608     -107.604      -10.089      161.927      129.300       69.071    26220.385    16718.400     4770.830        8.044        2.385      336.289       70.586        0.044      343.138       19.036      858.655
06/25/2014  22:52:00     -384.720      -80.636      -16.220      172.048      116.429       75.371    29600.440    13555.692     5680.757       10.180        2.442      393.080       94.965        0.058      343.122       19.007      858.665
06/25/2014  22:53:00     -412.343     -134.212      -11.894      196.746      144.776       80.026    38708.879    20960.191     6404.136       12.712        3.304      433.635       90.932        0.044      343.126       19.015      858.682
06/25/2014  22:54:00     -291.339     -100.806      -11.243      130.078      119.891       52.859    16920.382    14373.823     2794.085        6.462        1.704      308.286       50.099        0.026      343.142       19.042      858.733
06/25/2014  22:55:00     -385.258     -117.021       -5.838      136.888       98.837       64.561    18738.264     9768.822     4168.144        9.741        1.634      402.638       69.649        0.030      343.140       19.039      858.760
06/25/2014  22:56:00     -349.727       -4.956      -13.425      140.672      125.817       65.120    19788.623    15829.819     4240.586        8.118        1.993      349.762       68.700        0.039      343.149       19.054      858.779
06/25/2014  22:57:00     -303.097     -133.742       -2.892      162.375      113.068       59.733    26365.659    12784.319     3568.088        7.623        2.136      331.292       65.274        0.039      343.145       19.047      858.774
06/25/2014  22:58:00     -246.450      -64.521      -11.904      106.377      103.992       57.453    11316.076    10814.261     3300.892        4.523        1.272      254.755       48.289        0.036      343.150       19.056      858.801
06/25/2014  22:59:00     -338.145      -56.005      -12.807      148.021      130.826       63.257    21910.099    17115.537     4001.511        8.033        2.151      342.751       66.836        0.038      343.139       19.036      858.804
06/25/2014  23:00:00     -295.692      -95.898       -9.154      131.020       76.587       55.363    17166.168     5865.498     3065.025        6.140        1.305      310.854       53.161        0.029      343.139       19.037      858.832
06/25/2014  23:01:00     -309.784      -16.246      -12.490      133.661      123.910       58.402    17865.177    15353.673     3410.794        6.650        1.831      310.210       62.489        0.041      343.128       19.019      858.840
06/25/2014  23:02:00     -222.575      -85.534      -17.427      135.281       79.433       49.404    18300.901     6309.609     2440.740        4.210        1.353      238.444       52.541        0.049      343.142       19.044      858.848
06/25/2014  23:03:00     -267.361      -29.990        5.280      198.322      101.624       72.294    39331.650    10327.432     5226.358        6.364        2.744      269.038       98.169        0.133      343.127       19.016      858.858
06/25/2014  23:04:00     -296.356      -96.962       -0.512      124.377       96.571       58.244    15469.752     9326.049     3392.361        6.270        1.409      311.815       59.688        0.037      343.113       18.992      858.839
06/25/2014  23:05:00     -272.969      -58.437      -19.452      160.020      112.600       74.174    25606.429    12678.662     5501.847        6.104        2.189      279.154       82.080        0.086      343.128       19.019      858.824
06/25/2014  23:06:00     -339.445      -43.179      -42.359       89.266      114.910       55.233     7968.375    13204.219     3050.672        7.155        1.211      342.180       43.113        0.016      343.158       19.068      858.805
06/25/2014  23:07:00     -397.171     -100.558       -2.771      162.367      141.398       95.084    26363.131    19993.509     9040.993       11.162        2.770      409.704       87.052        0.045      343.082       18.939      858.789
06/25/2014  23:08:00     -528.878     -131.136      -16.337      260.535      146.569       91.705    67878.497    21482.566     8409.831       19.746        4.889      544.893      101.947        0.035      343.079       18.935      858.790
06/25/2014  23:09:00     -449.631     -176.329      -21.218      190.316      140.882       81.751    36220.170    19847.751     6683.301       14.822        3.138      482.970       79.513        0.027      343.063       18.908      858.807
06/25/2014  23:10:00     -379.783      -65.682       -3.318      143.126      129.812       65.377    20484.989    16851.261     4274.162        9.508        2.081      385.421       62.680        0.026      343.064       18.909      858.828
06/25/2014  23:11:00     -298.370      -56.909      -13.496      141.002      107.191       54.898    19881.498    11489.975     3013.737        6.341        1.719      303.749       56.693        0.035      343.062       18.905      858.845
06/25/2014  23:12:00     -325.167      -53.505      -12.679      115.580      117.515       64.091    13358.781    13809.662     4107.673        7.001        1.564      329.540       61.501        0.035      343.064       18.908      858.830
06/25/2014  23:13:00     -426.093      -22.248      -40.247      134.295      111.805       58.758    18035.089    12500.393     3452.449       10.882        1.699      426.674       55.839        0.017      343.048       18.882      858.810
06/25/2014  23:14:00     -366.528     -155.405      -16.763      142.065      135.746       58.583    20182.457    18427.077     3431.970       10.040        2.102      398.112       59.536        0.022      343.062       18.905      858.803
06/25/2014  23:15:00     -383.687     -115.798      -17.747       92.820      104.048       61.422     8615.518    10825.979     3772.679        9.207        1.161      400.780       44.797        0.012      343.077       18.929      858.825
06/25/2014  23:16:00     -189.633      -64.109        4.177      188.862      127.942       67.437    35668.977    16369.190     4547.764        4.833        2.829      200.176       72.310        0.130      343.098       18.969      858.839
06/25/2014  23:17:00     -311.735      -83.102       -8.680      151.546      143.044       66.589    22966.240    20461.688     4434.080        7.600        2.393      322.621       78.973        0.060      343.100       18.970      858.808
06/25/2014  23:18:00     -300.528      -77.447        1.665      138.358      128.679       59.798    19143.057    16558.215     3575.807        6.779        1.964      310.346       55.973        0.033      343.077       18.930      858.788
06/25/2014  23:19:00     -481.689      -58.723      -25.251      186.628      118.128       63.643    34829.968    13954.135     4050.428       14.446        2.642      485.255       73.499        0.023      343.062       18.905      858.794
06/25/2014  23:20:00     -486.860      -32.658      -50.006      162.940      119.284       65.694    26549.606    14228.597     4315.681       14.284        2.255      487.954       69.550        0.020      343.049       18.884      858.802
06/25/2014  23:21:00     -315.809      -38.396       -3.690      164.401      124.999       78.770    27027.688    15624.632     6204.722        7.503        2.443      318.134       85.731        0.073      343.037       18.863      858.814
06/25/2014  23:22:00     -523.042     -107.564      -33.640      144.417      173.302       68.349    20856.389    30033.460     4671.539       17.091        2.778      533.988       66.210        0.015      343.019       18.832      858.779
06/25/2014  23:23:00     -361.223      -65.202       -9.058      157.464      134.707       70.519    24794.930    18146.084     4972.958        9.136        2.396      367.061       73.246        0.040      343.002       18.803      858.785
06/25/2014  23:24:00     -345.095      -59.147       -8.143      160.752      181.222       80.434    25841.153    32841.245     6469.575        9.389        3.258      350.127       77.524        0.049      342.993       18.790      858.757
06/25/2014  23:25:00     -344.968      -90.797      -11.117      134.424      121.037       65.551    18069.818    14650.051     4296.904        8.219        1.851      356.717       68.682        0.037      343.002       18.804      858.751
06/25/2014  23:26:00     -299.797      -81.802      -11.302      123.803      112.690       57.160    15327.170    12699.128     3267.275        6.399        1.565      310.757       40.225        0.017      343.002       18.805      858.769
06/25/2014  23:27:00     -208.877      -65.145       -9.983       86.814       73.919       48.687     7536.689     5464.038     2370.397        3.167        0.769      218.800       42.370        0.037      343.020       18.836      858.751
06/25/2014  23:28:00     -203.364       -9.826        7.088      150.878      106.093       67.815    22764.305    11255.653     4598.904        4.005        1.931      203.601       74.766        0.135      343.027       18.848      858.746
06/25/2014  23:29:00     -263.248      -80.870       -9.294      158.381      135.867       57.569    25084.579    18459.723     3314.216        6.138        2.343      275.390       60.830        0.049      342.992       18.786      858.764
06/25/2014  23:30:00     -273.892       12.057      -13.195      129.803       92.002       52.699    16848.946     8464.315     2777.141        5.171        1.405      274.158       52.643        0.037      342.989       18.783      858.771
06/25/2014  23:31:00     -311.575     -176.965      -11.343      119.985       99.405       56.429    14396.453     9881.436     3184.194        7.799        1.373      358.323       58.196        0.026      342.995       18.791      858.752
06/25/2014  23:32:00     -203.179     -114.829      -22.888       95.902       93.183       54.565     9197.127     8683.049     2977.371        3.792        1.043      233.382       52.257        0.050      343.014       18.824      858.756
06/25/2014  23:33:00     -270.253      -29.415      -12.528      121.207      119.568       53.297    14691.239    14296.393     2840.591        5.294        1.591      271.849       53.499        0.039      342.971       18.751      858.786
06/25/2014  23:34:00     -296.140      -58.759       -6.853      139.698      159.070       70.238    19515.547    25303.304     4933.336        7.047        2.488      301.913       66.278        0.048      342.980       18.767      858.794
06/25/2014  23:35:00     -288.219      -64.016       -5.662      156.422      107.847       58.815    24467.845    11630.899     3459.226        6.337        1.978      295.243       68.790        0.054      342.990       18.783      858.793
06/25/2014  23:36:00     -357.622      -73.664      -28.150      168.398      154.706       64.527    28357.830    23934.048     4163.737        9.527        2.823      365.130       70.343        0.037      342.971       18.751      858.804
06/25/2014  23:37:00     -430.588      -51.804      -11.497      223.293      143.374       79.557    49859.590    20555.987     6329.269       13.247        3.837      433.693       85.022        0.038      342.960       18.732      858.813
06/25/2014  23:38:00     -404.029      -73.011      -23.223      117.413      105.065       64.358    13785.848    11038.583     4141.963        9.903        1.448      410.573       63.358        0.024      342.951       18.717      858.836
06/25/2014  23:39:00     -320.479      -76.230      -23.424      120.891       92.277       56.291    14614.580     8515.040     3168.681        6.768        1.315      329.421       52.497        0.025      342.962       18.736      858.846
06/25/2014  23:40:00     -360.943     -130.824       -9.721      126.739       77.512       54.210    16062.674     6008.079     2938.713        8.625        1.250      383.920       40.728        0.011      342.947       18.708      858.834
06/25/2014  23:41:00     -427.064     -140.464      -15.754      145.867       91.997       53.166    21277.151     8463.384     2826.628       11.746        1.628      449.571       52.110        0.013      342.936       18.692      858.818
06/25/2014  23:42:00     -388.047       16.196      -24.030      164.793      155.981       77.912    27156.801    24330.140     6070.352       10.448        2.878      388.385       74.648        0.037      342.927       18.678      858.831
06/25/2014  23:43:00     -302.476      -99.400      -18.855      110.957      110.652       48.874    12311.559    12243.849     2388.670        6.433        1.347      318.390       37.670        0.014      342.941       18.701      858.845
06/25/2014  23:44:00     -203.306      -66.836       -5.702      114.777       81.779       58.631    13173.770     6687.729     3437.604        3.456        1.165      214.010       66.822        0.097      342.955       18.725      858.840
06/25/2014  23:45:00     -236.875      -65.499       -6.228      145.107      102.119       55.416    21056.005    10428.222     3070.923        4.749        1.728      245.764       49.645        0.041      342.928       18.679      858.849
06/25/2014  23:46:00     -289.317      -42.822      -16.135      120.021       89.319       45.262    14405.085     7977.930     2048.618        5.511        1.222      292.468       47.143        0.026      342.914       18.655      858.838
06/25/2014  23:47:00     -375.456     -145.451       -0.863      186.330      145.739       79.741    34718.878    21239.830     6358.568       11.221        3.116      402.646       91.443        0.052      342.915       18.657      858.817
06/25/2014  23:48:00     -291.760     -104.383      -16.030      164.798      138.031       81.578    27158.443    19052.578     6655.047        7.456        2.643      309.870       71.161        0.053      342.919       18.664      858.807
06/25/2014  23:49:00     -382.544      -28.156      -22.620      127.201      125.001       59.565    16180.007    15625.162     3547.967        9.149        1.768      383.579       60.657        0.025      342.923       18.670      858.834
06/25/2014  23:50:00     -263.050      -34.191      -23.904      129.363       95.601       54.782    16734.792     9139.561     3001.104        4.990        1.444      265.263       63.306        0.057      342.921       18.667      858.853
06/25/2014  23:51:00     -294.969      -39.843      -10.448      137.121       80.109       58.242    18802.050     6417.425     3392.108        5.865        1.431      297.647       59.085        0.039      342.909       18.646      858.862
06/25/2014  23:52:00     -276.291      -22.846      -10.418      125.951      101.150       55.225    15863.758    10231.273     3049.826        5.305        1.457      277.234       66.801        0.058      342.903       18.636      858.862
06/25/2014  23:53:00     -321.315      -58.886       -6.331      143.005      117.311       64.244    20450.487    13761.817     4127.327        7.254        1.917      326.666       75.659        0.054      342.910       18.648      858.863
06/25/2014  23:54:00     -248.286      -13.855      -28.177       87.735       92.563       49.723     7697.453     8567.967     2472.352        4.068        0.937      248.672       42.391        0.029      342.911       18.650      858.856
06/25/2014  23:55:00     -227.120      -27.661       -9.844      160.127       82.231       69.151    25640.507     6762.006     4781.827        4.481        1.859      228.799       79.454        0.121      342.934       18.689      858.803
06/25/2014  23:56:00     -329.276     -203.621       -8.937      252.966      139.850      100.875    63991.952    19557.901    10175.841       12.183        4.686      387.149      123.855        0.102      342.890       18.613      858.760
06/25/2014  23:57:00     -332.113      -88.416      -12.129      119.987      152.345       65.306    14396.831    23209.037     4264.833        8.006        2.094      343.680       61.071        0.032      342.884       18.602      858.726
06/25/2014  23:58:00     -361.836       17.636      -13.005      167.032      111.992       67.200    27899.668    12542.199     4515.822        8.817        2.248      362.266       84.390        0.054      342.872       18.582      858.714
06/25/2014  23:59:00     -251.925       12.151       -9.917      130.582       94.930       58.617    17051.530     9011.748     3435.907        4.660        1.475      252.218       61.982        0.060      342.880       18.595      858.700
